GFSMW_925_thetae_000.txt.gz
Theta_e
328 326 325 325 325 326 325 327 325 323 322 323 319 317 316 315 316 315 314 312 313 313 312 312 312 311 312 312 312 311 312 312 314 316 317 316 316 318 318 316 314 312 311
324 324 324 325 327 326 325 324 321 318 317 317 316 315 315 315 314 314 312 312 311 310 310 309 309 310 309 309 310 311 310 309 309 313 314 313 312 314 314 315 316 314 313
323 323 324 323 322 321 320 318 317 315 314 314 314 313 313 312 312 313 313 312 312 311 308 307 307 307 307 307 307 308 308 310 308 309 310 310 310 311 311 312 312 313 313
320 321 322 321 320 318 317 316 315 313 313 312 313 312 313 313 314 314 312 311 309 308 306 306 306 305 306 305 307 306 306 307 308 308 308 306 304 307 308 309 309 309 311
321 320 320 319 319 318 317 316 315 314 313 312 311 312 313 313 311 309 309 307 307 305 304 304 303 304 303 304 305 305 304 306 305 304 303 302 301 301 301 304 301 302 303
320 319 318 318 318 317 316 315 314 313 313 312 312 311 308 308 308 308 307 304 303 303 303 302 302 303 303 303 304 304 304 302 302 301 301 300 300 299 298 299 298 299 299
321 320 319 318 317 316 316 315 315 314 313 312 310 309 309 308 307 305 304 302 302 302 301 302 301 302 301 301 300 299 302 301 300 299 299 298 298 297 297 296 296 297 297
320 319 318 317 317 316 316 316 315 314 313 312 311 309 307 305 305 303 301 301 301 301 300 301 300 300 299 298 298 298 299 298 298 298 297 296 296 296 296 296 295 295 295
319 318 317 317 317 316 315 315 314 314 313 312 309 306 305 304 303 301 300 300 301 301 300 299 299 298 298 298 297 297 296 296 296 296 296 296 295 295 295 296 296 296 296
318 318 317 316 316 315 315 315 314 313 312 308 305 304 304 304 302 301 301 301 300 298 299 299 298 298 297 296 295 295 295 295 295 295 295 294 295 295 294 294 294 295 295
318 317 316 315 315 314 314 313 311 310 308 306 304 304 303 302 301 301 300 299 298 297 297 296 295 295 295 295 293 292 292 293 292 293 293 293 293 293 293 293 293 293 293
316 316 315 313 312 312 311 311 309 309 307 305 304 303 302 301 300 300 298 296 296 296 295 295 294 294 294 293 293 293 293 293 293 292 292 292 292 292 291 291 291 291 292
315 315 313 313 311 309 308 307 308 307 306 305 304 302 301 299 298 297 296 295 295 294 293 292 291 290 290 290 290 290 290 289 288 288 289 290 290 290 290 290 290 290 290
315 314 313 311 308 307 306 306 305 306 306 305 303 302 300 298 296 296 294 293 293 291 291 290 290 290 289 289 289 288 288 287 286 286 286 286 288 289 289 289 289 288 288
314 312 311 309 307 305 304 303 303 304 304 303 302 301 300 297 296 295 293 292 291 290 289 289 289 289 289 288 286 285 285 285 285 284 284 285 286 287 287 288 287 287 286
310 309 308 306 305 303 302 300 301 301 303 302 301 301 300 297 296 294 293 292 290 289 289 289 289 289 288 287 285 285 284 283 283 283 283 284 285 286 287 286 286 285 284
308 307 305 304 302 300 299 299 299 299 301 301 300 300 297 296 295 295 293 291 290 289 289 289 289 288 288 286 285 284 282 281 281 282 282 283 284 284 285 285 284 284 285
306 305 303 301 300 299 298 297 297 297 297 298 299 298 297 296 295 294 293 291 290 289 289 290 288 288 287 286 285 283 282 281 281 281 281 282 282 283 283 283 282 283 283
304 302 301 300 299 298 297 296 296 296 297 297 298 297 295 295 294 293 292 291 289 289 290 289 288 287 286 285 285 283 281 281 280 280 281 282 282 282 282 282 282 282 282
301 300 299 298 297 296 295 295 295 295 295 296 296 294 294 294 294 293 292 290 290 289 289 288 287 286 285 285 284 282 281 280 280 280 280 280 281 281 281 281 282 282 283
300 299 298 297 296 295 295 295 294 294 296 295 295 294 293 293 292 292 290 290 289 289 288 287 286 285 285 284 283 281 280 280 279 279 279 280 281 280 280 280 280 280 280
299 298 297 296 295 295 295 294 294 294 295 295 294 294 293 292 291 290 289 289 289 288 287 286 285 284 283 282 281 280 279 279 278 278 279 279 280 280 279 279 279 279 279
298 297 296 296 295 295 295 294 294 293 293 293 292 292 291 291 290 289 289 289 288 287 286 284 283 282 281 280 279 278 277 277 277 277 278 278 279 278 279 280 280 280 279
297 296 296 295 295 294 294 294 293 293 292 291 291 291 290 290 290 289 289 288 287 286 284 283 281 280 279 278 277 277 277 276 276 276 278 278 277 278 279 279 279 279 280
297 296 295 295 295 294 294 293 292 291 291 290 290 289 290 290 289 289 287 287 286 285 283 281 280 279 278 277 277 277 277 277 276 277 277 277 276 277 278 278 278 279 279
295 295 294 294 294 294 294 293 291 290 290 289 289 289 289 289 289 288 287 287 286 285 283 282 280 278 277 277 276 276 277 277 276 277 277 276 276 277 277 278 277 278 278

GFSMW_925_thetae_003.txt.gz
Theta_e
322 324 322 323 324 326 326 324 322 319 322 319 317 315 314 314 314 312 312 312 312 312 312 311 311 310 310 308 308 308 306 307 308 308 310 310 309 311 311 313 315 316 315
322 321 319 319 320 318 317 316 316 315 315 315 313 313 313 313 312 312 312 312 312 312 310 309 308 307 307 306 306 305 308 307 307 308 309 308 310 310 311 311 311 309 310
320 319 318 317 317 316 315 315 314 314 313 313 313 312 312 312 313 313 313 310 309 308 307 306 305 305 307 306 304 305 305 306 306 308 308 306 306 305 308 307 306 305 304
319 319 318 318 317 316 315 314 313 313 312 311 311 311 312 313 312 309 308 308 305 305 304 304 303 303 304 304 304 303 305 306 306 306 306 303 302 302 301 302 300 301 299
315 316 317 318 317 316 315 314 313 313 312 311 310 311 311 308 307 308 306 304 303 301 302 302 302 302 303 303 302 302 302 303 303 302 302 302 301 300 300 299 298 298 298
315 316 318 317 316 315 315 314 313 312 312 311 311 310 308 307 307 304 304 303 301 301 301 301 302 301 301 301 301 299 301 301 301 300 299 299 299 298 298 296 297 297 297
315 314 316 316 316 315 315 314 314 314 312 311 310 309 308 305 303 302 301 300 301 300 300 301 300 299 298 298 298 298 299 299 298 298 298 298 297 296 296 297 296 296 295
314 313 315 315 316 315 315 315 314 314 313 312 308 305 304 303 303 302 301 300 300 302 300 300 300 299 298 298 297 297 296 296 296 296 296 296 296 296 295 296 296 295 295
313 314 316 316 314 314 314 314 314 312 309 306 304 304 304 304 304 303 301 301 300 300 300 299 298 297 295 295 295 295 294 294 294 294 294 295 295 295 294 294 295 295 295
314 313 313 312 311 312 311 311 310 308 306 305 305 305 304 304 302 302 300 299 298 297 296 296 295 294 294 294 293 293 291 291 292 292 292 293 293 293 292 292 292 292 293
311 311 311 311 311 309 308 308 308 308 309 308 306 305 304 302 301 301 300 299 297 295 295 295 293 292 291 290 290 290 290 290 291 291 291 290 290 291 292 292 291 291 291
310 310 311 309 308 306 306 306 306 307 307 307 306 305 303 301 300 299 298 296 295 294 294 292 291 290 289 289 289 289 290 289 288 287 287 286 286 287 288 290 291 290 290
310 309 310 309 307 305 305 304 303 304 302 305 306 304 303 301 299 297 295 294 293 292 291 290 289 289 289 289 289 288 287 286 286 285 285 285 285 285 286 287 288 289 289
309 308 307 306 305 304 302 299 298 299 299 301 304 303 303 302 297 296 294 293 292 291 290 289 289 289 289 289 288 287 286 286 285 284 284 283 283 284 285 286 287 288 288
308 306 305 304 303 299 298 298 298 297 296 297 299 302 302 300 297 295 293 294 292 290 289 289 289 289 289 288 287 286 285 285 283 282 281 281 283 284 285 286 287 287 286
306 305 305 303 300 299 298 297 296 295 295 295 295 296 300 299 297 295 296 294 291 289 289 289 289 289 288 288 286 285 284 283 282 281 280 281 282 283 283 284 285 285 284
305 304 303 300 299 298 296 295 295 295 295 294 296 297 298 297 296 295 295 292 291 289 289 289 289 288 287 287 286 285 284 283 282 281 280 280 281 281 282 282 282 282 283
304 303 300 298 297 296 295 294 294 294 294 294 295 295 296 294 295 295 293 292 291 290 289 289 288 288 287 286 285 285 284 282 281 281 280 280 281 281 282 282 282 282 282
302 300 298 297 296 295 294 294 294 293 293 295 295 294 294 294 294 294 293 292 290 289 289 288 288 286 285 285 285 284 283 281 280 280 279 280 280 280 281 281 281 282 282
300 298 297 296 295 294 294 294 294 293 294 294 294 294 294 293 293 292 292 291 289 289 288 287 286 285 285 284 283 282 281 279 279 279 279 279 280 281 280 280 280 279 279
299 298 297 295 295 295 295 294 294 293 293 293 293 293 293 293 293 292 289 289 289 288 287 286 284 283 282 281 281 280 279 278 278 278 278 278 279 280 280 280 279 279 279
298 297 296 295 295 295 294 294 293 293 292 292 292 291 291 291 290 289 289 289 288 287 286 285 283 282 281 279 279 278 278 278 277 277 277 277 279 279 279 279 279 279 279
297 296 295 295 295 294 294 293 293 292 292 291 290 290 290 290 289 290 289 288 287 286 285 283 282 281 280 278 277 277 277 277 277 277 277 278 277 277 278 278 278 279 279
294 294 294 294 294 294 293 293 293 292 291 290 290 289 290 289 290 289 288 287 286 286 284 283 282 281 279 277 277 277 277 277 277 276 277 276 276 277 278 277 277 278 278
294 294 294 293 293 294 294 293 293 292 291 290 289 289 289 289 289 289 287 287 286 285 285 284 282 280 278 278 278 277 277 277 277 277 277 276 276 276 277 277 277 277 277
293 293 293 293 293 293 293 292 293 291 290 290 289 288 289 288 289 288 287 286 285 285 285 285 283 281 278 278 278 277 277 278 276 276 276 276 276 275 276 276 276 276 277

GFSMW_925_thetae_006.txt.gz
Theta_e
317 319 321 322 326 328 327 326 327 325 319 316 316 315 314 313 312 312 312 312 312 312 311 309 309 308 307 306 305 306 306 305 304 304 305 305 304 305 305 308 307 304 305
316 316 315 316 316 315 315 315 316 317 315 316 314 313 312 312 312 313 312 311 309 307 307 305 304 304 305 305 304 304 304 305 305 306 306 303 304 304 305 305 304 301 300
317 316 314 314 314 314 314 313 313 314 314 312 312 311 312 312 313 312 310 309 307 305 303 303 302 302 302 303 303 302 302 304 305 306 306 303 303 302 304 302 302 300 299
317 315 314 315 314 313 313 313 313 313 312 312 312 312 312 312 309 307 307 306 304 302 301 301 301 301 302 301 301 301 301 301 302 303 303 302 301 301 301 300 299 299 297
315 314 315 315 315 314 314 313 313 312 312 311 311 311 311 308 307 307 305 303 302 301 300 300 301 301 300 300 299 300 301 300 301 300 300 300 299 299 298 297 296 296 296
313 315 316 316 315 315 314 313 314 313 312 311 311 311 309 307 306 303 302 302 301 300 300 300 300 299 299 298 298 297 297 297 296 297 297 297 298 297 297 296 295 295 295
313 313 315 315 315 315 314 314 313 314 312 312 310 309 306 304 302 303 304 303 300 300 300 300 299 299 298 297 297 296 295 293 293 294 295 295 295 295 295 295 295 295 294
313 312 314 313 313 312 312 313 311 310 310 306 304 304 304 304 305 304 304 302 301 300 299 298 297 296 294 293 293 293 292 291 290 291 292 292 293 294 294 294 293 294 294
310 310 311 311 310 310 310 310 310 308 306 305 306 307 307 306 305 304 303 301 300 299 296 294 294 294 294 292 291 290 289 290 290 290 291 292 291 291 292 292 290 290 292
310 309 310 309 308 307 306 306 307 307 307 307 307 306 304 303 302 302 301 300 299 296 295 293 293 293 291 290 289 289 289 289 290 290 291 289 287 286 286 288 291 291 290
309 308 308 307 306 305 305 305 304 305 304 303 304 305 305 304 302 300 299 297 296 295 294 293 292 291 290 289 289 289 289 289 289 287 287 286 286 285 285 285 285 289 291
308 307 307 306 304 304 301 298 298 297 297 297 300 303 304 303 301 299 298 297 296 294 293 291 290 289 289 289 289 288 288 288 287 286 285 285 285 284 284 284 284 286 287
307 306 305 304 302 299 298 298 297 296 296 295 295 295 296 298 302 299 297 294 292 293 294 290 289 289 288 288 288 288 287 286 285 285 284 283 282 281 282 283 284 285 285
305 304 304 302 299 298 298 296 296 295 295 294 294 295 297 298 300 295 294 294 293 293 294 289 288 288 289 288 288 287 286 285 284 284 283 281 280 281 282 284 285 285 286
305 304 303 301 298 298 296 295 295 294 294 294 294 295 296 297 297 298 297 295 293 293 292 288 289 289 289 288 287 286 286 285 284 284 282 280 280 281 282 283 284 284 284
305 304 303 299 298 296 295 294 294 294 294 293 294 294 295 296 296 296 295 295 294 290 290 290 289 289 288 287 286 286 285 284 284 282 281 280 280 280 281 282 282 283 283
304 302 301 298 296 295 294 294 294 294 293 293 294 294 294 295 294 295 295 295 293 292 290 288 289 288 287 286 285 285 284 284 282 281 280 280 280 280 280 280 281 281 282
303 301 297 296 295 295 294 294 294 293 293 294 294 294 294 293 293 294 293 292 292 291 289 288 288 286 285 285 285 284 283 282 281 280 279 279 279 279 280 280 281 281 281
300 299 297 296 295 294 294 294 294 293 293 293 294 293 293 293 293 293 293 292 292 288 288 287 286 285 284 284 283 282 280 279 278 278 278 279 279 279 281 280 280 280 280
299 298 296 295 294 295 294 294 293 293 293 293 293 292 292 292 292 292 292 291 288 288 287 285 284 283 282 281 281 280 279 278 278 277 277 278 278 279 280 281 280 280 279
298 296 295 295 295 294 294 293 293 293 293 292 292 291 291 291 290 290 289 288 288 287 285 284 282 281 280 279 279 279 278 277 277 276 277 277 278 279 279 279 279 279 280
295 294 294 294 294 294 293 293 293 293 292 292 291 290 290 289 289 289 289 289 287 286 285 283 282 281 280 278 278 278 278 278 277 276 277 278 278 278 278 278 278 279 279
293 293 293 293 293 293 292 293 293 292 292 291 290 289 289 289 289 289 288 287 286 285 284 283 282 281 280 279 277 277 277 277 277 277 277 277 277 277 277 277 277 278 278
293 293 293 292 292 292 293 293 292 292 291 291 290 289 288 289 289 288 286 286 285 285 285 283 283 281 280 279 278 278 277 278 277 276 276 276 275 276 276 276 276 277 277
292 292 292 292 291 292 292 291 292 291 291 290 290 289 288 288 288 286 286 286 285 285 285 284 283 282 280 279 279 278 277 277 276 276 275 275 275 275 275 275 275 276 276
291 290 291 291 291 291 289 289 290 291 290 289 289 289 288 288 288 287 286 285 285 285 285 284 284 283 280 279 279 278 277 276 276 275 275 275 274 274 274 274 274 275 275

GFSMW_925_thetae_012.txt.gz
Theta_e
314 319 320 325 326 326 326 326 326 325 318 315 317 315 313 312 312 311 311 310 308 307 306 304 303 301 301 300 300 299 299 299 300 300 298 298 302 300 300 298 301 300 299
313 313 317 320 322 323 324 324 319 315 317 317 317 315 312 312 311 309 308 305 304 303 302 301 300 300 300 299 298 297 297 298 300 301 301 299 299 301 297 299 297 298 296
313 312 313 316 315 315 316 315 316 315 316 315 311 311 311 311 311 308 304 302 301 301 300 301 303 301 299 299 298 297 297 298 298 300 299 298 297 298 298 297 297 296 295
311 310 310 312 313 312 311 311 311 311 311 311 311 311 310 310 308 305 302 302 302 302 302 303 304 302 300 298 298 297 297 297 297 297 298 296 297 297 296 296 296 295 295
311 311 310 310 310 310 311 311 311 311 311 310 310 310 309 307 304 302 304 305 305 303 302 302 302 300 298 297 297 296 295 294 292 293 293 293 294 295 296 294 293 293 293
311 310 311 311 311 311 311 311 311 311 310 309 308 308 307 306 304 304 304 305 304 303 302 302 300 298 296 295 293 292 291 290 289 289 290 291 292 292 292 292 291 292 291
311 310 310 310 310 311 310 310 309 307 306 306 306 305 304 304 304 304 304 304 303 302 301 300 298 295 293 292 292 290 289 289 289 288 288 289 290 291 291 291 290 290 288
312 309 308 306 306 306 307 307 306 305 305 305 305 304 304 304 303 303 303 303 302 301 300 299 295 293 296 293 290 290 289 288 288 288 288 289 289 289 288 288 289 287 287
307 306 306 307 306 306 306 306 305 303 301 300 299 299 301 300 298 297 299 301 301 301 299 296 294 296 292 291 290 290 289 288 288 288 288 289 289 288 286 286 285 286 286
306 305 305 304 305 305 305 305 301 297 297 296 296 295 294 294 293 293 294 295 299 298 297 295 296 293 292 292 290 289 288 288 288 288 288 288 286 285 285 284 283 282 283
305 303 303 303 302 302 301 299 298 297 296 295 294 294 293 292 292 291 292 297 298 297 296 295 295 293 293 291 290 289 288 288 288 288 287 286 285 284 283 282 281 281 281
304 303 303 301 298 297 297 298 297 296 295 294 294 293 293 292 292 292 292 294 296 296 296 294 293 293 294 291 289 288 288 288 288 287 285 285 284 283 282 281 280 280 281
303 302 302 301 297 296 297 296 296 295 295 294 294 293 293 293 292 292 293 293 294 294 293 293 294 293 291 288 288 288 288 287 286 285 285 284 283 282 281 280 280 280 281
303 301 300 299 297 297 297 296 295 295 294 294 293 293 293 293 292 292 293 293 294 294 293 294 293 290 288 289 288 288 287 286 286 285 283 283 282 281 281 281 280 280 281
302 301 300 298 297 297 296 295 295 294 294 293 293 293 293 293 292 292 292 293 293 294 294 293 291 290 289 289 287 286 286 285 284 284 283 282 281 282 281 280 280 280 280
303 302 301 299 297 297 296 295 294 294 293 293 293 293 293 293 292 292 292 292 294 293 292 291 290 289 288 287 286 285 285 284 283 281 280 279 279 279 279 279 279 280 280
303 302 301 301 298 297 296 295 294 293 293 293 293 293 293 292 292 292 292 292 292 292 292 292 289 287 286 285 284 284 283 282 280 278 278 277 278 278 278 278 279 280 280
302 301 301 301 298 296 295 294 293 293 292 293 293 292 292 292 291 291 291 290 290 292 291 289 286 286 285 283 282 281 280 279 278 277 277 277 277 278 278 279 280 279 280
301 301 300 298 296 295 294 293 293 292 293 293 292 292 292 291 290 290 290 289 290 289 287 286 286 285 283 281 280 280 279 278 277 277 277 277 277 278 279 279 279 279 279
301 298 296 294 293 293 293 293 292 291 291 292 292 292 292 291 290 289 289 288 287 287 287 286 285 283 282 281 279 279 278 277 277 277 277 276 277 278 279 279 278 278 279
295 294 293 293 293 293 292 291 291 292 292 292 292 291 291 290 289 288 288 288 287 287 286 284 283 282 281 280 278 279 278 278 278 277 276 277 277 278 278 278 277 278 277
293 293 293 292 292 291 290 291 291 291 290 290 290 290 290 289 289 288 288 287 287 286 284 284 283 282 281 279 278 278 278 278 277 276 276 277 277 276 276 276 277 277 276
292 292 292 291 290 290 290 291 290 289 289 289 289 289 289 289 288 287 287 286 285 285 285 284 283 282 281 280 279 278 278 277 276 275 276 275 275 274 274 274 275 275 275
291 291 290 289 290 289 290 290 289 288 288 289 289 289 288 289 288 287 286 285 285 285 285 284 283 283 281 280 279 279 278 277 276 275 274 274 274 274 273 273 274 274 274
291 290 289 289 289 289 289 289 288 288 288 288 288 287 287 288 288 286 286 286 286 285 284 284 284 283 283 281 279 279 278 277 276 274 274 274 273 273 273 272 272 272 272
290 289 289 289 289 289 288 287 287 288 288 288 288 287 286 287 287 287 286 286 285 284 284 284 284 284 283 281 280 280 278 277 276 274 273 273 273 272 272 272 271 271 270

GFSMW_925_thetae_018.txt.gz
Theta_e
327 328 329 329 330 331 331 330 327 326 325 324 321 319 319 317 314 312 310 310 309 308 308 307 307 307 307 307 306 306 305 304 304 303 302 301 301 303 303 302 301 302 301
329 329 330 330 330 330 330 329 328 325 323 322 321 321 319 315 312 310 308 308 307 306 306 307 307 306 306 305 306 304 303 302 303 302 302 303 301 300 301 300 299 299 299
330 330 330 331 330 329 329 327 324 322 321 320 318 316 315 313 312 310 309 306 307 306 306 306 305 304 303 302 304 303 302 302 301 299 299 302 301 298 297 298 297 297 297
330 330 328 326 327 325 321 320 319 318 315 314 314 315 315 315 311 308 307 307 307 306 305 304 303 303 302 302 302 300 299 298 298 297 297 297 297 298 298 296 296 294 294
327 323 321 321 320 318 317 315 314 312 313 313 313 313 311 309 308 308 307 307 306 305 304 303 302 302 302 302 301 299 297 297 297 297 295 294 294 293 294 295 294 293 292
321 318 317 315 315 314 314 313 312 312 311 311 310 309 308 307 306 305 303 301 300 300 300 301 302 302 302 301 299 297 297 297 295 293 292 292 292 292 292 293 292 292 291
319 317 315 314 314 314 313 312 311 310 309 307 305 305 304 303 301 299 298 298 297 297 297 298 299 301 301 299 297 297 297 294 293 292 292 291 291 291 291 291 291 292 291
319 318 316 315 314 313 312 311 310 308 306 304 304 301 299 298 298 297 297 296 296 296 296 297 299 300 299 298 296 297 296 294 293 292 292 291 291 290 290 290 291 292 291
319 318 316 314 313 312 311 309 307 304 302 301 299 299 298 298 298 297 296 295 295 295 296 298 299 299 299 298 297 296 295 294 293 292 292 291 291 290 290 290 289 290 291
320 318 315 313 312 311 309 306 303 301 300 299 298 298 298 297 297 297 296 295 295 295 295 296 298 298 298 298 296 295 295 293 292 291 291 291 290 290 289 289 289 288 288
320 318 314 312 311 309 306 303 302 301 299 299 298 298 297 297 297 296 295 294 294 294 294 295 296 297 297 296 295 295 295 293 291 291 290 291 289 289 288 288 288 287 287
320 317 313 311 310 308 304 302 301 300 300 299 297 297 297 297 296 296 295 294 294 294 294 294 294 295 295 294 295 295 293 291 291 290 290 290 288 288 288 287 287 286 286
318 315 312 309 308 305 303 301 300 301 299 297 297 297 297 297 296 296 294 294 294 294 294 294 294 294 294 294 294 292 291 291 290 290 289 288 288 287 287 286 285 285 284
316 314 311 308 306 303 300 300 302 301 299 297 297 297 297 296 296 295 294 294 293 293 293 294 294 294 292 291 291 290 290 290 289 289 288 287 286 285 284 283 283 283 283
315 313 312 308 304 301 300 303 303 302 298 297 297 297 296 296 295 295 294 294 293 293 293 293 293 293 292 291 290 290 289 289 288 287 286 284 283 281 280 280 281 281 281
314 312 311 309 305 303 301 303 303 299 298 297 297 296 296 295 295 294 294 293 292 292 293 293 293 293 292 288 286 286 288 287 286 285 284 283 282 282 280 280 280 280 280
314 312 311 309 306 302 303 302 301 298 297 296 296 295 295 294 294 293 293 293 292 292 292 292 293 292 290 286 285 284 286 286 284 283 283 282 282 281 281 280 280 281 281
313 313 311 307 305 303 302 301 298 296 296 295 295 294 293 293 293 293 293 293 292 292 292 291 291 290 288 284 283 283 285 284 283 282 282 282 281 281 279 280 280 281 281
313 312 309 306 303 301 299 297 296 295 295 294 293 292 293 292 292 292 292 292 292 291 291 290 290 290 288 284 283 283 284 283 283 282 281 280 280 279 278 279 279 280 280
312 309 305 301 299 297 296 296 296 294 293 293 292 292 291 292 292 292 292 292 291 290 289 289 289 288 287 283 282 282 283 283 282 282 281 279 279 278 278 278 278 279 279
309 305 300 299 297 296 295 295 293 292 292 291 291 291 291 291 291 291 292 291 291 289 289 289 288 287 285 285 282 281 282 282 281 281 281 280 278 277 277 276 277 277 276
303 300 298 296 294 293 293 293 292 292 291 291 291 291 291 291 290 291 291 291 290 289 289 288 288 287 286 284 282 281 280 280 280 280 281 279 277 276 276 276 275 275 276
299 296 294 293 293 292 292 292 292 291 291 291 291 291 291 290 290 291 291 291 290 289 289 288 288 287 287 285 283 281 280 280 280 280 279 276 276 276 276 276 275 275 277
295 293 294 295 293 291 291 291 291 291 290 290 291 291 290 289 288 289 290 290 290 289 288 288 288 287 286 286 285 284 283 282 281 280 279 278 276 277 277 277 277 276 275
294 297 294 292 292 291 291 291 290 289 290 290 290 290 289 289 288 288 288 290 289 288 288 288 287 286 286 286 285 284 283 282 281 279 279 280 279 278 278 278 277 277 275
297 292 291 291 291 291 291 290 289 288 289 290 290 290 289 290 289 289 289 289 287 287 286 285 285 285 285 284 284 283 281 281 279 279 281 281 280 279 278 278 278 277 276

GFSMW_925_thetae_024.txt.gz
Theta_e
330 329 329 328 326 335 335 333 332 330 328 324 325 327 325 322 320 317 316 314 313 312 311 312 311 311 310 309 307 306 306 306 304 303 304 303 302 301 300 300 299 299 300
331 331 331 330 331 335 335 333 331 329 328 328 328 326 322 321 317 315 314 312 312 311 311 310 310 309 308 306 304 303 304 305 303 302 301 301 301 301 300 299 299 298 297
332 332 332 333 332 335 334 331 331 330 330 329 325 321 318 316 315 314 312 312 311 311 310 309 307 306 305 304 304 303 303 303 301 301 301 300 299 300 299 298 297 296 296
331 332 333 333 333 332 332 331 330 329 326 324 322 320 318 317 315 313 313 312 311 309 306 304 303 304 305 305 304 303 303 302 301 300 300 299 298 296 296 296 295 294 294
331 332 333 333 332 331 331 331 328 324 322 319 319 318 316 314 313 311 308 307 303 301 300 300 299 299 299 301 303 303 302 301 300 300 299 297 297 296 295 293 294 293 293
331 331 332 331 330 329 326 324 321 318 318 318 317 315 312 310 307 303 302 301 300 299 299 299 299 299 300 300 302 302 301 300 300 300 297 296 296 295 294 292 293 293 293
332 332 330 327 325 324 321 318 317 317 316 314 311 309 305 304 303 303 301 300 299 299 298 298 298 298 300 300 301 301 301 300 299 298 297 295 295 294 294 294 293 293 293
330 327 326 324 322 320 319 317 317 316 313 310 307 304 303 304 302 301 300 299 299 298 297 297 297 297 298 299 300 300 299 299 299 298 296 296 295 294 294 293 292 291 291
326 324 322 321 320 319 318 317 316 313 310 307 304 304 303 300 301 301 300 299 298 297 297 297 296 296 296 297 299 298 299 299 298 297 296 296 295 294 293 293 292 292 290
324 322 320 320 319 319 317 316 315 312 308 306 305 303 301 301 301 300 300 299 297 297 297 296 296 296 296 296 296 298 297 296 297 296 296 295 294 293 293 292 291 290 290
324 322 320 320 319 318 317 317 314 309 306 306 304 301 301 301 301 300 300 299 297 297 296 296 295 295 296 296 296 296 296 296 295 295 295 294 293 292 291 291 290 289 289
324 322 321 320 319 318 317 315 311 307 308 305 302 301 300 301 301 300 300 299 297 296 296 295 295 295 295 295 295 295 294 294 294 293 293 292 292 291 290 289 288 287 286
325 323 322 320 319 318 317 313 309 308 307 304 303 302 301 301 300 300 299 298 297 296 296 295 295 295 295 295 295 294 293 293 292 292 292 291 290 289 288 286 285 284 284
325 324 322 321 319 318 316 313 309 308 306 304 303 301 301 301 300 300 299 298 297 296 296 295 294 294 294 294 294 293 293 292 292 292 291 290 289 287 285 284 283 283 282
323 323 324 321 319 317 316 312 309 308 306 305 302 301 301 300 300 299 299 297 297 296 295 295 294 294 294 294 293 292 291 291 291 290 289 288 286 285 284 283 282 282 282
319 321 323 322 319 317 316 312 309 307 308 305 303 301 300 300 299 298 297 296 296 295 295 294 294 294 294 293 292 289 288 288 289 288 287 286 285 284 284 283 283 281 281
318 319 321 321 319 317 315 311 308 307 307 304 301 301 299 299 298 296 295 295 295 295 295 295 294 293 293 292 291 288 288 287 288 287 286 285 285 284 283 282 282 280 281
318 318 319 319 318 316 313 310 307 306 305 301 300 299 299 297 295 294 294 294 294 294 294 294 293 293 292 291 290 288 287 287 287 286 285 285 284 283 282 281 279 280 280
316 316 316 317 316 315 313 308 306 304 301 300 299 298 295 294 294 293 293 293 293 293 294 293 293 292 291 290 290 287 285 286 286 286 285 285 283 282 281 280 278 278 279
315 315 315 316 315 312 308 304 302 300 299 297 295 295 293 293 293 293 293 293 293 294 293 293 291 291 290 290 289 287 285 285 285 285 284 284 282 281 280 278 278 278 278
315 316 313 308 301 300 301 298 297 296 295 295 293 293 293 293 293 293 293 293 293 293 293 292 291 291 290 289 288 287 286 284 285 284 283 283 282 281 280 278 278 278 278
313 307 300 299 298 298 297 296 295 295 294 293 293 293 292 292 293 293 292 292 292 293 293 292 291 291 290 289 288 287 286 284 283 282 283 283 282 280 279 279 279 278 278
300 299 298 297 296 295 295 294 294 294 293 293 292 292 292 292 292 291 291 290 290 291 292 292 291 291 290 289 289 287 286 284 283 282 282 282 281 281 281 280 280 279 279
299 299 297 295 294 293 293 293 293 293 292 292 292 292 292 292 291 291 291 291 290 290 291 292 291 290 290 289 289 288 286 284 283 283 283 282 281 282 282 282 281 281 280
296 295 294 294 294 294 293 293 293 292 292 291 291 291 291 291 292 291 291 291 290 289 289 290 290 290 290 289 288 287 287 286 284 284 283 281 282 283 282 282 281 281 280
294 295 294 294 294 293 293 293 292 291 291 291 291 291 290 291 291 291 291 290 290 289 289 289 289 288 288 287 286 285 285 284 284 282 282 282 282 283 282 282 282 281 280

GFSMW_925_thetae_027.txt.gz
Theta_e
325 325 325 329 330 330 329 330 330 331 328 320 322 325 325 321 321 317 315 314 312 312 311 311 311 310 309 308 306 304 303 303 304 303 300 300 300 300 300 299 298 297 296
325 327 329 328 332 331 331 332 331 329 326 320 323 326 322 321 316 316 314 312 311 311 310 310 310 309 308 305 304 304 303 303 303 301 300 298 299 299 299 298 298 296 294
328 328 329 332 334 333 331 331 331 329 328 326 326 326 322 316 315 314 312 312 311 311 310 308 307 306 305 305 304 303 304 302 302 301 300 297 297 296 297 296 296 294 293
329 329 330 331 334 333 332 331 330 329 327 327 328 324 317 314 314 313 312 311 310 308 303 301 300 300 300 300 302 303 302 302 301 300 299 299 297 294 293 295 294 293 293
329 330 330 333 334 333 331 330 328 328 329 329 321 318 316 314 314 312 309 305 304 302 301 300 299 299 298 299 299 301 302 302 300 300 300 299 296 296 293 290 292 293 293
326 328 331 332 332 331 330 330 329 323 319 321 319 317 314 311 307 305 305 302 301 299 299 298 298 297 298 299 300 301 301 301 300 300 298 297 295 294 293 290 291 292 293
327 329 330 330 328 329 330 326 320 317 317 317 314 313 311 308 308 305 304 301 299 298 298 297 297 297 297 298 299 300 300 299 299 299 298 297 296 295 294 293 292 291 292
327 327 324 323 322 321 319 317 317 316 316 314 310 307 307 307 306 304 300 299 299 298 297 296 296 296 296 296 296 298 297 298 299 298 298 296 296 296 294 293 292 288 290
323 323 321 321 321 320 318 317 316 315 313 311 308 308 306 307 302 301 300 299 298 297 297 296 296 296 296 296 295 296 298 299 298 297 297 296 296 295 294 293 293 291 287
320 320 320 319 320 319 318 317 316 313 310 307 306 305 305 301 301 300 300 299 298 297 296 296 296 295 295 295 296 296 296 296 295 295 295 296 295 294 293 292 291 290 289
320 318 317 318 319 319 318 317 315 311 308 305 305 305 302 301 301 300 300 299 298 297 296 296 295 295 295 295 295 295 295 294 294 294 294 294 293 292 291 290 289 287 285
319 317 317 317 317 318 317 316 314 310 306 306 306 303 301 301 301 300 300 299 298 297 296 296 295 295 295 295 295 295 295 293 293 293 292 292 291 290 289 288 287 285 284
319 317 316 317 317 317 316 316 312 308 306 306 305 302 301 301 301 301 300 299 298 297 296 296 295 294 294 294 295 294 294 293 292 292 292 291 290 289 288 286 285 284 283
321 318 317 317 317 316 316 316 310 307 307 306 305 303 302 301 301 300 300 299 298 297 296 296 295 294 294 294 294 294 293 292 292 291 290 289 288 286 285 285 284 283 282
319 319 318 316 317 316 314 313 311 308 307 305 304 303 302 301 301 300 299 298 297 296 296 295 295 294 294 294 294 294 292 290 289 289 288 287 286 285 285 283 283 282 282
314 315 318 317 316 315 313 313 310 308 306 304 305 304 301 300 299 298 298 296 295 295 295 295 294 294 293 293 293 293 289 288 288 288 287 286 285 284 284 283 282 282 281
314 315 316 317 316 316 315 312 309 307 306 307 305 301 299 299 297 295 296 294 294 294 295 294 294 294 293 293 292 291 288 287 287 287 286 285 285 284 283 283 282 281 278
313 313 314 317 318 317 316 312 308 307 307 303 299 299 297 296 296 294 293 293 294 293 293 293 294 293 293 292 292 290 288 286 287 286 286 285 284 284 283 282 281 279 277
311 313 314 315 313 313 310 307 305 300 299 298 296 295 294 294 293 294 293 293 293 293 293 293 293 293 292 291 290 289 287 286 286 286 285 284 284 283 282 281 280 278 277
307 301 300 300 300 300 300 297 296 295 295 294 294 294 295 294 293 292 293 292 292 293 293 293 292 292 291 290 290 289 288 286 285 285 284 284 283 282 282 281 279 277 278
300 299 298 297 296 297 296 295 295 294 294 295 296 295 293 293 293 293 292 293 292 292 292 292 293 292 291 290 290 289 288 286 285 284 284 283 283 282 281 280 279 279 279
298 296 296 296 297 297 296 295 294 294 295 294 294 293 293 292 292 292 292 292 291 290 290 291 292 291 291 290 290 289 288 286 285 284 283 282 282 282 281 281 280 280 279
297 295 295 294 294 294 295 294 295 296 293 293 293 292 292 292 292 292 291 291 291 290 289 289 291 291 291 291 290 289 288 286 286 284 283 282 282 282 281 281 281 281 280
296 295 294 294 294 294 293 293 293 293 293 292 292 291 292 291 291 291 291 291 291 290 290 289 289 289 290 290 290 289 289 287 286 284 283 282 283 282 282 282 281 281 281
294 295 295 294 294 294 293 293 293 293 292 291 291 291 291 291 291 291 291 291 290 290 290 289 289 289 289 289 289 288 288 287 286 285 283 283 283 281 282 282 281 281 281
294 294 294 294 294 293 293 293 292 292 292 291 290 290 290 290 290 290 290 291 290 289 289 289 289 289 289 288 289 288 287 286 286 284 284 283 282 282 281 283 282 281 281

GFSMW_925_thetae_030.txt.gz
Theta_e
327 328 333 332 329 329 331 329 328 330 328 324 321 323 324 320 319 317 316 315 314 313 312 311 311 311 310 308 305 303 303 302 303 303 302 301 300 299 298 298 297 296 294
321 325 330 329 328 329 329 328 327 330 328 325 321 323 324 320 319 317 314 313 311 311 311 310 310 308 306 304 304 304 303 303 302 301 299 296 298 298 298 297 296 294 294
323 322 325 328 328 328 329 328 328 330 329 326 321 325 323 320 314 313 312 311 311 311 310 309 307 306 305 304 304 304 303 303 302 301 300 296 295 295 297 296 294 294 294
324 325 326 329 329 329 329 328 328 329 329 325 321 325 321 314 314 313 312 311 310 309 308 306 303 301 299 298 299 300 301 302 302 300 299 299 297 293 292 294 294 293 293
325 326 329 331 330 330 330 329 329 329 328 324 323 326 321 315 314 312 311 310 309 305 302 300 299 298 297 297 298 299 300 302 301 300 299 299 298 296 293 290 292 293 293
325 326 330 332 331 330 330 330 330 329 328 327 325 327 322 315 313 311 311 306 300 299 298 298 298 297 296 297 298 299 300 300 300 299 299 298 296 294 293 289 290 291 292
325 328 329 331 331 330 330 330 328 328 328 328 327 323 319 315 313 310 305 300 299 298 298 297 296 296 296 296 296 298 299 298 298 298 298 298 297 295 294 293 291 290 291
327 329 328 329 329 329 329 324 325 319 319 322 319 316 314 312 309 306 302 300 299 297 297 296 296 296 295 295 295 295 295 297 299 298 298 297 297 296 295 294 292 291 289
326 325 322 324 324 323 322 322 317 315 314 314 313 309 308 307 304 302 300 299 298 297 297 296 296 295 295 295 295 295 296 297 296 295 295 295 296 296 295 294 293 291 288
323 322 321 319 320 319 319 318 317 315 313 311 308 307 305 305 302 301 300 299 298 297 297 296 296 295 295 295 295 295 295 295 294 294 294 294 295 295 294 292 291 289 288
324 322 321 319 319 317 316 316 316 315 313 310 308 307 306 302 301 301 300 299 299 299 298 296 296 295 295 294 295 295 295 295 294 293 293 294 293 293 291 291 289 287 286
322 321 320 318 317 317 316 316 315 314 313 309 308 306 305 302 301 300 300 300 300 299 297 296 296 295 295 294 294 294 295 294 293 292 292 292 292 291 290 289 287 286 284
318 319 318 317 317 317 316 314 313 311 309 306 306 305 303 301 301 301 300 300 299 297 297 296 296 296 295 294 294 294 294 293 292 292 291 291 290 289 288 286 285 284 283
319 316 316 317 317 316 315 313 309 309 308 305 305 305 302 301 301 301 301 300 298 297 297 296 296 295 295 294 294 294 293 292 292 291 290 289 288 287 286 285 283 283 282
319 316 314 314 316 316 315 312 309 309 307 306 306 305 303 301 301 301 300 298 297 297 296 295 295 295 294 294 294 294 293 292 290 289 288 287 286 285 285 283 283 283 282
314 316 315 314 315 315 314 311 309 307 306 305 305 304 302 301 301 299 297 296 295 294 294 294 295 295 294 294 293 293 293 291 288 288 287 286 286 285 284 284 283 281 280
313 316 315 314 314 314 314 313 310 307 305 304 303 302 300 297 295 295 295 294 294 294 294 294 294 294 294 293 293 292 292 289 287 287 287 286 285 284 284 283 282 281 281
310 309 311 315 315 314 313 311 307 305 305 303 300 297 295 294 295 296 295 294 294 293 293 293 292 293 293 293 292 291 290 288 287 287 286 286 285 284 283 282 282 282 281
301 300 299 302 305 308 307 304 301 298 295 294 294 294 296 297 298 297 294 293 293 292 292 293 293 293 293 292 292 291 290 288 287 286 286 285 284 284 283 281 282 281 279
299 298 298 297 297 296 297 296 294 294 294 295 296 298 299 298 295 292 292 293 292 292 292 292 292 291 291 292 291 290 289 288 287 286 285 285 284 283 282 282 281 279 279
297 297 296 296 296 296 296 295 295 295 297 299 299 298 296 293 293 292 292 292 292 291 290 290 290 291 292 291 291 290 289 288 287 286 285 284 283 282 282 282 280 280 279
297 296 296 296 296 298 298 298 298 299 299 298 295 293 293 293 292 292 292 291 291 290 290 290 289 289 290 291 290 290 289 289 287 286 286 284 282 282 282 281 281 281 280
295 295 295 295 295 295 296 295 295 294 293 293 293 293 291 291 292 291 291 291 291 291 290 290 289 289 288 290 290 290 289 289 287 287 286 284 282 282 282 281 281 281 281
295 294 294 294 294 294 293 293 293 293 293 292 291 291 291 291 291 291 290 291 291 291 290 290 289 289 289 289 289 289 290 288 287 286 286 284 283 282 282 281 282 282 281
294 295 294 294 293 293 293 293 292 292 292 291 291 290 290 290 290 290 290 290 290 290 289 289 289 289 289 289 289 288 289 288 288 287 286 284 283 282 283 282 282 282 281
294 294 294 293 293 293 293 292 292 292 292 291 291 290 290 289 289 290 290 290 290 290 289 288 288 288 287 287 288 289 288 288 288 286 284 284 284 282 283 282 281 282 282

GFSMW_925_thetae_033.txt.gz
Theta_e
328 330 329 328 330 332 331 329 329 328 328 326 323 321 321 320 319 319 319 317 317 315 314 312 311 310 309 307 304 303 303 302 302 302 301 301 299 298 298 297 296 295 294
330 331 331 330 331 332 330 329 328 328 328 326 323 321 322 320 318 317 315 315 314 313 312 311 310 308 306 304 304 303 303 302 302 301 299 295 298 299 298 297 296 295 293
329 329 331 331 330 329 329 330 328 328 327 326 322 322 323 320 318 315 314 312 311 310 310 309 307 306 304 302 300 300 302 302 301 301 301 296 295 295 298 296 296 293 293
325 326 329 330 329 327 328 329 328 328 328 326 322 323 324 318 318 316 313 311 310 310 309 307 304 300 299 298 298 298 299 301 301 300 299 299 297 293 293 296 294 293 293
322 323 326 329 329 327 327 328 328 327 327 327 323 323 322 319 316 312 311 310 309 308 304 300 298 297 297 296 296 297 299 300 301 300 299 299 298 296 293 290 292 293 293
320 322 323 327 327 327 327 328 327 326 326 327 323 322 322 317 314 311 310 308 304 300 298 298 297 296 296 295 295 297 299 300 299 299 298 298 297 295 293 290 290 290 293
322 324 327 328 327 328 328 328 327 327 327 328 327 322 323 319 316 312 310 303 300 298 297 297 296 297 295 295 295 295 296 297 298 298 298 298 297 297 296 293 291 290 291
324 327 329 329 328 328 328 328 328 328 328 328 327 326 323 320 315 311 307 302 299 298 297 297 299 295 295 295 294 295 295 295 297 298 298 296 296 297 296 293 293 294 291
324 327 329 330 329 328 328 328 329 329 328 327 326 325 324 318 314 311 303 299 298 297 298 299 295 295 295 294 294 295 295 296 296 295 295 295 294 295 295 294 294 293 291
324 324 326 326 327 329 327 327 329 327 323 321 322 322 316 313 311 305 301 300 299 298 298 296 297 296 295 295 294 295 295 295 294 294 294 293 293 294 295 294 292 291 289
323 323 324 323 324 324 327 327 325 320 316 317 316 313 309 308 305 303 301 301 300 298 298 299 298 296 296 295 294 294 294 294 294 294 293 293 293 293 293 291 291 289 287
322 322 322 319 318 321 322 321 317 314 313 311 311 310 308 305 304 302 300 300 299 299 300 298 296 296 296 295 294 294 294 294 294 293 292 292 292 292 291 290 289 287 285
321 320 318 318 317 316 316 314 312 309 308 309 309 306 305 305 303 301 301 300 300 299 298 297 297 296 296 295 294 294 294 294 294 293 292 292 291 290 289 288 287 285 283
319 318 317 317 318 316 314 313 311 309 308 310 307 306 306 304 303 301 300 299 299 298 297 297 296 296 295 295 294 294 294 294 293 292 292 291 290 289 287 286 285 283 283
318 315 315 315 316 316 316 314 312 309 310 308 306 306 305 303 302 301 300 300 298 296 297 296 295 294 295 295 294 294 294 293 292 291 290 289 288 287 286 285 284 283 283
316 315 314 314 314 315 314 312 312 311 309 306 304 303 302 301 301 299 297 295 294 295 297 297 295 294 295 294 294 294 293 293 291 290 288 287 286 286 285 284 284 283 281
311 312 313 312 313 314 315 312 309 308 305 304 303 302 301 299 296 294 295 298 298 297 295 294 293 293 293 293 294 293 293 292 291 289 287 287 286 285 285 284 283 282 281
305 302 301 308 311 312 312 309 307 305 303 299 297 296 295 296 298 298 298 297 295 294 294 293 292 292 292 293 293 293 292 291 290 288 287 287 286 285 284 283 282 282 281
299 297 298 299 301 302 302 302 298 297 296 295 296 297 298 298 298 298 298 297 295 293 292 292 292 292 292 292 292 292 291 290 289 287 287 286 286 285 284 283 282 281 281
297 296 296 296 296 296 296 295 294 295 295 297 298 299 298 298 297 296 295 293 292 292 292 292 291 290 290 291 291 291 291 290 288 287 287 286 285 284 284 282 282 281 280
296 296 296 295 295 296 297 296 297 298 298 298 298 299 298 297 295 293 293 292 292 292 291 290 290 290 289 289 291 290 290 289 289 288 287 287 285 284 283 282 282 281 280
296 296 295 296 296 297 297 297 296 297 298 298 297 296 295 293 292 292 292 292 291 291 290 290 290 290 290 289 288 290 289 290 288 287 288 287 286 284 283 282 282 281 281
294 294 294 294 295 296 297 295 294 294 293 293 293 292 291 291 291 291 291 291 290 290 290 290 290 290 289 289 289 288 288 289 288 289 288 287 286 284 283 282 282 281 281
293 294 294 294 293 294 293 293 293 292 292 291 290 290 290 290 290 290 290 289 290 290 290 290 289 290 289 288 287 288 288 288 288 288 288 287 285 284 283 282 282 282 281
295 295 294 293 293 293 292 291 291 291 291 291 291 291 290 290 290 289 289 289 289 290 289 290 290 289 288 288 288 287 287 287 288 288 286 283 284 284 283 282 282 282 281
294 293 293 292 291 290 290 290 290 290 290 290 290 290 290 290 290 290 290 290 290 290 290 290 290 290 289 288 288 288 287 287 288 286 284 284 284 283 283 282 283 283 282

GFSMW_925_thetae_036.txt.gz
Theta_e
326 325 326 325 324 325 329 329 329 329 330 326 326 328 328 325 322 320 320 321 322 320 316 313 310 309 309 306 303 303 302 301 301 301 300 299 298 298 297 296 296 295 294
326 325 327 326 325 326 328 331 330 330 330 327 327 326 325 322 320 320 319 319 319 316 312 311 309 308 305 304 303 302 302 301 301 300 298 295 297 298 298 297 296 296 295
329 327 328 327 327 327 328 331 331 329 329 327 326 324 321 320 319 318 316 315 314 311 310 309 308 305 303 299 298 298 299 300 300 300 300 296 296 295 297 298 296 296 293
326 327 329 329 328 328 329 330 330 329 327 326 326 323 322 320 318 317 314 312 311 310 309 308 304 300 298 296 296 296 297 298 300 300 300 299 297 295 294 296 296 295 293
321 325 327 329 329 329 329 329 330 330 326 326 326 322 322 320 318 316 312 310 309 308 306 302 299 297 296 296 295 295 295 297 299 300 299 299 298 297 293 292 292 294 294
319 321 325 327 329 329 328 328 328 328 327 326 325 323 322 320 318 314 310 308 307 303 300 298 297 299 297 295 294 294 295 298 299 298 298 298 297 296 294 289 290 291 293
319 318 319 324 327 328 326 327 327 327 326 325 325 324 322 322 319 314 310 307 302 300 298 298 298 301 300 296 294 293 294 295 296 297 298 298 297 297 296 294 292 290 292
319 319 320 322 325 326 326 326 326 327 326 326 325 324 322 322 318 313 310 306 304 300 298 297 301 305 294 295 294 294 294 295 295 296 298 297 295 296 296 294 292 293 294
318 320 321 324 325 326 326 327 326 326 326 325 326 325 325 322 319 313 311 307 302 299 297 300 302 295 297 295 294 294 294 294 295 295 295 294 294 294 294 294 293 294 292
319 321 323 326 326 326 327 327 327 327 326 326 325 326 326 319 317 313 309 306 301 298 298 302 297 298 296 295 295 294 294 295 295 294 294 294 293 293 293 294 294 292 291
320 322 323 327 327 327 327 327 327 326 325 326 325 324 323 318 315 313 309 305 300 298 301 298 299 297 297 296 295 294 294 294 294 294 294 293 292 293 293 293 292 291 290
320 320 321 323 324 325 324 324 325 325 323 321 319 317 316 315 312 311 309 302 300 300 300 299 298 297 296 295 295 295 294 293 293 293 293 293 292 292 292 291 290 290 288
320 319 317 318 320 319 319 323 322 321 321 317 315 312 312 310 309 307 303 300 299 300 298 298 297 297 296 295 295 295 294 294 293 293 293 292 292 291 291 290 289 288 286
319 318 317 316 317 318 318 318 317 315 314 312 311 310 307 305 302 300 299 299 299 299 298 297 296 295 295 295 295 295 294 294 293 293 293 292 292 291 290 289 287 286 284
319 317 317 315 316 317 315 314 313 310 308 308 307 306 304 302 302 301 300 299 298 297 295 295 295 298 295 295 295 294 294 294 293 293 292 292 291 290 288 287 286 284 283
316 315 314 315 315 316 316 316 314 312 310 309 306 303 302 302 301 300 300 298 296 295 296 297 297 297 296 293 294 294 293 293 293 293 292 291 289 287 286 286 285 284 283
306 304 306 308 310 312 314 312 309 308 307 305 303 302 301 300 297 295 295 297 297 297 297 297 296 295 293 292 292 293 293 293 293 292 291 289 288 286 286 285 284 283 282
301 299 298 300 303 306 306 306 306 304 302 300 299 297 297 296 297 297 298 297 296 296 296 295 294 292 292 292 292 292 292 292 292 292 291 288 287 287 286 285 284 283 282
296 295 296 296 298 299 300 301 298 297 297 296 296 297 297 298 298 297 296 297 297 296 294 293 292 292 291 290 290 291 291 291 291 291 290 288 287 287 286 284 284 283 282
296 295 296 296 297 296 298 297 296 296 297 297 298 298 298 298 298 297 298 296 296 295 292 292 291 291 290 289 289 289 290 290 290 290 289 288 287 287 285 284 284 282 282
296 295 295 295 295 296 296 297 297 297 298 298 298 299 299 299 298 295 294 293 292 292 291 291 291 290 289 290 289 289 288 289 289 288 289 289 287 286 286 284 283 283 282
294 295 295 296 297 297 298 297 296 297 297 297 296 295 294 293 292 292 291 291 291 291 290 290 290 290 290 290 289 289 289 288 288 289 289 288 288 288 285 284 284 282 282
293 294 294 294 295 295 295 293 293 293 292 292 291 290 290 290 290 290 290 290 290 290 289 289 289 290 290 290 290 289 288 288 288 288 288 288 288 287 286 284 284 282 282
293 294 293 292 292 292 291 291 291 291 291 291 290 290 290 290 290 290 289 289 289 289 289 288 288 289 289 289 290 289 288 287 287 286 287 288 286 285 285 285 283 282 282
294 293 292 291 290 290 290 290 290 290 290 290 289 289 288 288 288 288 287 288 288 288 288 287 288 287 287 288 289 289 288 288 287 287 286 286 285 284 283 283 283 282 282
293 292 290 289 288 288 287 287 287 288 287 287 286 285 285 285 285 285 285 284 285 286 286 286 287 287 287 287 288 288 287 287 287 286 285 284 283 283 283 282 282 282 283

GFSMW_925_thetae_039.txt.gz
Theta_e
329 325 325 325 325 325 326 327 328 328 329 328 322 323 324 326 328 327 326 325 323 322 318 315 313 310 309 308 303 302 301 301 299 302 302 301 299 298 297 296 296 295 296
329 327 326 325 325 325 326 328 328 328 329 328 324 323 324 326 327 324 321 321 322 320 316 314 311 309 308 304 303 300 301 302 300 301 301 302 300 299 298 297 296 296 296
331 327 326 326 326 326 326 328 329 328 328 328 325 324 325 325 320 319 319 319 319 316 313 311 310 308 305 302 299 297 298 301 300 300 301 301 301 300 299 298 296 296 296
329 330 327 327 327 326 326 326 328 330 329 328 326 325 324 323 319 317 316 315 314 312 311 310 308 306 301 298 295 296 298 299 301 300 300 300 300 300 300 298 297 297 295
327 330 330 329 328 327 327 327 327 328 328 329 326 324 323 321 319 318 314 313 311 310 310 308 306 302 298 297 296 296 297 297 296 299 300 300 299 298 298 298 297 295 295
325 326 328 330 329 329 328 328 328 327 327 326 325 325 323 321 319 317 312 311 310 309 307 305 302 299 299 296 297 301 296 296 298 299 299 298 298 298 297 297 296 296 295
326 325 325 328 329 329 329 328 328 327 327 327 324 323 322 322 320 318 314 310 308 306 304 301 298 299 299 301 303 294 294 295 298 298 298 298 298 297 297 296 296 295 295
325 325 324 325 328 329 329 328 328 327 329 327 327 324 322 322 320 320 317 312 309 306 302 298 298 302 304 300 297 294 294 294 294 295 296 298 298 297 296 295 295 296 295
321 323 323 323 325 327 327 328 328 328 328 324 325 323 323 321 321 320 317 312 309 307 301 298 300 304 300 297 294 294 294 294 294 295 295 297 296 295 295 295 295 295 295
318 320 322 322 323 326 327 327 327 327 328 325 323 322 322 322 321 320 317 310 308 305 300 298 301 299 298 295 295 295 294 293 293 294 294 295 295 295 294 294 294 294 294
323 322 323 325 325 325 326 326 327 327 326 324 323 324 324 322 321 318 316 311 307 304 300 298 299 299 296 295 295 295 295 294 294 294 294 295 295 294 294 294 294 293 292
321 323 325 326 327 327 326 326 325 325 323 326 325 324 323 323 321 317 314 310 306 302 299 300 300 299 296 296 296 295 297 294 294 294 294 294 294 294 294 293 293 292 291
322 324 324 325 325 324 322 322 322 322 323 322 319 316 314 312 311 312 310 306 302 300 298 301 298 299 296 295 295 297 296 294 294 294 294 294 294 293 293 292 291 290 289
321 323 323 322 321 321 321 321 318 317 316 313 310 309 308 308 307 306 304 302 301 300 299 297 297 296 295 295 296 297 295 294 294 293 293 293 293 293 292 291 290 289 288
321 321 322 321 320 319 317 317 318 318 316 312 309 307 305 303 302 301 300 299 298 298 297 296 295 296 297 297 297 296 295 294 294 293 293 293 293 292 291 290 289 288 286
314 314 314 316 317 317 316 313 310 309 308 307 305 303 302 302 301 300 299 297 297 296 295 297 297 297 296 296 297 295 292 293 293 293 293 293 292 292 291 289 287 286 286
308 308 308 308 309 310 311 310 308 306 305 304 302 301 301 300 298 297 296 296 296 297 296 296 296 296 295 296 294 292 292 292 293 292 292 292 291 291 289 287 286 286 285
304 303 303 302 302 303 303 303 302 302 301 299 298 298 298 297 296 297 296 296 297 297 296 296 296 295 296 293 291 291 290 291 291 292 292 291 290 289 288 286 286 286 285
300 299 298 298 299 299 299 299 299 299 299 298 298 298 297 297 297 297 297 297 297 297 296 296 295 294 292 291 291 289 289 290 290 291 290 290 290 290 288 286 286 285 284
298 298 297 297 297 297 298 298 298 298 298 298 298 298 298 298 298 298 298 297 296 296 295 293 292 291 291 291 290 289 289 289 289 289 290 290 289 289 289 286 286 285 285
297 297 297 297 297 298 298 298 298 298 298 297 297 297 297 296 295 294 294 293 293 292 291 291 291 291 290 290 290 290 289 289 289 289 289 289 290 289 288 289 285 285 285
297 297 297 297 297 297 297 297 296 296 296 295 294 292 292 291 291 290 290 290 290 290 290 290 290 289 289 289 289 289 290 289 288 289 288 288 288 289 288 286 287 286 284
296 296 296 295 294 294 295 294 292 292 290 290 290 290 290 290 290 290 290 290 289 289 289 289 289 290 289 289 289 290 289 289 289 288 287 287 287 288 287 286 286 286 283
295 294 294 293 291 291 290 290 290 291 290 290 289 289 288 288 288 288 287 287 287 287 287 288 288 287 287 287 288 288 288 287 287 288 287 286 286 286 286 286 285 285 284
294 293 292 291 290 289 288 289 289 289 288 288 287 286 285 285 285 284 284 284 284 284 284 284 284 285 285 284 285 285 286 286 287 287 286 286 286 285 285 285 285 284 284
292 291 290 288 286 286 285 285 285 284 285 284 283 282 282 282 282 282 282 281 280 280 280 281 281 282 282 281 281 281 282 283 285 287 286 287 286 286 285 285 284 284 283

GFSMW_925_thetae_042.txt.gz
Theta_e
326 329 330 330 328 328 326 326 327 328 329 330 327 323 321 324 328 329 330 327 326 323 322 321 318 316 315 314 312 309 308 307 304 305 307 306 304 303 302 301 300 300 299
329 326 329 329 329 328 329 328 327 328 330 330 329 323 324 323 325 327 329 328 326 322 321 319 317 315 314 312 310 308 307 305 304 307 307 311 306 303 302 301 301 300 299
330 330 326 327 328 328 328 328 328 330 330 329 328 325 326 328 328 327 326 325 323 321 319 317 316 314 312 311 309 307 304 307 306 304 305 307 308 304 303 302 301 299 299
331 330 329 327 326 327 327 327 329 330 330 330 329 327 325 325 326 326 324 323 321 319 317 316 314 313 311 309 307 304 305 304 305 303 303 302 302 304 305 302 301 300 299
330 331 330 328 327 327 327 328 328 331 330 330 329 329 328 327 327 326 322 320 318 317 315 314 312 311 309 307 304 304 304 303 302 303 303 303 302 302 302 302 301 299 299
330 330 329 330 330 329 328 328 329 329 331 331 330 330 330 330 327 323 320 318 316 314 312 311 310 309 306 305 304 305 304 305 300 301 301 301 302 301 300 301 300 299 298
331 331 331 331 331 331 331 331 330 329 330 330 327 328 329 329 325 323 320 317 315 312 310 308 307 306 304 304 304 305 301 297 302 301 301 301 300 299 299 299 299 298 298
328 330 331 330 330 332 333 333 332 330 330 328 326 327 326 326 323 324 320 317 312 311 308 306 305 304 303 303 305 300 295 300 300 300 300 299 300 299 298 297 297 299 297
323 326 328 329 330 331 333 334 333 331 331 328 326 322 324 324 324 323 320 315 312 310 307 305 303 302 302 304 300 297 298 298 300 300 299 299 298 297 297 297 296 296 298
323 324 325 326 327 329 331 333 333 332 332 329 326 324 326 325 323 322 319 316 311 309 306 304 303 302 302 300 297 296 298 299 300 299 298 298 297 297 297 296 295 295 295
326 326 326 326 327 327 329 331 331 331 331 331 329 326 325 325 323 322 319 315 312 310 305 303 303 302 299 297 297 298 298 299 299 298 297 297 297 296 296 295 295 294 294
325 327 328 328 329 329 329 329 329 330 330 331 330 328 325 323 320 317 316 312 309 308 304 304 303 300 299 298 297 297 297 299 299 297 297 297 296 296 296 295 295 294 294
324 327 329 330 330 331 330 330 329 329 329 327 325 324 321 317 314 314 312 310 309 306 304 302 300 299 299 297 297 297 296 299 298 297 297 297 296 296 295 295 294 293 293
320 327 329 329 329 329 329 329 327 325 321 321 320 319 317 316 316 313 310 308 306 304 302 300 299 298 297 297 296 295 296 297 298 297 296 296 296 296 295 294 294 293 292
323 326 328 329 328 327 325 325 322 320 319 318 318 316 314 312 310 308 307 305 305 301 300 298 297 297 297 295 297 297 296 296 297 296 296 296 296 295 294 293 293 293 292
322 323 325 325 324 324 322 319 318 316 315 314 312 310 308 305 304 302 300 298 297 297 297 298 297 296 296 297 296 296 296 296 295 295 295 295 295 294 293 293 292 291 291
318 318 318 317 317 318 318 316 314 312 311 310 308 306 304 301 299 298 297 296 298 297 297 297 297 297 297 298 296 296 295 293 294 294 294 294 294 294 293 293 292 290 288
313 313 312 312 312 312 311 311 310 308 307 306 304 303 302 300 299 299 299 297 297 297 297 298 297 299 298 296 296 294 291 292 292 292 292 293 293 293 293 292 292 291 290
310 309 309 309 308 308 308 307 306 306 305 304 303 302 301 301 301 300 299 300 300 299 300 298 297 296 296 296 293 291 291 291 292 292 291 292 292 292 292 292 291 291 290
307 306 306 306 306 306 306 306 305 304 303 302 302 301 301 301 301 300 298 298 297 297 296 296 295 294 294 293 292 291 291 291 291 291 291 291 290 290 291 290 290 291 290
305 305 305 305 305 305 304 304 303 302 301 301 300 299 297 296 296 296 295 295 294 294 294 294 293 293 293 292 291 290 289 291 291 291 291 291 291 290 289 289 288 289 290
304 304 304 304 303 303 302 301 299 299 298 296 295 295 293 292 292 293 293 292 292 292 292 292 292 292 292 292 291 290 289 288 288 290 290 291 291 290 289 288 287 287 287
304 303 302 302 301 301 301 299 296 295 294 293 293 293 292 292 292 292 292 292 292 291 291 290 290 289 288 287 286 286 286 286 287 288 288 287 288 288 288 287 287 287 287
303 301 300 298 297 296 296 295 294 293 293 293 292 292 290 291 290 289 288 287 287 287 286 286 286 286 286 286 283 282 282 283 284 285 286 286 287 287 287 288 287 286 286
300 299 298 296 295 293 292 292 292 292 292 291 289 288 287 286 286 285 285 284 284 282 283 283 283 283 283 281 279 280 280 280 280 281 283 285 286 287 288 287 286 286 286
298 297 295 293 292 290 289 288 289 289 288 287 286 284 285 285 284 284 284 282 281 279 280 279 279 280 279 277 277 278 278 279 280 283 284 285 286 287 288 288 287 286 286

GFSMW_925_thetae_045.txt.gz
Theta_e
326 328 326 324 324 324 325 325 324 323 327 328 325 322 321 321 322 325 326 328 328 327 326 325 325 323 322 321 318 316 313 311 309 309 312 312 310 307 306 305 304 303 302
330 329 329 327 327 326 326 325 325 325 328 328 328 324 322 320 322 325 328 329 329 328 326 326 324 323 321 319 317 314 312 311 309 312 313 315 311 308 307 305 304 304 303
327 329 329 329 327 327 326 326 326 328 328 328 328 327 323 322 322 325 327 329 328 328 326 326 323 322 320 318 316 314 312 310 310 310 310 311 313 308 308 306 305 304 303
328 327 327 329 329 328 328 328 328 328 328 328 329 327 324 325 327 327 328 328 328 328 326 324 322 320 319 317 315 313 311 310 311 309 307 307 307 308 308 307 305 304 303
328 329 327 325 328 329 329 329 329 329 329 330 329 329 327 326 327 327 328 328 327 326 324 322 321 319 318 316 314 310 309 309 309 309 309 307 307 306 306 307 305 304 302
328 328 328 326 325 326 328 330 329 329 329 330 330 330 329 329 328 328 328 327 326 324 322 320 319 317 315 313 312 308 308 307 307 305 305 306 305 306 305 305 304 303 302
328 328 328 329 328 327 327 329 329 328 329 330 331 330 331 331 327 329 329 325 324 322 321 319 316 315 312 310 309 306 308 306 303 302 305 303 304 303 303 302 302 301 300
329 329 328 328 329 330 330 330 330 330 329 331 332 328 331 329 327 324 327 323 322 320 318 316 313 311 309 307 305 306 305 300 301 303 302 303 302 302 302 301 300 301 300
326 328 329 328 329 330 332 333 333 332 331 332 331 329 329 329 328 327 326 323 321 319 316 313 310 308 306 305 306 304 300 301 300 301 302 302 302 301 300 299 299 298 299
325 325 327 328 329 330 332 335 335 334 333 331 331 329 329 328 327 326 325 323 320 316 311 310 309 306 305 305 303 300 299 298 299 301 300 302 301 300 299 299 298 297 297
327 326 326 326 327 329 331 333 336 336 334 333 331 330 327 327 325 325 324 322 319 313 309 309 306 305 305 303 300 298 298 300 300 300 301 300 299 299 298 298 297 297 296
324 327 328 328 329 329 330 332 334 334 334 334 332 331 328 327 325 324 323 321 317 314 311 307 305 305 304 301 298 299 299 300 300 298 300 299 299 299 298 298 297 296 296
323 326 329 331 331 330 331 332 332 332 332 332 332 330 327 324 323 321 319 317 314 312 306 305 305 304 301 299 299 299 298 297 297 298 300 300 299 299 298 298 297 296 295
321 325 329 330 330 331 331 332 332 332 332 331 330 328 322 319 318 315 313 311 309 307 306 305 303 301 299 300 298 298 297 297 298 298 299 299 298 298 298 298 297 296 296
321 323 328 330 330 331 331 331 328 327 326 326 325 322 320 319 318 316 313 310 308 305 303 301 300 299 299 298 297 298 298 298 298 297 298 298 297 298 297 297 297 296 295
324 326 329 330 330 329 329 326 324 323 322 321 318 316 314 312 310 309 307 307 305 304 301 300 299 298 298 298 297 298 299 298 296 297 297 297 296 296 296 296 295 295 294
324 326 327 327 327 325 324 322 320 318 316 314 312 310 308 306 304 303 302 301 300 300 299 298 298 299 300 298 297 297 297 296 296 296 295 295 294 294 294 294 295 294 294
322 321 321 321 321 320 318 316 315 314 312 310 309 307 305 304 303 303 302 301 300 300 300 300 300 300 299 298 298 297 296 295 294 294 294 294 293 293 293 294 294 294 294
318 317 316 316 315 315 314 313 311 310 309 308 307 306 306 305 304 303 302 302 301 301 300 300 299 298 298 297 296 294 293 293 293 293 293 293 293 293 292 292 292 293 293
314 314 313 313 312 312 311 311 310 308 307 306 306 305 304 304 303 302 301 300 299 299 299 298 297 296 295 295 294 292 292 292 292 292 292 292 292 292 292 291 291 291 292
312 311 312 312 311 310 310 309 308 307 306 305 304 302 302 301 300 299 298 297 297 296 296 295 295 294 294 293 292 291 290 289 289 289 289 290 290 291 291 290 290 290 290
310 311 310 310 309 309 308 307 306 304 303 301 300 299 297 295 295 296 295 294 295 295 295 295 294 293 293 291 289 287 286 285 285 286 286 287 288 287 286 287 288 288 289
310 310 309 308 308 307 306 304 303 301 300 298 296 295 294 294 294 295 294 294 293 292 291 290 290 290 289 288 287 284 282 282 282 282 282 282 282 285 286 287 288 288 288
310 309 308 307 306 305 303 302 300 298 297 296 295 294 294 293 292 291 290 290 290 289 287 287 287 287 286 286 282 280 281 281 281 281 281 281 283 283 285 286 287 287 288
308 307 306 304 302 301 299 298 297 296 295 294 293 292 290 289 289 288 287 286 284 282 284 285 284 284 283 281 278 277 278 279 279 279 281 285 286 286 286 286 287 288 288
306 305 303 301 299 297 296 295 295 294 293 291 289 289 289 288 287 287 286 283 282 281 279 279 279 280 279 277 276 276 277 277 278 280 282 282 283 284 284 285 285 288 288

GFSMW_925_thetae_048.txt.gz
Theta_e
326 325 323 322 321 317 317 315 314 316 318 320 319 322 321 322 322 322 321 326 327 328 329 327 326 324 324 323 322 319 317 313 311 309 309 311 310 310 308 306 305 304 303
329 326 322 322 322 320 319 321 320 319 321 321 322 325 323 321 323 323 323 328 327 328 328 327 326 325 324 323 321 319 315 313 311 310 313 313 311 310 309 307 305 304 304
328 328 325 324 324 324 323 323 324 323 324 326 326 327 323 321 320 322 326 327 328 328 328 327 327 325 324 322 320 318 315 313 310 310 312 311 311 308 309 307 306 305 304
329 329 329 327 326 326 326 326 326 325 324 327 328 328 325 324 322 322 327 327 326 328 328 327 326 324 323 322 319 317 314 313 312 311 311 309 308 306 305 308 306 306 305
327 330 329 330 328 328 328 327 326 326 327 327 329 328 327 323 323 322 324 326 328 327 327 327 325 324 322 320 319 316 314 312 311 310 309 309 309 308 307 304 306 306 305
327 327 328 329 329 329 329 328 328 327 329 328 326 329 328 326 326 328 328 328 328 327 327 326 324 322 321 319 318 315 311 310 310 309 308 306 306 306 307 306 305 304 303
327 328 327 326 329 330 330 330 331 330 330 330 329 329 330 329 327 328 328 327 323 325 325 324 323 321 320 319 315 313 309 309 307 307 303 305 304 304 304 303 303 302 302
328 328 328 327 326 327 331 331 331 330 330 330 331 330 324 330 329 328 329 327 323 320 324 323 321 320 318 315 311 310 308 308 307 300 304 303 303 303 303 302 302 299 300
329 328 328 329 329 328 328 330 331 331 330 330 331 330 326 325 329 331 329 326 324 321 323 321 320 317 316 313 309 307 306 306 301 303 301 302 302 302 302 301 301 300 298
326 327 328 328 329 330 329 329 330 330 330 330 332 331 326 323 329 329 328 326 326 323 322 320 318 316 313 309 306 306 306 301 301 301 302 301 301 302 302 300 299 299 299
327 326 327 327 329 330 331 332 332 332 332 332 333 332 330 327 329 329 327 325 325 322 320 318 315 312 309 306 305 305 302 299 300 300 300 301 300 301 300 299 299 298 298
324 328 328 328 327 328 331 336 336 335 335 333 333 332 331 330 327 326 325 325 323 320 318 315 310 307 306 305 305 302 300 300 300 300 300 300 300 300 300 300 299 298 298
322 326 329 330 329 329 329 332 335 336 334 334 333 333 331 328 327 325 324 323 320 318 314 310 308 306 305 305 303 299 299 300 300 300 299 299 299 300 300 300 299 298 298
322 323 328 330 331 331 331 332 333 334 334 333 332 330 328 326 323 321 320 318 317 315 312 309 306 305 305 303 300 299 299 299 298 299 298 298 298 299 299 299 298 298 298
320 322 325 330 332 332 332 332 332 331 331 330 327 325 322 320 318 315 314 313 311 309 307 306 305 304 304 301 299 299 299 298 298 298 298 298 297 298 298 298 298 297 297
320 323 324 330 332 331 332 330 328 327 327 323 321 320 319 318 316 314 311 308 306 305 303 302 302 301 299 299 299 298 298 298 299 299 297 297 297 297 296 296 296 295 296
324 325 327 331 331 331 328 327 325 324 321 319 317 315 312 309 308 306 305 305 304 302 301 300 299 299 299 299 298 297 297 297 297 297 296 296 295 295 294 294 294 294 294
324 326 329 329 328 326 325 322 320 318 316 314 311 309 307 305 304 303 302 301 301 300 300 300 300 300 299 298 298 298 297 295 295 295 294 294 293 293 294 293 293 292 292
324 323 323 324 323 321 319 317 315 313 311 310 309 307 306 305 304 303 302 302 302 301 301 300 300 299 299 299 296 295 294 293 293 293 292 292 292 292 291 290 291 291 291
320 320 319 318 317 316 315 314 312 311 310 309 308 307 306 305 304 303 302 302 301 301 300 299 299 297 295 294 293 292 292 291 291 290 289 289 288 289 289 288 287 288 289
317 316 316 315 314 313 312 312 310 309 308 307 306 305 304 303 302 301 301 300 299 298 296 295 295 295 294 292 291 290 288 286 285 285 285 285 284 284 282 282 282 284 286
315 314 314 313 313 312 311 310 308 307 305 304 303 302 302 300 299 297 296 295 295 295 295 295 294 293 291 289 288 287 286 285 282 282 282 282 282 280 282 283 283 283 285
313 313 313 312 311 311 309 308 306 304 303 302 300 296 296 296 296 296 295 295 294 292 291 290 290 289 288 288 286 285 282 279 280 280 281 279 279 283 285 286 286 286 285
312 312 312 311 310 309 308 305 304 303 300 297 296 295 295 294 293 292 291 291 290 289 288 288 287 287 286 285 283 279 277 278 278 278 278 279 282 283 283 284 284 285 285
312 311 310 309 308 307 304 303 302 299 298 297 295 293 292 291 290 288 288 287 284 284 285 285 284 283 283 280 278 277 277 277 277 278 279 280 282 281 281 280 281 282 282
311 310 309 307 305 303 301 299 298 297 296 293 291 290 289 289 289 287 284 283 283 282 280 279 279 279 279 277 276 276 277 277 278 278 279 280 279 279 279 279 279 279 279

GFSMW_925_thetae_054.txt.gz
Theta_e
321 318 317 316 317 317 315 316 316 315 315 315 316 316 318 317 318 316 317 318 319 321 323 324 324 324 324 323 322 321 321 320 319 313 310 309 308 308 308 307 306 305 305
321 318 317 315 317 316 315 315 315 314 315 316 316 316 314 316 315 316 316 316 313 314 316 320 324 324 324 324 323 322 321 320 316 312 309 310 310 309 308 308 307 306 305
323 320 318 315 316 315 316 315 315 314 316 318 316 315 314 316 316 317 318 315 317 319 320 323 323 325 325 325 323 322 322 320 315 311 312 309 310 307 309 309 308 306 305
322 321 319 316 316 316 315 316 316 314 315 316 316 313 314 315 317 320 321 320 320 321 321 323 324 324 324 326 325 323 322 321 316 311 310 311 310 307 307 307 308 308 307
323 321 320 318 317 317 315 315 316 315 315 315 318 315 314 315 317 321 323 320 320 320 322 323 325 325 323 324 325 323 322 321 319 315 309 308 309 309 306 305 306 307 308
323 322 320 319 318 317 316 314 314 315 315 314 317 318 316 316 319 322 323 322 320 321 323 324 325 325 324 324 325 323 322 320 317 314 311 311 309 308 308 304 305 304 305
324 323 321 320 319 317 316 316 314 314 314 314 316 317 317 316 319 321 322 322 320 321 325 325 325 323 321 323 322 324 322 319 317 314 312 311 310 310 308 305 302 301 302
326 324 321 321 320 319 317 317 317 315 314 314 315 315 316 318 321 324 324 323 321 320 322 325 325 323 322 324 324 322 320 318 315 313 313 310 310 309 304 304 302 301 299
324 325 323 321 321 321 320 319 319 318 318 318 318 319 320 321 324 326 325 325 324 322 323 324 325 322 325 324 322 321 319 316 313 312 310 310 308 305 303 303 302 301 300
323 324 325 324 323 322 322 322 321 321 321 322 322 322 322 322 324 326 327 326 324 325 322 324 323 324 322 323 321 319 315 312 310 308 308 306 303 302 302 303 302 302 300
323 323 325 325 326 325 324 324 324 324 324 324 324 324 324 324 325 325 326 327 326 326 325 325 321 319 321 321 319 317 313 311 308 307 306 302 302 302 302 302 301 301 300
321 322 322 325 326 326 326 326 326 325 325 325 326 325 326 326 326 326 327 327 325 326 325 324 322 320 320 318 316 313 312 308 306 304 303 302 301 302 301 300 300 299 299
317 318 319 320 322 323 324 326 327 327 327 327 328 327 327 327 327 327 328 326 323 326 325 324 323 321 318 316 314 312 309 305 305 303 302 301 301 300 299 298 298 298 297
318 318 319 320 322 323 323 324 328 328 328 328 327 327 327 327 327 326 324 324 325 326 324 323 321 319 316 315 312 307 306 304 303 301 301 300 300 300 299 298 297 296 297
314 319 320 320 323 326 325 324 326 328 328 328 326 328 329 328 328 325 323 327 326 324 322 318 315 314 313 310 307 305 304 303 301 300 300 299 299 298 298 296 296 294 294
314 316 321 321 326 328 327 327 326 327 326 326 326 326 323 325 321 320 324 322 320 319 317 314 313 310 308 306 305 304 303 301 300 300 298 299 298 296 295 294 292 291 290
313 313 319 324 327 327 328 327 328 329 329 327 325 322 322 320 319 319 318 317 314 312 310 309 307 306 305 304 303 302 300 299 299 298 298 297 294 294 292 291 291 291 290
312 311 318 324 327 326 325 324 325 324 322 321 318 317 316 316 315 315 313 311 310 309 307 305 305 304 303 301 299 299 298 298 297 296 294 293 292 290 289 288 285 282 281
314 320 324 325 325 323 321 320 317 316 315 313 314 313 313 310 308 307 307 307 304 302 302 301 301 300 299 298 298 297 297 296 294 292 291 290 288 286 283 281 280 282 284
320 321 323 322 321 319 318 315 312 311 310 310 309 309 309 308 308 307 305 303 302 300 299 299 299 299 299 297 297 297 295 293 291 290 288 286 282 280 279 281 283 283 283
318 321 321 320 318 317 316 311 310 309 309 309 308 306 307 307 306 304 302 300 299 299 299 299 298 298 297 296 295 293 292 290 288 285 282 280 279 278 281 282 281 281 280
315 317 315 314 315 315 315 309 308 308 308 307 305 304 304 303 302 301 300 300 300 299 296 293 290 289 289 290 289 289 287 285 282 279 278 278 279 281 282 280 279 279 278
312 314 312 310 312 313 313 307 306 307 306 305 304 303 303 302 302 301 301 300 298 294 290 289 286 285 285 284 284 284 282 279 278 278 278 279 280 281 279 278 278 277 276
310 311 310 308 307 309 308 308 306 306 305 303 302 302 302 301 300 299 299 298 294 291 289 287 284 283 282 282 281 280 278 277 278 278 278 279 279 278 277 277 276 275 275
309 310 309 307 304 305 305 304 304 305 302 301 300 298 296 295 292 291 292 292 290 291 289 287 286 283 281 280 279 277 277 278 278 278 278 277 276 276 275 275 274 273 273
308 308 306 304 303 303 302 302 302 303 301 294 292 291 290 288 287 286 283 283 285 286 286 285 285 282 281 278 277 277 278 278 278 277 276 275 274 274 274 273 273 272 272

GFSMW_925_thetae_057.txt.gz
Theta_e
319 318 318 318 317 317 318 318 318 316 316 319 320 321 320 321 320 319 320 322 322 323 324 324 323 324 324 324 324 322 320 319 318 316 313 311 307 307 307 307 306 307 306
318 317 316 317 317 316 316 317 317 316 316 315 317 316 318 319 319 318 317 319 320 321 322 323 324 324 324 323 323 322 320 319 319 316 309 306 308 307 307 307 306 306 306
320 317 316 315 317 317 316 316 316 316 315 315 315 315 316 317 317 317 317 317 317 316 314 316 319 321 324 323 323 322 320 320 319 316 314 310 311 308 309 308 307 306 305
321 319 318 314 316 316 316 315 315 316 315 315 316 315 315 315 315 316 316 316 316 316 315 319 320 321 323 324 324 324 323 321 319 311 310 311 311 309 310 308 310 308 307
322 320 318 315 315 316 316 315 315 315 315 315 316 316 315 314 314 315 315 314 315 316 316 317 320 321 322 323 324 324 323 321 319 316 311 309 308 309 309 306 307 309 309
322 320 319 317 315 316 315 315 316 315 315 314 315 317 316 315 314 314 316 316 317 318 317 318 319 320 322 324 324 324 324 323 322 318 317 314 311 309 308 306 306 305 306
322 321 319 317 316 316 316 315 315 315 315 313 314 316 317 315 314 314 315 316 319 321 322 321 320 320 323 324 322 322 324 323 323 320 317 314 312 313 310 309 306 303 303
322 322 320 318 317 316 316 315 314 314 315 315 314 315 316 316 314 314 315 317 319 321 322 322 320 321 325 324 323 320 323 323 323 321 315 312 313 312 310 309 304 301 301
323 323 321 319 318 317 316 315 315 314 314 315 314 314 314 316 316 316 316 317 319 320 321 323 321 320 323 324 322 322 323 323 322 317 313 313 312 309 308 305 304 302 300
323 323 322 321 319 318 317 316 315 315 314 314 314 314 314 315 316 316 317 319 321 323 323 323 322 322 324 324 321 323 323 321 318 315 312 310 308 306 304 303 302 302 302
322 323 323 323 321 320 319 318 316 316 316 315 314 314 314 315 316 318 319 320 324 325 324 324 324 323 324 323 324 323 321 318 316 312 309 308 307 305 303 302 302 301 299
320 321 322 324 322 321 320 320 319 318 318 317 317 316 317 318 319 320 321 322 323 325 325 325 324 321 323 323 320 320 318 315 311 310 307 306 304 302 302 301 299 299 299
316 319 320 322 323 323 322 321 321 321 320 321 320 321 322 322 322 322 323 323 324 324 323 325 325 324 322 319 319 318 316 313 310 309 306 305 303 302 301 299 298 297 297
315 316 318 321 323 324 324 324 323 322 322 322 323 323 324 324 323 324 324 324 325 324 322 325 324 323 321 319 316 314 311 310 309 306 306 303 302 301 300 299 298 296 296
313 315 317 318 319 321 324 325 325 325 324 324 324 324 325 325 325 325 325 325 324 324 325 324 323 322 320 317 313 312 309 307 305 304 302 301 300 300 298 298 296 295 293
312 313 317 318 319 319 320 321 323 325 325 325 325 325 325 325 326 325 325 323 323 324 322 322 320 318 316 314 312 310 306 305 303 301 300 299 298 298 297 295 294 292 290
312 311 316 319 321 323 323 321 321 322 326 326 325 325 326 325 323 324 324 321 319 320 319 318 317 314 312 310 308 306 304 303 301 300 299 297 296 295 293 293 291 290 287
312 310 310 318 321 325 327 325 324 324 325 325 324 323 323 322 319 319 317 315 315 317 315 312 311 309 307 306 304 303 302 300 299 298 297 296 293 293 292 290 288 284 281
311 309 311 320 323 326 327 326 324 325 325 323 322 320 320 316 315 313 311 312 312 309 309 308 306 306 304 303 302 300 298 297 296 295 293 291 290 288 286 283 281 281 282
310 316 320 323 323 322 324 323 319 319 318 317 316 316 315 314 311 311 311 311 310 309 306 304 303 302 301 299 298 298 297 295 292 290 288 288 286 282 280 280 282 282 281
318 320 321 321 321 320 321 316 314 314 315 316 316 314 313 313 313 310 307 304 303 301 299 298 297 297 297 297 296 296 296 294 289 287 285 282 280 279 280 282 281 280 279
317 319 317 316 317 318 317 311 311 312 313 312 310 308 308 308 306 305 301 300 299 297 295 294 292 292 293 293 294 292 291 289 287 283 280 279 279 280 281 280 279 278 277
314 316 314 311 313 314 315 310 308 309 307 306 305 304 304 303 303 302 299 297 297 293 289 288 286 285 285 285 287 287 285 283 281 279 278 279 280 280 279 278 277 276 275
311 312 311 310 308 311 311 311 307 307 306 303 302 301 301 299 299 299 298 297 294 291 288 285 283 282 282 282 282 282 280 279 278 278 278 279 279 278 277 276 275 274 274
310 311 310 307 304 306 307 306 306 306 302 300 298 297 297 297 294 293 293 293 292 294 290 287 285 283 281 281 280 279 278 278 278 278 278 278 277 276 275 275 274 273 272
308 306 305 303 302 303 303 303 304 304 300 294 293 292 291 289 287 286 284 286 289 290 290 288 287 283 282 278 278 278 278 278 278 278 276 275 274 274 274 273 272 271 271

GFSMW_925_thetae_060.txt.gz
Theta_e
316 318 318 319 318 319 319 320 321 319 322 318 321 321 322 321 321 319 319 317 317 316 316 317 321 321 320 320 321 321 320 319 318 317 314 313 309 307 307 306 306 307 307
319 318 317 317 318 318 318 318 318 318 319 320 320 321 322 321 323 322 322 322 321 322 321 322 322 323 322 323 323 323 322 320 318 316 310 308 310 310 308 307 306 306 306
319 318 316 316 317 317 317 318 318 317 319 319 319 319 320 319 321 319 319 315 316 321 321 321 322 323 324 323 323 323 323 321 319 317 316 309 310 308 309 307 307 307 306
320 318 316 315 317 317 317 317 317 317 317 317 317 316 317 318 317 318 319 318 316 318 317 316 316 317 319 321 323 323 322 321 319 315 313 313 311 310 310 307 309 307 307
320 318 316 315 315 317 316 316 316 316 316 315 315 316 315 316 316 317 317 317 317 316 316 317 316 317 320 320 322 323 323 321 320 318 312 309 310 311 310 311 309 307 308
321 319 317 315 314 316 316 315 315 316 315 315 315 314 315 315 315 315 315 316 315 316 315 316 317 317 318 320 321 322 323 322 322 320 318 315 312 309 309 308 308 307 308
321 319 317 315 314 314 315 315 315 314 315 315 315 315 315 315 314 314 314 315 315 315 315 315 317 318 319 319 319 321 321 322 322 321 321 320 319 314 311 310 308 307 306
321 320 318 317 315 314 314 314 314 315 314 314 314 315 315 316 315 315 314 314 314 315 315 315 318 321 321 321 320 321 322 323 321 322 322 321 318 314 312 313 307 303 301
320 321 319 318 316 315 315 315 315 315 315 315 314 314 314 315 317 316 315 315 314 314 315 316 318 320 320 322 321 321 323 321 321 322 322 319 315 311 313 310 309 307 303
320 320 320 318 318 316 316 315 315 315 315 315 316 315 314 314 315 316 316 315 315 314 314 315 316 319 322 323 322 322 322 321 321 321 320 317 314 312 310 308 306 305 303
319 321 320 320 319 317 316 316 315 315 315 315 315 315 315 314 314 315 315 316 315 315 315 316 318 321 324 323 322 322 321 320 321 319 317 314 312 310 307 306 305 303 302
317 319 321 321 320 318 317 316 315 315 315 315 314 314 314 315 315 314 314 315 315 317 316 318 319 322 324 324 323 322 321 321 320 318 314 312 310 308 306 304 302 301 300
314 317 318 321 321 320 319 318 316 316 316 316 315 314 314 314 314 314 315 315 316 318 318 319 322 324 324 323 323 321 322 321 319 317 313 310 307 305 303 302 300 298 297
310 314 317 319 321 321 320 319 319 318 317 316 316 316 315 315 315 315 316 317 318 319 319 321 322 323 323 322 321 321 319 317 315 313 310 308 307 305 302 300 298 297 296
311 312 315 317 319 321 321 320 320 320 320 319 318 318 318 318 318 320 320 320 321 321 322 322 321 321 322 322 321 319 316 315 313 309 307 306 305 303 301 299 298 297 295
312 310 313 315 317 320 321 322 322 321 320 320 320 320 320 321 321 322 322 322 322 323 323 323 320 321 321 322 320 319 316 313 309 306 304 302 301 300 299 298 296 295 293
312 310 311 314 315 317 320 321 322 323 322 321 321 321 321 322 322 323 323 323 323 323 322 321 320 319 319 319 317 316 312 308 305 304 302 299 298 298 296 295 293 291 290
312 311 309 310 316 318 318 319 320 321 323 323 323 323 323 323 323 323 323 322 320 319 319 317 317 317 317 314 309 307 306 304 303 301 300 298 295 293 292 291 290 288 284
309 309 310 311 314 318 321 321 320 320 321 323 324 324 323 323 322 320 320 317 315 314 313 312 311 311 308 307 304 304 302 300 298 297 296 295 291 289 290 288 286 282 282
307 307 310 311 315 318 322 323 321 322 321 322 322 322 321 321 318 317 315 314 311 308 307 305 305 305 303 301 302 301 299 296 293 291 289 289 288 286 285 282 281 281 281
315 317 316 317 319 319 321 320 318 320 319 319 319 319 319 318 316 312 309 307 305 302 300 300 299 300 299 298 298 298 297 295 291 288 285 284 282 280 280 281 281 280 279
316 318 317 317 317 319 320 314 313 313 316 317 315 314 313 311 308 306 301 301 298 295 293 293 292 293 294 295 296 295 295 292 291 286 283 281 279 280 281 280 279 278 277
314 315 314 311 313 315 317 311 307 311 312 311 306 305 305 303 303 302 299 296 295 292 289 288 285 285 287 289 291 290 289 287 286 282 279 279 280 280 279 278 278 277 275
311 312 312 309 307 310 312 311 308 309 308 303 301 300 300 298 298 297 296 294 292 290 289 287 284 283 284 284 284 283 282 280 280 278 278 279 279 278 277 277 276 275 274
308 309 308 305 304 307 306 306 307 308 304 301 298 297 297 297 294 293 292 293 292 294 293 289 287 284 281 280 281 281 280 279 278 278 278 278 277 276 276 275 274 273 272
304 301 299 298 297 299 300 302 303 304 300 294 293 292 291 290 289 288 286 288 290 290 290 286 285 283 282 280 279 279 278 278 278 278 277 276 275 274 274 273 273 272 271

GFSMW_925_thetae_063.txt.gz
Theta_e
320 318 318 319 319 321 321 321 322 321 319 319 321 319 322 320 321 321 316 322 318 316 316 316 317 316 317 317 318 318 318 318 317 315 313 312 310 308 307 307 306 306 307
320 319 318 319 318 319 319 320 321 321 321 320 321 319 320 321 321 321 322 320 320 316 317 317 317 317 317 319 318 318 319 319 318 318 315 319 315 313 311 308 307 306 306
321 320 318 318 319 318 319 319 319 320 321 320 319 320 321 321 322 322 318 316 320 316 316 317 317 318 320 321 320 320 321 321 319 318 320 318 322 315 310 310 308 307 306
323 321 319 318 318 319 319 319 318 318 319 319 318 320 320 319 320 320 320 319 317 318 320 318 318 321 320 322 322 320 322 322 321 316 316 316 316 320 321 311 309 308 307
325 322 320 318 318 317 318 319 318 318 318 320 318 318 320 319 319 320 320 321 319 318 316 316 318 319 318 317 319 321 322 322 321 319 316 314 314 314 316 319 313 312 309
325 323 320 318 317 317 318 318 318 318 317 318 318 317 317 318 318 318 319 318 317 315 315 315 317 317 316 318 319 320 321 322 321 320 318 317 314 314 312 314 315 310 312
326 324 321 318 316 316 318 317 317 317 317 317 317 316 317 316 317 318 317 318 317 316 316 316 317 317 317 318 319 319 320 321 322 321 321 321 317 318 315 313 311 311 310
326 325 322 319 317 316 317 317 316 317 317 316 316 316 316 316 316 317 316 316 317 317 316 316 315 315 315 318 320 321 321 321 321 320 321 320 319 317 316 314 311 306 308
325 325 323 321 319 317 316 316 316 316 316 316 316 316 316 316 316 315 315 314 315 315 316 315 315 315 315 317 320 320 321 321 321 321 320 319 318 316 317 316 313 312 311
324 324 324 322 320 318 317 316 316 316 316 316 316 315 315 315 316 316 315 315 315 315 314 314 314 315 316 317 318 320 321 321 321 321 321 319 318 318 319 314 311 310 310
324 324 324 322 321 319 317 316 316 316 317 316 316 316 315 315 315 316 316 316 316 315 316 315 315 315 314 315 318 321 322 320 320 321 320 319 318 317 314 310 308 308 306
320 323 323 322 321 320 318 317 317 316 316 316 316 316 316 315 314 315 315 316 316 316 316 316 317 316 314 315 320 320 321 321 320 320 319 318 316 313 310 309 307 305 304
315 320 323 323 322 321 320 318 317 317 316 316 315 316 316 316 315 315 314 314 316 316 317 317 317 317 315 317 317 319 320 319 320 320 320 317 313 308 308 307 305 303 301
316 317 321 323 323 322 321 320 319 318 317 316 316 315 315 315 315 315 315 315 315 315 316 317 317 317 317 318 319 321 322 319 319 319 319 314 311 309 307 304 303 300 298
315 315 317 321 323 323 322 321 320 319 318 317 317 316 316 315 315 315 315 315 315 316 316 317 318 319 319 320 319 320 320 318 317 316 313 312 310 309 307 304 301 298 297
317 317 315 317 320 322 322 322 321 320 319 318 318 318 317 317 316 316 315 315 316 316 317 318 319 320 320 320 320 321 320 318 314 311 309 307 305 305 304 302 299 298 296
317 317 315 315 318 320 321 322 322 321 320 320 320 319 319 318 318 318 319 319 319 319 319 320 321 321 321 320 319 319 316 314 312 308 305 303 302 301 300 298 297 294 293
316 316 315 315 314 316 318 321 322 322 321 321 321 321 321 320 320 320 321 321 321 321 321 321 321 321 321 320 319 312 311 309 305 304 303 302 299 299 298 296 292 291 290
314 313 313 313 313 314 316 318 319 322 322 322 322 322 322 322 322 322 322 322 322 322 321 320 318 316 315 314 311 307 306 303 300 300 300 299 296 293 293 291 290 286 283
312 313 313 311 310 312 316 318 318 319 321 322 323 322 322 322 321 321 322 320 318 316 313 311 309 310 309 305 303 303 301 297 294 293 292 293 293 291 292 290 286 283 282
313 316 318 317 317 317 318 320 320 320 319 319 319 320 321 322 322 320 317 313 310 307 303 303 300 301 301 300 300 301 299 295 290 290 288 287 288 286 283 282 282 282 280
314 316 318 315 314 317 318 318 317 316 319 320 319 318 317 316 313 312 307 305 302 298 295 294 293 293 295 296 298 299 299 295 294 288 285 282 281 281 281 281 280 279 278
313 313 314 313 312 313 314 313 308 311 312 310 307 306 307 305 305 304 300 296 295 291 289 288 286 286 289 290 293 294 292 291 288 284 282 281 282 280 280 279 278 277 277
311 311 310 307 306 306 307 307 308 309 308 304 301 300 300 298 297 297 296 294 292 291 289 287 285 284 284 284 286 285 284 282 281 280 281 281 280 279 278 277 277 276 275
304 303 303 301 299 299 300 303 304 305 301 297 296 295 294 293 291 291 292 292 292 293 291 289 287 284 281 280 281 281 281 281 280 279 279 279 278 278 278 277 276 275 274
296 296 295 296 294 292 292 296 298 298 296 294 292 291 290 289 288 287 285 287 290 290 290 287 286 282 281 281 281 281 280 279 279 279 278 278 278 278 277 276 275 274 273

GFSMW_925_thetae_066.txt.gz
Theta_e
328 323 321 320 322 322 323 322 321 319 322 322 322 322 322 322 319 322 322 321 321 320 320 320 320 320 322 323 322 322 321 320 319 318 317 315 313 312 312 311 311 311 311
329 324 322 321 322 322 322 322 321 322 321 320 320 321 322 322 320 319 318 320 321 316 317 321 319 320 321 322 323 323 322 322 320 322 322 324 320 316 314 313 312 311 311
330 326 323 321 321 322 322 322 321 321 322 321 322 320 321 319 321 320 318 318 321 316 315 318 320 322 322 322 322 323 323 323 323 322 322 324 324 323 320 317 315 312 311
329 328 325 322 323 321 322 323 321 321 321 320 321 319 319 318 322 321 319 320 320 319 316 319 322 323 320 323 323 324 323 323 323 322 322 323 322 322 322 318 317 315 311
330 329 326 323 322 322 321 323 322 320 320 320 320 319 318 318 320 322 321 320 321 319 317 317 319 318 319 320 322 323 324 324 321 322 322 322 322 322 322 323 321 315 312
330 329 326 324 322 321 322 322 322 321 319 320 320 319 320 320 321 321 322 320 320 318 317 317 318 318 318 319 321 319 320 322 324 322 324 323 323 322 322 321 322 320 312
331 330 328 326 322 321 321 321 322 322 321 319 319 319 319 319 318 320 320 320 318 318 318 319 318 317 317 316 317 319 323 323 323 323 323 324 323 320 319 318 320 319 316
330 330 329 327 323 321 322 321 322 322 321 321 321 320 318 318 319 319 319 319 320 319 319 318 317 317 317 320 321 321 322 323 323 324 324 323 322 321 320 318 318 317 317
329 330 329 327 325 322 322 322 322 322 322 321 320 320 319 319 319 320 319 319 319 319 319 318 316 316 319 321 321 321 322 322 323 325 325 322 320 320 319 319 318 319 319
328 329 329 328 326 323 321 322 321 322 322 322 322 322 321 320 320 320 320 319 319 319 319 320 320 320 319 320 320 321 321 322 323 324 324 324 322 322 320 319 317 316 316
329 329 329 328 327 325 322 322 321 321 321 322 322 321 321 321 321 321 320 320 319 319 319 319 319 319 319 319 320 321 321 322 323 323 321 321 320 320 318 316 315 314 315
325 328 329 328 327 326 324 322 321 321 321 321 321 321 321 321 321 320 320 320 320 320 320 319 319 319 319 319 320 320 320 321 320 320 319 320 320 317 317 316 314 312 311
322 324 328 329 328 327 326 324 322 321 321 321 321 321 321 321 320 320 320 320 320 320 320 320 320 319 319 319 319 320 320 317 319 317 317 318 319 318 314 313 311 309 309
322 323 325 327 327 327 326 325 324 323 322 321 321 321 321 321 321 321 320 320 320 320 319 320 320 320 320 320 320 320 319 317 316 318 318 320 318 316 314 311 308 305 305
321 322 322 325 327 327 326 326 325 324 323 322 321 321 321 321 321 321 320 320 320 319 319 320 320 320 320 321 321 320 320 319 317 317 319 318 318 317 313 311 305 304 301
322 321 322 322 323 326 326 326 325 325 324 323 323 322 321 321 320 320 320 320 320 320 319 319 320 320 320 319 319 319 321 319 317 317 316 316 314 311 310 308 307 305 302
320 321 321 322 322 322 324 326 326 326 325 324 324 323 323 322 321 321 320 320 320 320 319 319 320 320 320 320 320 319 319 319 318 316 313 311 309 308 305 303 302 301 299
319 319 319 320 319 318 320 324 325 326 326 325 324 323 323 323 323 322 321 321 321 321 321 321 321 321 322 321 320 320 320 316 315 313 310 308 306 304 302 299 297 295 293
320 319 317 317 319 317 316 318 322 324 325 325 325 324 324 324 323 323 323 323 323 324 323 322 322 322 321 321 320 318 312 310 307 305 303 302 299 295 296 294 290 287 287
319 319 318 320 321 320 318 316 319 322 324 324 325 325 325 325 324 325 325 324 324 322 320 320 318 317 317 316 314 311 307 301 297 295 294 295 296 294 294 293 289 285 283
318 319 320 321 320 320 321 320 319 320 321 323 324 325 325 325 325 324 318 318 318 315 310 308 305 306 305 303 302 303 301 296 291 289 289 290 290 290 290 288 286 285 282
318 318 319 318 316 317 321 322 322 319 320 321 322 321 321 320 317 316 313 310 308 303 299 296 294 294 294 295 298 299 299 292 292 287 287 286 286 284 283 283 282 281 280
316 316 315 313 310 308 312 316 310 310 311 309 306 307 308 307 306 306 302 299 298 294 291 290 288 287 288 288 289 289 290 290 288 285 284 283 282 281 280 280 280 279 280
310 310 311 310 306 302 301 302 305 305 305 303 301 299 298 297 297 297 296 295 293 291 289 288 286 284 284 285 287 287 286 285 283 282 282 281 281 281 279 279 279 279 278
301 301 304 303 301 299 296 297 299 300 298 296 295 294 294 292 290 289 290 290 291 291 289 287 285 284 282 282 283 284 283 282 282 281 281 281 281 281 281 280 279 278 277
296 294 292 291 293 293 292 292 298 296 294 292 292 290 290 288 287 286 284 285 288 290 288 286 286 283 282 282 283 283 282 281 281 282 282 283 282 282 281 280 279 278 276

GFSMW_925_thetae_069.txt.gz
Theta_e
330 328 325 325 326 324 324 324 323 322 322 323 324 322 322 321 322 320 321 319 322 321 320 320 319 321 321 321 321 322 322 322 320 318 318 318 316 316 315 314 314 314 314
331 329 326 324 324 325 324 324 323 322 322 324 324 323 321 321 319 315 320 321 320 320 318 319 320 320 323 324 323 323 324 323 322 321 321 323 320 318 317 317 315 314 314
331 330 328 325 324 324 325 325 324 323 323 324 323 322 322 321 320 320 321 322 322 322 320 321 322 321 322 325 325 325 325 324 324 323 323 325 325 324 321 318 317 316 315
332 331 329 326 325 324 325 325 324 324 322 323 323 322 323 323 321 319 321 321 323 321 321 323 320 322 322 324 325 325 325 323 322 324 324 324 325 326 324 322 320 319 316
331 331 329 326 326 324 324 324 324 324 324 324 323 322 321 322 322 320 320 320 320 322 320 321 319 318 324 324 324 324 324 324 321 321 324 324 323 323 324 324 321 320 319
331 331 329 327 324 326 324 325 323 323 323 324 323 321 321 322 320 322 321 321 321 322 321 317 316 318 320 323 320 321 321 321 321 321 322 323 323 322 323 325 324 324 320
331 331 330 329 325 325 326 325 325 323 322 322 322 324 323 319 319 321 323 321 321 322 321 320 317 318 318 319 319 319 318 321 320 322 322 322 324 323 323 322 324 322 319
331 332 330 329 326 325 325 325 324 324 322 321 322 323 322 320 320 320 323 322 321 320 320 320 318 317 317 318 319 318 319 318 320 321 322 323 323 323 324 324 321 318 320
330 331 331 329 327 325 325 325 324 325 324 322 322 322 323 323 323 322 322 322 321 320 319 319 319 319 319 320 321 321 320 320 319 321 323 323 324 325 325 323 320 319 321
329 331 331 330 328 326 324 325 325 324 324 324 323 322 323 323 323 321 322 322 321 320 320 320 320 320 320 320 320 319 321 321 322 323 324 324 324 325 324 322 320 321 320
329 330 331 330 329 327 325 325 325 325 324 324 324 323 324 323 323 323 323 322 322 322 321 321 320 320 320 320 321 321 321 322 322 323 323 323 324 324 324 323 322 321 319
329 330 331 331 330 329 327 325 325 324 324 325 325 325 324 324 324 323 324 322 323 323 322 322 322 322 322 321 321 322 322 322 322 323 323 323 323 323 322 321 321 319 318
323 327 330 331 331 330 329 327 326 325 324 324 325 325 325 326 326 325 325 324 324 323 323 322 322 322 322 322 322 323 322 322 322 322 323 323 322 320 319 319 317 317 316
324 324 327 329 330 330 330 329 327 326 324 324 324 325 325 325 326 325 325 325 324 324 323 322 322 322 322 322 322 322 322 322 322 322 322 322 320 318 318 317 316 315 313
322 323 323 326 328 329 329 329 328 327 326 325 324 324 325 325 325 325 325 324 324 324 324 323 323 323 323 323 322 322 322 322 322 322 321 319 318 317 317 317 315 312 310
322 322 323 323 324 327 328 329 329 329 327 327 326 325 325 325 325 325 325 324 324 324 324 323 324 323 323 323 322 322 323 323 322 322 321 319 319 318 317 317 317 314 309
321 322 322 322 322 323 324 328 328 328 328 328 327 326 326 325 325 325 325 325 325 324 324 324 323 323 323 323 322 321 321 322 322 322 321 319 318 317 316 314 310 306 305
321 322 322 321 320 321 321 321 325 328 328 328 328 327 327 326 326 325 325 325 325 325 325 324 324 324 323 323 322 321 320 320 320 320 320 318 317 313 310 307 302 298 296
319 320 321 322 322 323 323 320 320 323 327 328 328 327 327 327 326 326 326 325 325 325 325 324 324 323 323 322 321 321 321 319 318 316 313 311 308 305 303 301 293 292 291
318 320 321 322 321 321 322 323 322 319 320 325 328 328 327 327 327 327 327 326 325 325 325 323 322 323 322 322 322 321 319 311 305 302 300 299 300 295 294 296 293 288 287
319 319 320 319 317 316 319 323 323 322 323 323 323 326 326 327 327 327 327 326 324 318 318 316 311 311 311 310 309 309 309 302 294 291 289 289 290 290 291 292 290 287 285
318 317 318 317 312 310 314 316 312 311 315 318 318 316 319 318 322 321 317 316 315 307 300 297 294 294 295 297 297 299 301 295 292 287 286 285 288 289 289 288 286 284 283
314 313 314 312 307 303 301 303 303 304 304 304 303 305 308 308 309 309 305 302 300 297 293 291 288 286 287 289 292 293 292 291 287 285 284 283 284 284 283 282 281 281 282
307 306 307 305 301 297 296 295 298 299 299 295 294 293 293 293 295 295 295 296 294 292 290 288 286 285 284 284 285 286 286 285 283 282 282 282 281 281 281 281 281 280 280
300 299 299 297 295 292 291 291 293 296 295 293 291 290 289 288 286 286 288 289 290 291 289 286 285 284 283 283 284 284 284 283 282 282 282 282 282 282 282 281 281 280 280
294 294 293 293 292 291 289 289 289 291 293 291 290 289 287 286 286 285 284 284 285 286 286 285 285 283 283 283 283 283 283 283 283 284 285 285 285 284 283 282 281 280 279

GFSMW_925_thetae_072.txt.gz
Theta_e
331 330 328 327 327 328 326 325 324 324 324 324 323 323 323 321 321 321 321 318 319 321 324 323 323 323 323 322 321 320 321 322 321 319 316 315 315 315 314 314 314 315 316
332 330 328 327 326 325 325 324 324 324 323 324 323 323 323 322 320 319 319 321 323 323 323 322 323 322 321 320 321 321 322 322 320 319 318 319 318 316 316 315 313 313 313
332 331 329 327 325 324 325 323 324 323 323 324 323 323 322 322 321 319 321 322 322 322 321 321 321 321 321 320 321 322 323 322 322 320 321 322 322 320 318 316 316 315 314
332 331 329 328 326 325 325 325 324 323 323 324 323 322 322 321 319 318 319 317 319 321 321 320 320 318 321 324 324 323 323 324 322 322 323 323 324 322 323 320 318 318 316
332 331 330 328 326 326 325 325 324 324 324 324 323 322 322 321 319 316 316 321 321 322 321 321 322 320 321 323 324 323 323 323 322 321 320 321 321 322 321 320 321 319 319
332 331 330 328 327 326 325 326 325 325 323 324 323 323 323 322 321 318 318 320 322 322 322 322 323 320 320 322 323 322 322 323 321 320 321 320 321 323 323 321 322 321 320
331 331 331 329 327 327 325 325 325 324 325 324 324 323 324 323 322 319 318 320 320 321 322 321 323 320 323 323 323 323 323 320 320 320 320 320 321 322 322 322 321 321 322
331 331 331 329 326 328 326 325 325 324 324 325 324 323 323 322 323 321 319 319 320 321 321 322 321 320 318 318 320 321 319 319 319 319 318 320 320 320 321 321 322 319 320
330 331 331 329 327 327 328 326 326 324 324 323 324 324 324 324 323 322 322 321 320 320 321 322 321 319 316 317 318 318 318 318 319 318 318 319 320 320 322 323 323 322 321
329 331 331 330 328 326 327 328 326 325 324 322 323 323 324 323 322 321 322 324 323 321 320 321 322 320 319 317 318 318 318 320 320 319 320 319 319 320 322 322 323 323 321
329 331 331 330 329 327 327 327 327 326 326 324 322 322 323 323 324 323 322 322 324 323 322 320 320 320 319 319 320 320 321 321 321 321 321 322 322 323 323 323 323 323 321
329 331 330 331 330 329 327 327 327 326 326 326 324 323 323 323 324 324 323 323 323 323 322 321 320 320 320 320 320 320 320 320 320 320 321 322 322 323 324 324 324 323 322
327 330 331 331 331 330 328 327 327 327 327 326 326 325 324 324 324 324 324 323 323 323 323 322 321 321 321 321 320 320 320 320 320 321 321 321 322 323 323 324 323 321 321
324 325 329 330 331 331 331 329 327 327 326 326 327 326 327 325 325 325 324 324 324 324 323 323 322 322 322 322 322 321 321 321 321 321 322 322 322 322 323 323 321 320 318
323 324 324 326 329 331 332 331 329 328 327 326 326 326 327 327 327 326 326 326 325 325 324 324 324 323 323 323 323 323 322 322 322 322 322 322 322 322 322 322 320 318 317
323 323 323 322 323 328 330 331 331 330 328 327 326 325 326 327 327 327 327 327 326 326 325 325 324 324 323 323 322 322 322 322 322 322 322 322 322 322 322 322 321 319 317
321 323 324 324 323 322 323 324 330 331 330 329 328 327 326 326 327 327 327 327 326 326 326 325 325 325 324 324 323 323 322 322 323 323 323 322 322 322 321 320 319 318 314
320 321 322 324 324 324 323 324 325 321 330 330 329 328 328 327 326 326 326 326 326 326 325 325 325 325 324 324 324 324 323 322 321 321 322 322 322 321 320 318 312 303 298
320 321 321 321 319 318 318 322 324 324 321 328 330 330 329 328 327 327 326 326 326 326 326 325 325 325 324 324 324 324 323 322 321 321 321 320 319 319 317 311 298 292 291
319 319 319 316 313 312 316 318 315 314 315 318 321 321 329 329 328 328 327 327 326 326 326 326 324 322 323 323 324 323 321 317 314 310 308 306 305 302 301 301 293 288 286
317 316 316 310 306 304 310 308 307 307 308 310 310 309 309 315 322 328 328 327 327 325 319 316 312 313 313 313 316 317 318 313 302 296 293 292 294 293 294 294 290 287 285
310 311 312 307 301 299 300 301 301 301 301 300 299 300 301 300 302 311 314 319 317 313 309 306 301 300 302 301 303 305 306 300 295 288 287 287 288 290 290 288 286 285 285
305 304 304 302 297 295 294 295 295 297 297 298 294 293 293 293 293 293 297 300 301 299 295 293 289 288 288 289 292 294 293 292 289 286 284 284 284 283 283 283 283 283 283
300 299 298 297 295 292 292 292 292 295 294 294 294 292 290 287 286 288 288 290 292 292 290 288 286 285 285 286 285 284 284 283 282 282 283 283 283 282 282 282 282 282 282
293 293 292 292 291 289 289 289 290 292 293 291 289 288 287 286 285 284 284 285 286 289 286 285 285 284 284 284 284 283 282 282 282 282 282 282 282 282 281 281 280 280 280
288 288 287 287 287 286 285 286 287 289 290 289 287 287 286 285 284 284 283 284 284 284 284 284 284 284 284 284 284 284 284 284 285 285 285 284 284 283 282 281 280 279 277

GFSMW_925_thetae_075.txt.gz
Theta_e
326 327 327 328 328 328 326 325 324 322 324 324 324 324 323 323 323 322 323 322 320 320 321 323 322 324 323 323 322 321 320 319 319 318 317 317 317 318 318 318 320 320 319
327 326 326 326 327 326 326 325 324 323 324 324 324 323 323 322 323 322 322 320 321 322 323 324 322 324 324 323 321 321 321 320 319 317 316 317 316 316 316 316 316 317 319
328 326 326 324 326 326 325 324 323 323 324 323 323 323 322 321 321 322 321 320 321 322 322 320 322 323 321 322 321 320 321 321 320 318 318 319 318 317 316 315 314 313 313
328 326 325 324 323 324 324 323 323 323 324 324 323 323 322 321 320 321 320 320 320 321 323 323 324 323 322 322 320 321 321 321 321 320 318 321 321 319 319 319 317 316 314
328 327 325 324 323 323 324 323 324 323 324 324 323 322 322 321 320 319 320 320 322 322 322 322 322 322 321 320 320 321 320 321 321 321 321 321 322 321 319 319 320 319 317
328 327 325 324 324 324 324 324 323 323 324 324 323 322 322 321 320 319 319 320 321 322 322 321 321 321 321 320 319 320 322 323 322 321 320 320 320 320 320 318 319 319 320
328 327 326 324 324 324 324 325 323 323 324 324 323 322 322 321 319 318 317 319 320 322 322 321 321 320 319 321 319 322 323 322 321 320 321 320 320 319 321 321 321 320 321
328 327 326 324 324 324 324 324 324 324 324 324 323 323 322 321 319 317 316 316 319 321 321 321 322 323 322 320 322 321 322 321 319 318 321 320 320 319 319 321 321 317 318
327 327 326 324 325 324 323 324 323 323 324 323 324 323 323 322 321 319 316 316 318 320 321 322 322 322 323 322 320 322 322 321 319 320 320 320 319 318 317 319 320 320 319
327 328 326 324 326 325 324 324 324 323 323 324 324 323 323 323 322 322 319 317 317 319 320 321 321 321 321 321 322 321 320 320 320 319 319 319 319 318 317 318 319 320 320
327 328 326 325 325 326 325 324 324 324 323 323 324 324 323 323 322 322 321 320 318 318 319 319 321 321 321 320 320 319 319 319 319 318 319 318 318 318 319 319 319 320 321
324 327 327 326 324 325 326 325 325 324 323 323 322 323 323 324 323 322 321 322 322 320 320 320 320 321 321 320 319 318 318 318 318 319 319 319 318 319 320 320 321 321 321
324 325 327 326 325 325 325 326 326 325 324 323 322 322 322 322 323 323 322 321 321 323 322 321 320 320 320 320 319 318 318 319 319 319 319 319 320 321 321 321 321 322 322
321 324 325 327 326 326 325 325 326 326 325 324 323 322 321 321 322 322 323 322 322 321 322 323 321 321 320 319 319 318 318 319 319 319 319 319 319 319 320 320 321 322 322
322 322 322 321 323 327 326 325 325 326 326 325 325 324 323 323 322 322 323 323 323 322 322 322 322 321 320 320 319 319 319 319 319 319 319 319 319 319 320 320 320 321 322
321 322 323 323 322 322 323 324 326 326 326 325 325 325 325 324 324 323 323 323 323 323 323 323 322 322 322 321 320 320 320 319 319 319 319 319 319 320 320 321 321 321 321
321 322 321 320 318 317 318 321 323 323 326 326 325 325 325 326 326 325 324 324 324 324 323 323 323 322 322 322 322 322 321 321 321 320 320 320 321 321 321 322 321 321 321
321 319 316 313 310 310 316 317 316 315 316 319 322 325 324 324 325 326 326 326 325 325 325 324 324 324 323 323 323 323 323 321 321 321 321 321 321 321 321 321 319 316 314
317 313 309 306 304 304 309 309 309 310 310 311 310 310 312 318 325 325 325 326 325 325 325 325 325 325 324 324 324 324 324 322 321 320 320 320 320 321 321 321 312 300 294
310 308 303 301 299 299 303 304 304 304 304 305 304 303 305 304 310 315 319 324 325 325 325 324 324 324 324 324 324 324 324 321 320 318 315 314 316 316 317 317 301 290 287
304 304 299 297 296 295 298 298 297 299 299 299 299 300 303 302 298 302 310 310 316 323 323 320 314 312 311 312 316 319 321 319 311 304 300 298 299 299 299 299 293 289 287
300 300 297 295 293 293 294 294 294 295 295 294 293 293 298 299 299 300 297 301 301 299 296 295 294 295 293 295 298 303 306 301 295 288 287 287 289 289 289 288 285 285 286
295 295 295 294 291 290 290 291 291 294 293 292 290 288 288 288 292 296 295 293 292 292 290 289 288 287 286 287 287 288 288 289 286 285 284 284 283 283 284 284 284 284 284
292 291 291 290 288 287 287 288 289 292 291 290 288 286 286 285 286 286 286 288 289 288 287 286 285 285 285 284 283 283 282 282 282 283 282 283 283 283 283 283 283 282 282
288 288 287 287 286 286 286 286 287 289 289 288 287 285 285 284 284 284 284 284 285 286 285 285 285 284 284 283 284 284 283 283 283 283 282 282 281 281 280 280 279 279 279
285 285 285 285 286 285 285 285 285 286 287 286 285 284 284 284 283 283 283 283 283 284 284 284 284 284 284 285 285 285 284 284 284 283 282 281 281 280 279 278 277 277 277

GFSMW_925_thetae_081.txt.gz
Theta_e
321 324 326 327 327 327 325 324 323 322 323 324 325 327 328 328 328 329 328 327 326 324 322 319 315 313 312 313 314 318 316 319 320 319 318 318 318 317 317 316 316 317 316
325 325 326 326 325 325 324 323 324 321 323 325 325 326 327 327 328 328 328 326 324 321 318 316 313 312 312 313 316 317 316 318 319 319 317 314 317 318 317 317 317 317 316
326 326 327 326 324 323 322 322 323 322 323 324 324 324 326 325 325 327 326 326 325 322 316 316 314 314 314 317 317 317 317 318 317 318 317 314 316 316 318 318 318 318 318
325 326 327 326 324 323 323 322 323 322 322 323 324 324 324 324 324 324 324 325 324 322 317 315 318 314 316 318 319 320 319 318 317 317 317 317 315 315 316 316 318 319 319
325 326 326 326 324 323 323 323 322 322 322 322 323 324 323 323 323 323 323 323 323 323 321 317 319 320 317 319 320 320 321 319 318 317 317 317 317 317 317 318 317 315 317
324 325 324 325 323 322 322 322 322 323 322 322 322 322 322 322 322 323 322 322 323 323 322 322 322 321 322 317 318 320 321 319 319 318 317 317 319 319 318 316 315 316 316
324 325 324 324 322 321 322 322 322 323 323 322 322 321 321 321 322 322 322 322 322 321 321 320 321 322 321 323 322 322 321 320 320 319 317 318 318 319 320 319 317 316 318
324 325 323 323 322 322 321 322 322 323 324 323 321 321 320 320 320 322 322 321 321 321 321 322 322 322 322 322 322 322 321 321 321 320 318 318 319 320 320 320 318 316 316
324 325 323 322 322 321 321 322 322 323 323 324 322 321 321 321 320 320 320 321 321 320 320 321 322 322 321 322 321 321 320 318 318 319 320 319 318 318 319 320 319 319 318
324 324 324 321 321 321 321 322 322 323 323 323 323 323 322 321 321 320 320 320 320 320 320 321 322 321 322 322 322 322 321 319 319 320 321 320 320 320 320 319 317 317 318
325 324 324 322 322 322 322 322 322 322 322 323 323 323 322 322 322 321 320 319 319 319 319 320 320 321 322 321 321 321 321 320 320 320 320 320 320 320 320 319 318 317 317
325 324 323 322 322 321 321 321 321 322 322 323 323 323 323 322 322 321 321 320 319 318 318 319 320 321 321 321 321 320 320 320 320 320 320 319 319 320 320 319 318 317 318
323 322 323 322 321 321 321 321 321 321 322 322 322 323 322 322 322 322 321 320 319 318 317 318 319 319 320 321 321 321 321 321 321 320 320 320 319 319 319 318 318 317 317
323 323 322 323 323 323 322 322 322 322 321 322 322 322 322 322 321 322 322 322 321 320 318 316 316 317 318 319 320 321 321 321 320 320 320 320 320 319 319 318 318 318 318
317 317 318 319 320 320 321 323 323 323 322 322 321 321 322 322 322 322 322 322 321 321 321 320 318 317 317 317 318 319 319 319 319 319 318 318 318 318 318 317 317 316 316
313 312 312 313 313 312 312 312 313 318 322 322 322 322 321 321 321 322 322 322 322 321 321 321 320 320 318 318 318 318 318 318 318 317 317 317 317 317 317 317 317 316 316
308 307 306 307 306 306 306 305 307 309 312 312 313 315 320 321 321 321 320 320 321 321 321 320 320 320 320 320 320 320 319 318 318 318 318 317 317 317 317 317 317 317 317
303 302 301 301 301 301 301 301 302 303 303 303 303 303 307 309 312 317 321 320 320 320 320 321 321 320 320 320 320 320 320 319 318 318 318 318 318 317 317 317 315 315 316
299 298 297 297 298 298 298 298 298 297 297 297 296 296 299 300 301 303 307 310 314 318 320 320 321 320 317 316 319 320 319 317 318 319 319 317 316 317 317 317 315 314 311
295 295 294 293 294 296 296 296 295 293 292 292 292 292 293 293 294 295 296 300 303 304 308 306 302 300 301 300 303 306 310 311 315 316 310 307 309 310 312 312 312 305 290
294 293 291 291 291 293 294 294 293 291 289 288 288 288 289 290 291 292 293 294 294 295 294 293 292 292 292 292 296 301 305 305 300 294 290 289 292 297 301 303 300 290 286
292 291 290 289 289 289 291 291 292 290 289 288 287 286 286 286 287 289 289 290 291 290 289 288 286 285 286 286 287 291 294 294 293 287 286 286 288 287 286 287 287 287 287
289 289 289 288 287 287 288 288 289 289 288 286 285 285 285 285 285 286 286 286 287 287 286 286 285 284 284 284 283 283 285 285 284 283 283 283 284 285 286 285 285 285 284
287 288 287 287 286 286 286 286 287 287 287 286 285 284 284 283 284 285 285 285 285 285 285 285 284 284 284 284 283 283 283 283 283 282 281 280 280 280 280 281 280 279 279
285 285 285 285 284 284 283 284 285 286 285 285 284 283 283 283 282 282 283 283 283 284 284 284 284 284 284 284 283 283 282 281 281 281 281 279 278 277 277 277 277 277 277
282 282 282 283 283 282 282 282 283 283 284 284 283 283 282 282 281 280 279 280 280 281 281 282 282 281 281 281 281 280 280 280 281 279 277 277 276 276 275 275 275 275 274

GFSMW_925_thetae_084.txt.gz
Theta_e
308 314 323 325 326 327 328 327 325 324 326 326 328 329 328 327 326 326 327 326 325 326 326 324 325 324 323 321 318 318 318 319 319 318 317 317 318 318 318 318 317 317 317
320 322 323 324 325 323 324 324 323 322 323 324 324 326 328 327 327 326 327 326 324 326 324 323 323 322 319 319 317 317 317 318 319 318 317 315 316 317 317 317 317 317 317
316 325 325 324 324 322 322 323 322 321 322 323 324 324 325 326 326 328 326 325 324 324 321 323 322 318 317 318 316 317 317 318 319 319 318 315 318 316 317 317 317 317 317
317 325 325 324 325 323 322 322 323 321 321 322 324 324 325 325 324 326 325 324 325 322 320 321 319 316 314 315 316 317 316 319 317 318 317 319 317 317 315 317 318 317 317
319 325 325 324 325 323 322 321 323 321 322 323 323 324 324 324 325 325 325 324 323 321 317 317 315 314 313 314 315 317 316 318 318 318 317 316 315 316 315 316 315 317 318
321 324 323 325 324 322 320 321 321 321 321 322 322 324 324 324 324 323 323 323 322 321 319 316 313 313 314 316 314 316 318 316 318 318 318 317 317 317 317 315 315 315 315
321 324 324 325 323 321 320 320 321 320 321 322 321 322 323 323 323 323 322 323 323 322 321 317 315 315 316 315 315 317 318 319 318 318 317 318 318 317 316 318 317 316 317
321 324 324 324 323 322 320 320 319 320 321 321 321 321 321 322 323 322 322 322 322 322 322 321 319 316 318 317 318 319 320 320 320 319 318 317 317 317 317 318 318 316 316
319 324 323 324 322 321 321 320 320 321 320 322 320 320 320 319 320 322 322 322 323 323 323 322 321 321 319 315 320 320 318 319 320 320 319 320 318 317 317 318 319 319 318
317 323 323 323 322 321 321 320 321 322 322 322 322 320 320 319 319 319 321 322 322 322 322 322 322 320 320 320 316 320 321 320 321 321 320 321 320 319 318 319 319 319 319
323 324 322 321 322 321 320 320 321 322 322 322 322 321 320 321 320 320 320 320 320 321 321 321 321 321 321 321 321 321 320 321 321 320 320 319 318 318 319 319 318 319 319
324 323 321 321 320 320 319 319 321 322 322 322 323 322 322 321 321 320 321 320 320 320 320 320 320 321 321 321 321 321 321 321 320 320 319 319 318 318 319 319 319 318 318
323 322 322 321 321 320 319 319 321 321 321 322 322 321 322 322 322 321 321 320 319 319 319 319 319 320 320 321 321 321 321 321 321 321 320 320 319 319 318 319 318 318 318
323 323 322 321 321 321 320 320 321 321 321 322 322 322 321 321 321 321 321 321 320 319 317 317 318 318 319 319 320 320 320 320 320 320 320 320 319 319 319 318 318 318 317
316 317 318 319 319 320 321 321 321 321 321 321 322 322 322 322 321 321 321 321 321 320 320 318 317 317 317 318 318 319 319 320 320 320 320 320 320 320 320 319 318 317 317
310 310 310 311 311 311 311 311 312 318 321 321 321 320 321 321 322 322 321 321 321 321 320 320 320 319 318 318 317 317 317 318 318 318 318 318 318 318 318 318 318 318 317
305 305 305 305 303 303 303 304 305 308 310 310 309 312 317 320 320 320 321 321 321 322 321 321 321 321 320 319 319 319 319 317 317 318 318 317 317 317 317 317 317 317 317
300 299 300 299 299 299 299 299 299 299 299 299 299 302 304 306 309 313 314 317 318 319 320 321 321 320 317 318 319 320 319 317 318 317 317 317 317 317 317 316 315 315 315
296 295 295 296 296 297 295 294 293 293 294 294 294 295 296 298 300 301 302 304 306 309 310 308 311 311 305 303 310 313 314 315 316 316 314 313 313 313 313 314 312 312 300
293 292 292 291 293 295 294 292 291 290 289 290 290 290 292 292 293 293 295 296 297 296 295 294 294 293 294 298 301 304 306 307 306 303 299 296 296 297 300 303 304 300 291
292 291 290 289 289 292 293 291 289 288 287 287 287 288 289 290 290 291 292 292 291 291 290 289 288 288 288 290 294 297 298 295 292 289 287 286 287 288 293 294 296 291 289
290 290 289 288 287 288 290 290 289 288 287 286 285 286 286 286 288 289 289 289 289 288 287 286 285 285 285 285 286 288 289 289 286 283 283 282 282 283 284 284 284 284 284
288 288 287 286 286 286 286 288 288 287 286 285 284 284 285 285 285 285 286 286 286 286 286 285 284 284 284 283 283 282 284 283 282 281 280 281 282 283 283 284 284 283 280
286 286 285 285 284 283 284 285 286 286 285 284 283 283 282 283 283 283 284 284 285 285 285 285 284 284 283 283 283 283 282 282 282 282 281 280 280 280 280 280 280 279 279
283 283 283 283 283 282 282 283 284 285 284 284 283 282 281 281 281 281 282 282 282 283 282 282 282 282 282 282 282 282 282 281 281 281 281 279 278 277 276 276 276 276 276
281 281 281 281 281 281 281 281 282 282 282 282 282 281 280 280 279 279 279 279 280 280 280 280 280 281 280 281 280 279 281 281 282 280 276 275 275 274 274 274 273 273 273

GFSMW_925_thetae_087.txt.gz
Theta_e
317 315 313 319 325 327 328 328 328 329 328 328 328 328 327 326 326 326 326 325 326 327 328 327 327 325 323 321 319 320 320 321 320 320 319 319 319 319 319 319 319 319 319
316 316 320 323 324 326 327 327 327 327 327 327 328 328 328 327 326 326 325 325 325 327 327 326 325 323 323 320 318 319 320 320 320 321 320 320 319 319 319 319 319 319 319
317 317 323 324 325 325 326 325 326 325 324 325 325 326 326 327 327 326 327 326 326 326 326 326 324 322 321 320 318 318 320 319 319 320 322 323 324 320 319 319 318 318 318
316 317 322 325 325 325 324 325 324 325 324 324 324 324 325 326 326 326 326 326 326 325 325 324 323 321 320 320 319 317 319 320 320 320 318 321 322 324 323 318 318 318 318
318 318 323 325 325 324 322 323 323 322 322 322 323 324 324 325 325 326 325 323 323 320 320 322 321 320 319 319 319 317 318 319 320 320 319 319 319 320 321 323 319 318 318
317 319 325 326 326 323 322 321 321 322 321 321 322 323 324 324 325 324 322 320 320 320 321 322 321 318 317 318 318 317 317 318 320 320 319 320 319 319 320 321 320 321 319
318 326 327 327 326 323 322 321 321 322 322 321 322 323 324 324 324 324 323 321 319 320 319 318 317 316 316 315 316 317 316 317 319 319 319 319 319 318 319 320 320 320 318
323 324 327 327 326 323 321 322 322 322 321 321 321 322 323 323 324 323 323 323 321 319 319 317 315 314 313 312 314 314 316 317 317 318 318 319 318 318 317 317 320 322 321
324 322 326 327 325 323 321 321 321 321 321 320 321 321 321 322 322 323 323 322 322 322 322 319 317 316 314 310 309 317 316 315 316 317 317 317 317 317 318 318 319 319 323
325 321 324 326 324 324 321 321 320 321 320 320 320 320 320 320 321 322 322 322 322 322 321 321 321 319 317 313 311 315 316 315 313 318 319 319 318 317 317 318 319 319 319
325 325 325 325 324 322 321 320 320 320 320 321 321 320 319 319 319 320 320 322 322 322 321 321 321 320 319 316 315 314 317 320 319 318 319 320 320 320 320 320 320 319 319
325 325 322 322 322 321 320 320 320 320 320 320 322 321 320 321 320 320 320 320 321 321 322 322 322 321 321 320 319 316 316 318 320 320 319 319 318 318 320 319 319 318 318
323 323 322 321 321 320 320 320 320 322 322 321 322 321 321 321 321 321 321 320 320 320 320 320 321 320 320 320 321 321 319 318 318 320 320 320 320 319 319 319 319 318 318
313 319 321 321 321 320 320 320 322 322 322 323 323 322 321 320 320 321 321 321 320 320 319 320 321 321 321 321 320 321 320 320 321 321 321 321 320 320 320 319 318 318 318
308 310 312 315 318 320 320 320 321 322 322 322 322 322 322 322 322 321 321 320 319 318 319 319 319 320 320 320 321 320 320 320 320 320 320 321 321 320 320 320 320 320 319
304 304 304 306 307 309 310 310 314 322 321 321 321 321 321 322 322 321 321 321 320 319 318 318 318 318 318 318 318 318 319 319 319 320 320 320 319 319 319 320 320 320 320
300 300 300 300 301 301 302 304 304 306 306 306 307 311 316 316 317 320 321 321 321 321 320 320 319 318 316 316 316 317 317 318 318 318 318 318 318 318 318 318 318 317 317
296 296 296 297 296 296 296 296 297 298 298 298 298 300 302 304 306 310 311 313 315 316 316 314 316 313 306 308 314 317 317 316 315 316 315 316 316 315 315 315 314 313 311
293 292 292 294 295 293 292 292 292 293 292 292 293 294 296 297 297 297 299 301 304 302 301 299 299 298 298 301 304 308 311 310 308 305 304 304 305 305 304 307 306 305 298
291 291 290 290 292 293 291 290 290 290 289 289 290 291 291 292 292 293 292 292 294 293 293 291 292 291 292 295 300 304 305 302 295 292 290 290 293 297 300 302 301 294 290
290 289 288 288 288 291 291 290 289 288 288 288 288 288 289 289 289 290 290 290 289 289 288 288 287 286 287 288 293 296 296 291 287 285 284 284 285 288 291 293 291 287 286
288 287 287 286 286 287 289 289 288 287 287 286 286 287 287 287 288 288 288 288 287 287 286 286 285 284 283 283 284 286 287 287 285 283 282 281 281 283 284 284 284 285 285
286 286 285 285 284 284 285 287 286 286 285 285 285 285 285 285 286 286 287 287 287 286 286 286 285 285 283 282 281 281 282 282 281 281 280 281 282 284 283 284 284 283 281
284 284 284 283 283 283 283 284 285 285 285 284 284 284 284 284 284 284 284 284 285 285 285 285 285 284 284 283 282 281 281 281 280 281 281 281 280 279 279 279 279 278 279
282 282 282 282 282 282 282 282 283 284 284 283 283 282 282 282 282 281 282 282 282 283 283 282 283 283 282 281 281 281 281 280 280 280 280 280 280 279 278 277 277 277 277
280 280 280 280 280 280 280 280 281 282 283 282 282 281 281 280 280 280 279 278 279 280 280 280 280 280 280 280 279 278 280 281 280 279 278 277 277 277 276 276 275 274 274

GFSMW_925_thetae_090.txt.gz
Theta_e
319 319 319 319 320 324 329 332 336 334 334 333 333 333 330 329 327 327 328 328 327 328 328 328 327 326 325 324 325 325 325 325 324 323 323 323 322 322 320 319 320 320 320
317 319 319 319 324 325 329 331 334 332 334 334 334 331 329 329 327 327 327 327 326 327 327 327 326 325 324 324 325 325 325 325 324 323 323 323 322 322 321 320 320 320 320
318 318 319 319 324 327 329 331 333 332 334 333 332 331 329 328 327 327 326 326 326 327 328 326 326 324 323 324 324 325 325 324 323 323 323 325 325 323 322 321 320 320 320
319 318 318 320 324 327 329 330 332 333 332 331 331 330 329 328 328 327 326 326 326 326 327 326 325 324 324 323 324 325 325 324 324 324 323 322 321 325 325 322 321 320 320
320 320 319 320 322 327 329 330 332 331 330 330 329 328 327 327 329 328 327 326 326 325 326 325 325 324 324 324 323 324 324 324 324 324 324 324 325 323 323 324 322 322 321
325 321 320 320 325 328 327 328 331 331 330 329 327 327 327 326 327 326 325 325 325 325 325 325 325 324 323 323 323 323 324 324 323 323 323 323 323 324 323 322 322 323 322
327 326 325 327 327 328 324 327 330 329 328 327 326 326 326 327 327 324 323 320 320 321 322 322 322 322 322 323 323 321 323 323 324 323 324 323 323 322 322 321 319 321 321
328 327 326 328 329 326 323 325 327 328 326 325 325 325 326 326 326 324 322 320 320 319 319 319 320 319 320 321 321 321 321 321 322 322 322 323 323 322 322 321 319 321 320
329 328 326 328 329 327 323 324 327 328 326 324 324 325 325 325 325 323 323 320 320 319 318 318 318 318 319 320 320 320 319 319 320 321 321 322 322 321 322 321 319 319 322
329 329 324 327 329 327 323 324 327 327 324 324 323 324 324 324 325 324 323 322 320 319 319 319 317 317 315 314 315 314 315 317 318 319 320 316 320 321 322 321 321 321 321
326 328 327 326 328 326 323 323 325 324 323 323 322 323 322 323 323 323 322 322 322 320 320 320 319 314 313 314 315 312 314 317 318 317 319 319 319 319 319 319 317 319 320
318 324 324 326 325 323 323 322 323 322 323 322 322 322 321 322 322 322 322 322 322 322 322 322 319 318 318 319 317 314 313 315 318 318 318 317 316 316 319 320 320 319 319
313 313 322 323 323 322 322 322 322 322 323 322 322 322 322 322 323 323 323 324 323 322 321 321 321 320 319 319 319 316 314 312 315 318 320 319 319 319 319 319 318 318 319
308 309 309 317 322 322 321 321 322 322 322 322 323 323 323 323 323 323 322 322 323 323 323 322 321 321 320 320 319 318 317 316 316 316 317 318 319 319 319 319 320 320 320
305 305 304 306 309 320 321 321 323 323 324 324 322 322 322 322 322 322 322 321 320 322 323 323 323 323 322 321 320 320 320 319 321 321 319 319 319 320 320 321 321 321 322
301 300 301 301 302 304 311 312 320 323 323 323 322 323 323 323 323 322 322 322 321 320 320 321 323 323 323 322 322 323 323 322 322 322 322 321 321 320 321 322 321 321 321
298 297 298 297 297 298 301 303 304 307 307 307 308 313 316 318 319 322 323 323 323 322 321 320 320 317 316 318 319 319 321 321 321 320 320 320 320 320 320 319 319 319 319
295 294 294 295 294 294 295 296 297 298 298 298 299 301 303 305 307 310 310 312 315 315 313 312 311 308 305 308 314 316 316 315 313 312 313 313 313 314 316 315 312 310 308
293 291 290 291 293 292 292 292 292 292 292 293 294 295 296 297 297 297 298 298 299 297 296 296 298 298 299 303 306 310 310 307 302 300 300 301 301 302 303 305 304 299 293
290 289 289 288 290 291 291 290 290 290 290 290 291 291 292 292 292 292 291 291 292 289 290 289 289 289 292 297 302 303 302 296 292 291 291 291 292 296 299 300 298 290 287
288 287 287 287 287 289 289 289 289 289 288 289 289 290 290 290 290 289 289 289 288 288 287 286 286 286 287 289 294 295 293 290 287 285 284 284 286 289 292 293 291 287 286
287 286 285 285 285 287 288 288 287 287 288 288 288 288 289 290 290 289 289 288 288 287 287 286 285 284 284 284 285 288 287 286 285 284 283 282 282 282 283 285 284 285 284
286 286 285 284 284 284 286 286 286 287 287 287 287 288 288 288 288 289 289 289 289 289 288 288 288 287 286 284 281 281 282 283 283 282 281 281 282 282 282 282 283 284 284
285 285 285 284 284 283 284 285 286 286 285 285 286 285 284 285 286 285 285 286 287 288 287 287 286 286 285 285 284 284 283 283 282 282 281 281 281 281 281 282 282 281 282
283 283 283 283 282 282 282 282 284 285 285 285 284 284 284 283 282 281 282 282 281 283 284 284 284 284 283 281 281 283 283 282 282 283 283 283 283 283 282 281 280 280 280
281 281 281 281 281 281 281 281 282 284 285 284 284 283 283 283 282 281 279 278 279 279 279 280 281 280 279 279 279 279 279 280 282 283 282 281 281 281 280 280 278 277 276

GFSMW_925_thetae_093.txt.gz
Theta_e
318 318 319 320 320 320 323 329 333 343 339 337 335 335 336 334 333 331 330 332 331 329 329 329 329 328 328 327 327 326 326 326 327 325 324 324 323 322 320 321 321 321 323
318 318 318 320 320 321 322 328 332 338 338 336 336 337 335 334 332 331 329 329 330 329 329 328 328 328 327 326 325 326 326 325 326 325 324 325 323 323 322 320 320 321 321
319 319 319 319 320 321 324 328 331 336 337 337 337 336 335 331 330 329 329 328 328 328 328 327 328 327 326 326 325 326 325 325 325 324 323 326 325 324 322 322 320 321 321
324 323 320 320 319 321 325 328 331 336 335 336 336 336 332 331 331 330 329 327 327 327 327 328 328 325 325 325 325 325 325 325 325 324 324 322 321 326 325 322 321 321 321
325 325 322 321 319 320 325 329 331 334 335 337 335 335 334 333 331 329 330 327 327 327 327 328 326 326 325 325 325 325 325 325 325 325 324 324 323 323 325 325 323 321 321
327 326 324 321 319 320 328 331 332 333 334 335 335 334 333 332 329 330 330 329 327 327 327 327 325 325 324 324 325 324 324 325 325 325 324 324 324 324 324 324 324 324 322
328 327 326 323 322 323 330 332 332 333 334 334 334 333 332 330 329 329 330 327 326 326 326 325 325 325 324 324 324 325 325 326 326 326 325 324 324 323 322 321 323 324 322
329 329 328 328 327 328 332 329 332 332 333 333 333 331 330 328 329 330 327 324 323 323 325 325 324 324 324 324 324 324 325 325 325 325 324 324 324 324 322 321 321 322 320
326 331 329 328 330 331 327 327 331 332 332 332 331 329 328 327 329 327 323 323 321 321 322 324 324 324 324 323 324 324 324 324 324 324 324 324 323 323 324 323 321 322 322
324 325 330 328 330 329 325 326 330 331 330 329 329 327 327 327 327 325 322 321 320 319 320 320 320 322 323 323 323 322 323 323 324 324 324 322 323 322 323 323 322 322 322
319 318 325 329 330 329 325 325 328 330 329 328 326 326 325 325 326 326 323 321 320 319 319 319 319 321 322 322 322 322 322 322 321 321 321 322 322 322 322 321 321 321 321
314 313 314 325 328 327 325 324 328 328 326 326 325 324 325 325 324 324 323 321 319 319 319 319 319 318 319 319 319 319 319 318 316 317 319 320 320 319 318 322 320 320 321
312 308 309 311 322 324 324 324 325 324 325 324 324 325 324 324 323 323 322 322 321 319 319 320 318 316 315 315 314 314 315 315 314 315 317 316 319 320 320 320 317 316 319
307 305 305 306 308 316 323 323 323 324 324 323 323 324 325 325 324 325 325 323 322 322 321 320 320 318 317 316 317 317 317 316 315 316 316 317 320 319 319 319 316 317 319
304 301 302 302 302 304 307 322 323 323 323 323 323 324 324 325 325 325 324 324 325 323 322 322 321 321 320 320 319 319 318 317 315 314 317 317 320 320 320 319 319 319 319
302 299 298 298 299 299 301 305 313 322 324 324 323 323 324 323 324 324 323 323 323 323 324 324 324 323 318 320 320 320 319 319 320 319 319 319 318 317 317 317 318 320 321
299 296 295 295 295 295 296 298 302 307 309 308 309 314 316 317 318 321 321 321 321 321 321 320 316 314 313 317 320 321 321 322 321 320 321 322 322 322 321 320 320 319 317
294 293 292 293 292 293 293 294 296 298 299 299 300 302 304 306 307 307 306 309 311 310 309 308 308 308 309 316 319 320 317 316 315 314 313 314 314 314 316 313 310 305 303
291 290 289 289 290 291 290 292 292 293 293 294 295 295 297 297 297 296 296 296 300 299 296 296 297 299 301 305 309 313 312 307 302 300 300 302 302 303 304 304 301 295 292
288 287 288 288 289 289 289 290 290 290 290 291 291 292 292 292 291 291 290 291 291 290 290 290 290 290 292 296 301 303 301 296 292 291 291 291 295 298 300 298 295 289 287
287 286 286 286 287 288 288 288 288 288 288 289 290 290 290 290 289 289 289 289 288 288 287 286 286 286 287 288 292 294 294 291 289 287 286 286 288 291 292 293 290 287 286
287 286 285 285 285 286 287 287 287 287 287 288 288 288 289 290 290 290 289 289 289 288 288 287 286 285 284 284 286 287 287 287 285 284 283 283 283 284 285 285 285 285 286
287 286 285 284 284 284 286 287 286 287 286 285 285 286 287 286 286 287 289 289 289 289 288 288 287 287 286 285 283 283 284 284 283 283 283 283 283 283 283 284 285 285 285
285 285 284 284 284 283 283 285 286 286 285 286 284 283 282 283 284 283 283 284 286 286 287 287 287 285 283 284 285 285 284 284 283 283 284 283 283 283 283 283 283 282 282
284 284 284 283 283 283 283 283 285 286 285 285 285 284 283 281 280 280 281 281 281 282 283 282 283 283 281 281 282 284 284 284 284 284 284 284 284 284 283 282 281 281 281
283 283 283 282 282 282 282 283 282 284 284 284 284 285 284 283 281 279 277 278 279 279 279 280 280 279 279 280 280 281 282 283 283 283 283 282 282 282 282 281 280 279 278

GFSMW_925_thetae_096.txt.gz
Theta_e
317 317 320 320 320 321 320 324 340 345 343 342 340 339 338 337 336 337 337 335 333 332 331 331 330 330 329 329 328 327 327 327 325 326 324 323 321 321 322 323 322 322 321
316 317 317 320 321 321 321 326 335 345 342 340 339 337 336 336 335 333 334 334 333 331 330 331 330 329 329 328 328 327 326 326 326 325 323 323 323 322 320 323 323 321 321
318 319 320 320 320 323 322 325 330 344 342 340 337 336 335 335 335 334 332 331 331 329 328 330 330 329 328 327 327 327 325 326 325 325 323 323 323 322 323 321 320 322 323
325 325 324 323 321 324 323 323 327 332 342 338 337 337 338 335 333 332 331 329 328 328 328 329 329 329 328 327 327 327 325 325 325 325 323 321 322 321 322 323 321 321 321
326 327 326 325 322 321 325 324 326 330 341 338 337 337 337 333 331 331 330 329 328 329 329 328 328 328 327 327 326 326 325 325 325 325 324 321 323 322 321 321 322 322 321
327 327 327 325 323 320 324 327 329 332 339 338 337 339 335 334 333 331 332 330 328 327 326 327 328 327 327 326 326 326 325 324 324 324 324 322 324 323 322 321 320 322 322
328 329 327 327 324 322 324 331 331 333 337 336 337 338 335 333 334 331 330 331 328 327 327 326 327 326 326 325 326 325 325 325 324 325 324 324 323 324 324 324 322 322 322
325 326 326 330 328 326 333 332 332 333 337 336 337 336 334 333 332 329 330 330 328 326 326 327 326 326 325 325 325 325 325 324 324 324 324 325 323 324 324 323 322 321 321
322 322 323 327 329 334 334 332 332 332 335 335 334 333 333 330 328 329 329 326 324 325 326 326 326 325 325 325 325 325 324 323 324 324 324 324 324 324 323 323 322 322 321
319 317 319 319 328 330 329 329 331 333 334 333 333 331 329 328 328 328 325 324 322 323 322 323 324 325 325 324 324 325 324 323 324 323 324 324 324 323 323 324 324 323 322
315 312 311 313 316 328 326 326 329 330 331 331 330 328 327 327 327 326 323 323 322 321 320 321 323 324 324 324 324 325 324 324 324 324 324 324 323 322 320 316 321 322 321
311 308 306 306 307 313 326 325 326 328 329 329 327 326 326 326 327 325 322 322 321 320 319 320 321 322 324 324 324 324 324 324 324 323 323 324 323 322 322 322 321 321 321
308 305 303 303 303 304 310 325 325 326 326 326 325 325 325 325 325 324 323 322 320 319 319 319 320 321 321 321 322 323 323 323 323 323 322 322 321 321 320 321 320 321 320
305 302 301 300 299 300 302 306 323 324 324 324 324 325 324 324 323 323 323 322 320 319 319 319 319 320 321 320 320 320 322 322 321 319 318 318 317 319 320 321 320 320 319
302 300 298 298 297 297 297 300 304 322 323 323 323 324 325 324 324 325 323 323 321 320 319 319 319 319 318 317 316 316 316 315 316 317 317 316 318 318 318 320 320 320 319
296 296 295 295 295 294 295 296 298 304 323 322 323 324 324 326 325 325 325 324 323 322 322 320 320 319 316 317 316 317 316 317 318 317 315 316 317 316 319 319 320 320 319
293 293 292 292 292 292 292 293 294 298 304 310 312 317 317 320 320 322 322 322 318 318 315 314 314 309 309 314 318 318 318 318 317 317 317 317 318 318 318 318 319 318 317
291 290 290 290 290 290 290 291 292 293 295 297 300 303 306 307 308 311 309 311 311 308 306 304 304 305 304 310 314 317 317 313 310 310 311 310 309 309 311 313 309 304 302
289 288 287 288 289 289 289 289 289 290 291 292 292 294 297 297 298 298 297 297 298 296 293 294 295 297 298 304 308 312 310 304 298 297 299 300 302 302 303 304 300 294 292
287 287 286 286 287 288 288 288 288 288 289 289 291 290 291 291 291 291 291 291 292 289 289 289 289 290 292 295 299 301 298 294 291 291 292 294 297 299 299 299 296 290 288
287 286 285 285 285 287 287 287 287 286 287 288 288 288 290 289 289 289 289 289 288 288 287 286 286 286 287 289 292 293 291 289 287 286 286 287 291 292 292 292 292 289 287
286 285 285 284 284 285 287 286 286 285 285 285 286 286 286 286 288 289 289 289 288 288 287 287 285 285 285 286 287 287 287 287 285 284 284 284 286 286 286 286 286 286 286
285 285 284 284 283 284 285 286 286 286 285 283 283 283 284 285 285 285 286 287 288 288 287 286 285 284 285 284 284 285 285 284 284 284 284 284 284 284 285 285 285 285 285
285 284 284 283 283 283 283 285 285 285 286 284 283 281 281 281 282 281 282 282 284 283 285 284 283 282 283 285 285 285 284 284 284 284 284 283 283 282 282 282 282 282 283
284 283 283 283 282 282 283 283 284 285 285 285 284 282 281 279 279 280 280 280 281 282 281 281 281 281 282 283 284 284 284 284 284 284 284 283 283 283 281 280 279 279 280
282 282 282 281 281 281 281 282 283 283 285 284 284 283 284 281 280 278 278 278 278 279 279 280 280 280 281 282 282 283 283 283 283 282 282 282 281 281 280 279 278 277 277

GFSMW_925_thetae_099.txt.gz
Theta_e
313 314 315 317 318 319 319 319 343 344 344 343 342 340 339 339 339 337 337 337 337 337 336 334 333 332 331 330 329 328 328 328 327 326 326 325 324 322 322 322 321 321 321
310 311 313 314 316 319 320 321 344 344 343 343 341 340 339 338 337 338 336 335 334 334 333 332 331 331 330 329 328 327 327 327 326 324 324 324 322 321 322 323 322 321 321
309 310 312 313 314 319 320 330 344 343 342 341 339 338 338 337 336 336 337 336 334 332 331 331 330 330 330 329 328 328 327 327 326 325 323 322 323 321 322 322 322 321 321
311 317 321 321 320 319 320 331 344 343 341 340 338 338 336 335 335 335 334 334 333 332 331 330 330 330 330 329 328 327 327 326 325 325 324 322 321 321 322 322 322 322 321
323 324 323 322 324 323 322 332 343 342 340 339 338 336 335 334 334 334 333 332 331 331 330 330 329 328 329 328 327 327 326 326 325 325 324 323 321 320 320 320 321 321 321
323 323 323 323 324 324 321 324 341 342 340 339 337 336 335 335 332 332 331 331 329 328 328 327 327 328 328 328 327 326 326 326 325 325 324 322 321 320 320 319 320 320 321
321 320 320 320 321 322 322 324 328 340 339 337 336 336 335 335 333 332 330 329 329 328 328 327 328 328 327 327 327 326 326 325 325 324 324 322 321 321 320 320 320 319 321
318 316 316 317 317 325 324 327 335 338 337 337 337 337 336 335 333 332 331 330 328 327 328 327 325 326 327 327 327 326 326 325 325 324 324 323 323 321 321 321 320 320 320
313 312 311 312 312 325 326 329 331 335 337 337 337 336 336 335 333 332 331 330 329 328 327 326 326 326 327 326 326 326 326 325 324 324 324 324 321 324 322 322 322 321 321
309 307 307 308 308 310 321 326 329 330 334 335 335 336 335 332 330 329 329 328 327 326 324 324 325 325 326 325 325 325 325 325 324 324 324 323 323 323 324 323 323 322 320
305 304 303 304 304 305 307 314 326 327 331 333 332 331 329 328 328 328 327 325 324 323 323 323 324 325 325 325 325 325 325 325 324 324 323 323 323 323 323 323 323 323 321
302 301 300 300 300 300 301 304 310 326 328 328 329 328 327 327 327 326 324 322 322 321 321 320 320 322 324 324 324 325 324 324 323 324 324 323 323 323 322 321 317 320 321
300 298 297 298 297 298 298 300 302 307 326 327 327 326 326 326 326 325 323 320 321 320 320 320 320 321 324 324 324 324 324 323 323 323 323 323 322 322 322 321 321 320 319
297 296 295 295 294 295 296 297 298 301 311 325 325 325 325 325 325 324 322 321 321 320 319 319 319 320 321 323 323 323 323 323 323 323 323 322 323 323 322 322 321 321 318
294 294 293 293 292 293 293 295 296 298 304 322 324 325 324 324 323 323 322 322 320 320 319 319 319 319 319 319 321 321 322 321 322 323 323 322 321 321 321 320 320 319 320
292 291 291 291 291 291 292 293 294 295 298 304 318 323 325 324 323 323 323 322 321 319 319 319 319 317 318 318 319 320 321 322 321 320 318 317 319 318 317 316 318 320 319
290 289 289 290 289 290 290 291 292 292 293 295 298 308 317 319 319 319 319 315 313 315 314 313 314 314 313 316 316 317 318 318 317 316 316 316 316 317 316 317 318 319 319
288 288 287 287 288 288 289 290 290 291 290 291 292 295 303 303 304 306 306 305 305 303 302 301 302 305 307 311 315 315 315 313 310 311 312 313 312 313 314 313 312 308 307
287 286 286 286 287 287 287 287 288 289 289 288 290 290 291 294 295 293 292 293 294 294 293 294 296 298 299 302 307 313 307 302 299 299 301 303 304 304 306 306 300 295 292
286 285 284 285 285 287 287 286 285 285 287 287 287 288 290 289 289 289 289 288 288 287 288 288 289 290 293 296 299 303 298 294 292 292 294 298 299 298 299 300 295 289 287
284 284 284 284 284 286 286 286 285 284 283 284 286 287 287 288 289 289 288 288 287 286 285 285 286 286 288 289 292 293 291 288 287 286 287 289 292 293 293 294 292 288 287
284 283 283 283 284 284 286 286 286 284 283 282 282 283 284 285 286 287 287 287 287 286 285 285 285 284 285 285 287 288 288 286 285 285 285 286 287 287 288 288 287 287 287
284 283 282 282 283 283 284 285 285 284 283 282 281 281 282 282 282 283 285 285 285 284 284 283 284 284 284 284 284 285 285 285 284 284 284 284 285 286 285 286 285 285 284
283 282 282 281 282 282 283 283 285 284 284 283 281 280 280 280 281 281 281 282 282 282 283 282 283 284 284 285 285 285 284 284 283 283 282 282 282 282 282 283 283 283 283
282 281 281 280 280 281 281 282 283 284 284 284 283 281 280 279 279 279 280 280 281 281 281 281 282 283 284 284 285 285 284 284 283 283 282 281 280 279 279 279 279 280 280
280 279 279 279 279 279 280 281 282 282 282 283 283 283 282 280 279 278 278 279 279 280 280 281 281 282 283 283 283 283 283 282 282 281 279 279 278 278 277 276 276 277 277

GFSMW_925_thetae_102.txt.gz
Theta_e
309 311 313 315 316 316 316 317 331 338 343 343 342 340 340 342 342 342 341 340 340 339 338 337 335 334 331 331 330 329 328 327 327 327 326 326 326 326 325 326 325 323 321
306 306 309 311 314 316 316 316 328 335 342 342 342 340 340 340 340 341 341 339 339 338 337 336 334 334 332 331 330 329 328 328 328 327 325 325 323 324 323 324 324 323 321
306 307 307 308 310 312 315 316 324 337 340 342 341 340 339 338 338 338 338 338 338 336 335 335 334 332 331 330 329 329 328 327 327 327 324 324 324 321 322 322 322 322 321
309 312 319 320 322 320 315 316 327 338 341 342 340 339 338 337 337 337 336 335 335 333 334 335 333 331 330 330 329 329 327 327 326 325 324 322 321 323 322 321 321 321 321
321 321 319 320 321 322 323 323 332 340 341 341 339 338 337 336 336 335 335 336 335 335 334 333 332 331 330 330 329 328 327 327 326 325 324 323 321 322 322 323 320 320 320
316 316 316 316 316 321 326 330 341 341 340 339 338 337 336 335 334 334 333 333 334 334 333 332 331 330 330 329 328 328 328 327 326 325 324 323 321 320 321 320 321 321 320
312 311 312 312 312 313 322 322 341 340 339 338 337 337 336 334 334 332 332 331 331 331 331 332 331 330 329 329 328 327 327 326 326 325 325 323 321 320 320 320 320 320 319
308 308 309 309 309 309 311 323 335 340 338 337 336 335 335 333 333 332 332 331 330 330 329 328 328 328 327 327 327 327 326 326 325 325 325 323 322 320 320 320 320 318 318
304 304 304 304 305 305 306 310 323 331 336 335 334 334 334 334 332 332 332 330 330 329 327 327 327 327 327 327 327 326 326 326 325 325 325 324 322 320 320 320 320 319 320
300 300 301 300 301 301 303 305 309 316 330 334 335 335 335 334 333 332 331 331 330 329 327 326 327 327 326 326 326 326 326 326 325 325 324 324 322 321 320 320 320 319 319
298 297 297 297 298 298 299 301 304 307 314 331 333 334 334 334 333 331 330 330 329 328 327 325 325 325 326 326 326 326 326 326 325 325 324 324 323 322 322 322 321 320 320
295 294 295 295 295 295 296 298 300 302 306 320 327 330 330 329 328 328 327 326 324 323 322 323 323 323 324 325 325 325 325 325 325 324 324 324 323 321 322 323 323 322 321
294 292 292 293 293 293 294 295 297 299 303 314 326 327 327 327 326 324 323 323 322 321 321 321 320 320 320 321 322 324 325 325 325 324 324 324 323 322 322 322 322 322 320
292 291 291 292 291 292 292 293 295 296 299 305 325 326 326 326 325 324 323 322 321 321 320 319 318 320 320 321 323 324 324 324 324 324 324 323 323 322 322 322 319 319 320
291 291 290 290 290 291 291 292 293 294 296 299 307 315 325 325 325 323 322 321 321 320 319 319 319 318 318 319 320 324 324 324 323 323 323 323 322 322 322 321 321 321 320
290 289 289 289 289 289 289 291 291 292 294 294 295 301 313 323 323 323 322 321 320 319 319 319 318 318 318 318 318 320 322 323 322 321 322 322 322 321 321 321 320 319 318
288 287 287 288 288 288 288 288 289 290 291 292 292 294 297 302 310 315 317 313 312 313 313 311 311 312 314 317 318 319 318 316 318 319 318 318 319 319 318 318 319 318 319
286 286 286 286 287 287 286 286 286 287 289 289 290 290 292 293 295 297 301 301 302 300 299 300 301 303 304 310 314 316 315 314 314 314 316 316 315 316 317 314 311 308 310
285 284 284 285 285 286 286 285 284 285 285 287 288 289 289 290 290 289 290 293 293 293 291 292 294 295 295 299 304 312 310 306 304 305 307 309 312 310 311 309 304 297 294
284 283 283 284 284 285 285 284 283 283 283 283 284 286 288 288 288 288 287 287 289 288 288 288 288 290 291 293 296 299 297 296 294 295 296 298 300 298 299 303 300 293 290
283 282 282 283 283 284 285 284 283 282 282 282 283 283 284 286 286 287 286 286 286 286 286 285 286 286 287 290 293 294 292 288 287 287 288 290 292 293 293 292 291 289 288
283 282 281 282 281 282 283 284 284 282 282 281 281 282 282 283 283 285 285 285 285 285 285 285 285 284 285 285 286 288 288 288 286 285 285 286 287 287 288 288 287 286 287
281 281 280 280 281 281 282 283 284 284 282 281 280 280 281 281 282 282 282 283 283 284 285 285 285 285 285 284 284 285 285 285 283 283 283 285 285 285 285 285 285 285 284
280 280 280 279 279 280 281 282 283 283 283 282 281 280 279 280 281 281 281 282 282 282 283 283 284 285 285 285 284 284 284 284 284 285 284 283 283 283 283 283 283 282 282
278 278 278 278 278 279 280 281 282 282 282 282 282 280 279 279 279 280 280 281 281 282 282 282 284 284 284 284 284 283 283 282 282 282 281 281 280 279 279 279 279 280 280
277 277 276 277 277 278 279 280 281 281 281 281 281 281 281 280 279 278 279 280 280 281 281 282 282 282 283 282 282 282 282 281 281 279 278 277 277 276 276 276 276 277 277

GFSMW_925_thetae_105.txt.gz
Theta_e
306 307 309 310 311 311 312 313 323 338 342 342 341 339 339 339 340 339 337 336 337 339 339 337 335 334 335 332 330 330 329 327 327 327 327 326 326 326 327 327 327 327 325
303 305 307 308 309 309 311 313 319 332 341 341 342 340 339 339 339 339 339 338 338 338 339 337 334 333 332 331 330 330 328 328 327 327 325 325 323 325 326 326 326 326 325
308 304 304 305 309 310 310 310 317 330 338 340 341 340 339 338 337 337 338 339 339 339 339 337 336 334 332 331 331 329 329 328 328 327 326 325 325 322 323 325 325 325 324
315 314 317 318 318 320 323 319 312 329 336 340 340 338 338 337 338 337 339 338 339 339 338 337 335 334 333 332 330 329 328 328 327 327 326 324 322 324 323 322 322 323 323
313 312 313 313 313 315 320 324 315 325 335 340 339 338 337 337 336 336 337 337 337 337 337 337 335 333 332 332 331 329 328 328 327 327 326 325 322 322 322 323 321 321 321
308 309 309 310 311 311 313 321 328 327 336 339 339 337 337 336 335 335 335 335 334 336 336 335 333 334 333 331 330 329 329 328 327 327 326 325 323 321 322 322 322 321 320
304 306 306 306 307 306 308 313 328 338 338 340 339 338 337 335 335 335 335 334 333 333 333 333 332 333 332 331 330 329 328 328 327 326 326 325 323 322 322 322 322 321 319
301 302 303 303 302 303 304 307 311 318 338 338 337 337 336 335 334 334 333 332 332 331 332 331 332 332 331 331 330 329 328 328 327 326 326 324 323 321 321 321 321 318 317
297 297 298 299 300 300 300 303 306 310 321 337 336 334 335 334 334 333 332 332 332 332 332 330 330 330 330 330 329 328 328 327 327 326 325 325 324 322 320 320 320 320 320
295 294 295 296 296 298 298 300 303 305 309 327 333 332 333 333 332 332 332 332 331 330 329 329 329 328 327 327 327 327 326 325 326 326 325 325 324 322 320 320 319 319 319
293 293 293 294 294 295 296 297 300 302 305 312 326 331 332 332 332 331 330 330 330 329 329 328 327 326 325 327 327 326 326 326 326 325 325 325 324 322 320 320 320 319 319
292 292 292 292 292 293 294 295 297 300 302 306 318 328 331 332 331 330 329 329 329 328 328 327 326 325 325 325 325 326 325 325 325 325 325 324 324 322 321 320 320 319 319
291 291 290 291 291 291 292 293 294 296 299 304 314 325 327 327 327 328 328 327 325 324 323 322 321 322 322 321 322 322 324 325 325 325 325 324 324 323 322 321 320 320 320
290 289 289 290 290 290 290 291 292 293 296 299 301 311 320 326 326 325 324 323 321 321 321 321 320 319 318 319 319 320 321 322 323 325 325 325 324 323 322 321 320 320 320
288 288 288 289 289 289 288 289 290 292 293 295 296 299 305 324 324 322 321 321 321 320 320 319 318 318 318 317 317 317 320 323 324 324 324 324 324 323 322 321 320 321 320
287 287 287 287 288 288 287 287 287 289 290 292 293 294 297 304 311 319 320 320 320 319 319 318 317 316 315 316 317 317 319 322 323 323 323 324 324 323 322 321 321 321 320
286 286 286 286 287 287 286 285 286 286 287 289 290 291 292 292 294 298 304 305 309 312 312 310 309 309 310 314 316 316 317 318 317 318 320 322 322 323 320 320 321 319 320
285 285 285 285 286 285 285 284 284 284 285 285 286 288 290 290 289 290 290 292 294 296 299 301 300 301 301 305 309 312 315 313 312 310 310 314 314 317 316 316 317 316 315
284 283 283 284 284 285 284 283 282 283 283 284 284 284 287 288 289 287 287 288 288 289 289 290 294 295 295 297 302 306 307 305 303 304 305 305 309 307 317 317 310 303 300
283 282 282 282 283 284 284 283 282 281 281 282 283 283 284 285 286 287 287 286 286 286 286 287 287 289 290 292 296 299 299 295 293 295 296 298 299 302 307 310 304 293 290
281 280 281 281 281 282 283 284 283 281 280 280 281 282 283 283 283 284 285 286 286 286 285 285 285 286 286 288 290 292 292 289 288 288 287 289 292 294 296 295 294 291 290
280 279 279 279 280 281 282 282 283 282 281 280 280 281 282 282 283 283 283 283 284 285 285 285 285 284 284 284 284 286 286 286 285 284 284 284 286 285 287 288 288 288 288
278 279 278 278 278 279 280 281 281 282 281 280 280 280 280 281 282 282 283 283 283 284 284 285 285 285 284 284 283 283 283 284 282 282 282 284 285 285 285 285 286 286 285
277 277 278 277 277 278 279 279 281 282 281 281 280 280 279 280 280 281 281 282 283 283 283 284 284 284 284 284 283 283 282 283 283 282 282 283 283 283 283 283 282 282 281
276 276 276 277 277 278 279 280 280 281 281 280 280 281 280 279 279 279 279 280 281 282 283 282 282 283 283 282 282 282 282 281 281 281 280 279 278 278 278 278 278 279 279
275 276 276 276 276 277 278 279 280 280 280 280 280 279 279 279 279 279 279 278 278 279 280 281 281 280 281 281 281 281 281 281 281 279 277 276 276 276 276 275 275 276 276

GFSMW_925_thetae_111.txt.gz
Theta_e
307 306 312 313 312 309 306 306 307 308 316 332 335 335 335 335 335 334 333 333 333 335 334 335 335 334 335 335 334 333 332 329 329 328 328 328 327 328 327 326 327 327 326
310 313 313 312 313 314 314 315 314 308 309 324 332 333 334 335 335 334 334 333 334 336 336 334 333 333 333 334 333 332 330 330 329 329 329 330 329 328 327 327 327 326 326
310 311 310 309 309 310 311 311 313 316 316 310 327 334 335 336 336 335 335 334 335 336 335 334 332 333 333 332 332 332 331 330 327 329 329 330 330 327 327 327 327 326 326
304 304 305 305 305 307 307 308 309 311 315 318 319 333 335 334 334 335 336 335 335 335 334 335 332 332 332 332 331 331 330 330 328 327 328 329 327 329 328 324 326 326 326
299 299 299 299 300 301 302 303 306 309 314 319 321 333 335 335 335 336 336 335 334 334 335 335 334 331 332 332 332 331 330 330 330 328 327 327 327 325 325 328 324 324 326
296 296 296 296 297 297 298 300 303 306 312 320 322 331 335 335 336 336 336 334 335 333 334 333 334 332 331 332 332 332 331 330 330 328 328 327 327 325 325 325 324 325 323
295 294 294 295 295 296 296 298 301 303 307 314 321 330 335 336 336 336 336 335 333 333 333 334 333 332 332 332 333 332 331 330 330 329 328 327 327 326 325 325 325 324 322
294 293 293 293 292 293 294 296 299 302 305 309 320 330 333 334 336 336 336 334 333 333 333 333 333 333 333 332 332 332 331 330 330 329 328 328 327 326 325 325 325 323 321
293 292 291 291 291 292 292 294 297 300 302 305 311 330 332 334 334 335 335 335 334 334 333 333 332 332 332 331 335 331 330 330 329 329 328 328 327 327 326 325 325 325 324
291 290 290 290 290 290 291 292 294 298 300 303 307 319 334 333 333 334 335 335 333 332 332 331 333 331 332 330 330 330 330 329 329 329 328 328 328 327 326 326 324 324 323
290 289 289 289 289 289 289 291 292 295 298 300 304 317 332 333 332 332 334 334 332 331 330 330 331 332 330 330 331 330 329 329 329 328 328 327 327 326 326 325 324 323 323
290 289 288 288 288 288 288 289 290 291 295 298 301 306 320 331 330 331 331 332 331 329 329 329 330 330 329 328 329 329 328 328 327 327 326 326 326 326 325 324 323 322 322
288 287 287 287 287 287 287 287 288 289 292 295 298 300 305 317 327 328 328 328 327 327 327 328 327 328 328 327 326 325 325 325 324 325 325 325 325 325 324 324 324 322 321
287 287 286 287 286 286 286 286 287 288 289 293 294 296 296 300 309 320 322 323 324 324 324 325 325 323 322 321 321 321 321 320 320 319 320 321 322 323 324 324 324 323 321
286 286 286 286 286 285 285 284 285 286 288 290 291 293 294 294 298 304 308 314 316 316 317 315 315 315 315 311 315 316 317 317 317 317 317 318 320 321 321 323 323 323 321
285 285 285 285 285 285 284 283 284 284 286 287 289 290 292 292 291 292 294 299 300 303 306 302 302 301 298 303 309 313 314 315 313 312 311 311 317 319 321 321 322 323 321
284 284 284 284 284 284 284 283 283 283 284 285 286 288 288 291 292 289 290 289 290 293 294 293 293 291 290 294 301 307 306 306 305 304 306 307 307 313 317 320 321 322 322
283 282 282 282 282 283 283 283 282 282 283 284 284 285 286 287 290 290 288 289 288 289 287 287 287 287 287 290 295 297 299 297 295 295 296 299 301 302 307 311 310 309 309
281 280 281 281 281 282 282 283 282 281 281 282 283 284 284 285 285 286 287 287 286 286 285 285 286 286 285 287 290 293 292 292 290 289 290 293 296 297 300 302 298 295 297
279 278 279 280 279 280 281 281 282 281 280 280 281 282 283 284 284 285 286 286 286 285 285 284 284 284 284 285 287 288 286 286 286 286 286 286 289 295 296 296 296 294 293
278 277 277 278 278 279 280 281 281 281 280 279 280 280 281 282 283 284 284 285 285 285 285 284 284 283 283 283 286 287 284 283 282 282 282 283 283 285 290 293 291 290 290
277 276 276 276 276 277 279 280 280 280 280 279 279 279 280 280 281 282 283 283 284 284 284 284 284 283 283 282 282 282 284 283 281 280 280 280 280 281 282 284 287 289 287
277 276 276 276 276 276 276 278 278 278 278 278 278 278 278 279 279 280 281 281 281 282 282 282 282 282 282 282 283 283 282 282 280 280 281 282 282 283 282 281 283 282 282
276 276 277 276 275 276 276 277 277 277 277 276 276 277 277 277 278 279 279 280 280 280 280 280 281 281 281 281 281 281 282 282 282 281 281 281 281 281 281 281 280 279 279
276 276 276 276 276 276 276 276 277 277 277 276 275 275 276 276 276 276 277 277 277 278 279 279 279 280 280 279 279 279 279 279 278 279 280 279 278 277 277 278 279 279 278
275 275 275 275 275 276 275 276 276 276 276 276 276 275 275 275 275 275 275 274 275 275 276 277 277 277 278 278 278 278 277 277 278 278 277 277 276 276 275 275 275 276 277

GFSMW_925_thetae_114.txt.gz
Theta_e
314 314 314 314 314 314 315 317 318 319 313 315 327 330 336 336 338 339 339 339 340 340 339 338 338 335 336 337 337 338 337 337 337 336 335 335 334 333 332 331 331 331 329
312 311 310 310 311 311 313 314 314 315 317 316 315 327 331 334 334 336 339 340 339 339 339 337 337 336 336 336 335 335 335 335 334 333 333 335 333 332 332 331 331 331 329
309 308 307 307 307 307 308 309 310 312 313 316 319 316 328 331 333 336 339 340 338 338 338 337 336 336 335 335 334 334 334 333 332 334 333 335 334 331 331 331 331 330 328
306 305 304 303 303 303 304 305 307 308 310 313 317 319 321 330 333 334 336 336 338 338 338 337 335 335 335 334 334 333 334 333 331 332 334 331 331 332 332 329 330 330 329
304 303 302 300 300 301 301 301 303 304 307 311 314 319 319 327 331 334 334 335 336 337 336 335 336 334 334 334 334 333 333 333 332 331 331 333 332 330 330 333 330 327 329
302 301 299 298 299 299 298 298 299 301 303 306 310 316 323 324 330 331 335 335 336 335 335 335 335 334 334 333 333 333 333 332 333 331 333 332 332 332 330 331 329 329 328
300 298 298 297 296 295 295 295 295 297 299 303 306 312 319 324 331 331 335 336 336 334 335 334 334 333 333 333 333 333 332 331 332 333 333 332 330 329 329 329 330 330 328
297 296 295 294 293 293 294 294 293 294 296 299 304 308 316 325 330 332 333 335 336 334 333 334 334 334 333 333 333 332 332 332 332 334 333 332 331 330 330 329 330 329 327
295 294 293 292 292 290 291 291 291 292 294 298 302 307 316 328 332 333 334 335 336 334 334 334 333 333 332 333 333 332 332 332 333 332 333 332 332 331 330 330 328 328 330
293 292 291 290 290 289 288 289 289 291 293 296 302 305 313 327 333 334 335 335 336 335 334 334 333 332 332 332 332 332 332 332 332 332 331 331 331 330 330 329 328 327 328
292 291 290 288 288 288 287 287 288 290 292 296 301 305 311 331 334 333 333 335 336 334 335 335 333 332 332 331 331 332 331 331 331 331 330 330 330 329 328 328 328 328 327
291 290 288 287 287 287 286 286 287 289 291 294 299 301 304 322 332 332 332 334 334 335 333 333 332 331 331 330 330 331 330 330 330 330 329 329 329 327 328 328 327 327 326
291 289 288 287 286 286 286 285 286 288 290 292 296 298 298 303 309 323 331 332 332 331 330 330 331 330 328 328 330 330 329 329 329 328 328 328 328 327 326 326 326 326 325
290 289 288 286 286 286 285 284 285 286 288 291 292 295 294 296 298 302 310 315 320 322 320 321 321 321 321 321 322 324 325 324 324 323 325 325 324 324 324 324 324 324 324
288 288 287 287 286 286 285 284 284 285 287 288 290 291 292 292 292 293 296 298 303 303 304 307 305 305 308 307 313 317 317 317 318 320 320 320 317 317 318 319 321 324 324
287 287 286 286 286 286 285 285 284 284 285 286 287 288 290 290 291 290 291 291 292 293 295 296 295 295 296 298 306 311 311 311 310 308 309 309 309 311 311 314 317 319 320
286 285 286 285 285 285 286 285 285 284 284 285 285 286 287 289 288 289 289 288 288 289 288 289 290 290 291 296 300 305 305 303 299 297 297 298 299 301 301 304 306 311 316
285 284 284 284 283 285 285 286 286 285 284 284 285 285 286 286 287 287 287 287 286 286 286 286 286 286 287 292 293 295 296 293 291 290 290 291 291 294 299 299 299 302 304
282 282 282 282 282 283 284 285 284 284 283 283 283 284 285 286 286 286 286 286 285 285 285 284 284 285 284 285 289 292 289 287 286 286 285 285 287 290 295 295 294 294 293
281 280 280 280 280 281 283 282 282 282 282 282 282 283 284 285 285 285 286 286 286 285 285 284 284 283 283 283 283 286 287 286 284 283 283 283 284 287 292 292 291 290 288
280 279 279 278 278 279 280 281 280 280 280 280 281 282 282 283 284 284 284 285 285 285 286 285 284 284 283 283 282 282 282 282 282 281 281 282 282 283 284 287 286 285 288
280 278 278 278 278 278 279 279 279 278 279 280 280 280 281 281 282 283 283 283 284 284 285 285 285 284 284 283 282 282 281 281 281 280 280 281 281 282 284 285 286 286 285
280 279 278 278 277 278 278 279 278 278 278 279 279 280 280 280 280 280 281 281 282 282 283 283 284 284 282 282 282 283 282 281 282 281 280 281 281 280 281 281 284 284 282
279 279 279 279 278 278 278 278 278 279 279 278 279 279 279 280 278 279 279 278 279 280 280 280 280 281 281 280 280 281 282 282 283 282 282 282 282 281 280 280 280 280 280
279 279 279 279 278 278 278 278 278 278 279 279 279 279 279 279 279 277 276 277 275 276 278 278 279 278 279 278 278 278 279 280 280 283 283 282 282 282 282 281 280 280 280
279 279 278 278 278 278 277 278 278 278 278 279 279 278 278 278 278 278 278 275 274 274 274 275 275 276 276 276 277 277 277 278 280 281 281 280 280 280 280 280 280 279 279

GFSMW_925_thetae_117.txt.gz
Theta_e
316 314 312 312 313 314 314 314 316 317 319 321 317 320 334 336 339 341 341 339 340 343 342 341 341 340 340 341 340 341 340 339 339 337 338 337 335 335 335 334 332 332 331
313 311 310 310 310 310 311 312 312 313 315 317 319 318 320 329 335 337 339 341 341 342 343 342 341 342 340 339 338 339 340 340 339 338 337 336 335 335 335 333 332 332 332
311 310 308 307 307 307 308 308 309 310 312 313 315 317 320 319 330 336 338 340 342 343 343 343 342 341 340 338 338 337 338 339 339 338 335 336 335 333 334 333 333 332 331
308 308 307 306 305 304 305 306 306 306 308 310 312 316 318 321 324 333 336 336 341 342 343 343 342 341 340 338 336 336 337 336 335 337 336 334 331 333 334 333 332 332 332
306 305 304 302 302 302 302 302 303 303 305 307 309 312 316 319 322 322 335 336 338 340 343 342 343 341 339 337 336 335 336 336 335 334 336 337 336 334 334 336 332 331 331
304 302 300 299 299 299 299 299 300 301 302 304 305 307 310 315 319 324 327 334 336 338 341 341 341 341 339 337 337 335 334 336 335 334 334 334 336 335 334 334 334 332 331
301 300 299 297 296 295 296 295 296 297 298 300 302 303 306 310 316 320 325 332 335 337 338 339 339 339 338 336 336 335 334 334 334 334 333 334 334 334 333 333 334 333 329
298 297 295 294 293 292 293 292 292 294 295 296 297 299 302 305 312 318 323 327 335 337 338 337 336 336 337 336 335 334 334 333 334 334 333 334 335 334 333 331 332 334 333
296 295 293 291 290 291 290 290 290 291 292 293 294 296 299 304 308 317 323 328 332 336 337 336 335 334 335 335 334 334 333 333 334 334 333 334 335 333 332 332 331 332 335
294 293 291 290 289 289 289 289 288 289 290 291 293 296 299 304 308 317 326 330 332 336 335 336 334 334 334 334 333 333 333 333 332 333 333 334 335 334 333 332 331 331 331
293 293 291 288 288 288 287 287 287 288 289 290 293 296 301 304 309 320 328 333 332 332 334 335 334 334 334 334 334 333 333 332 332 333 333 333 334 333 332 331 331 331 330
293 293 290 289 288 287 287 286 286 286 288 290 292 298 298 302 309 320 329 332 332 332 333 333 333 334 333 333 332 332 332 332 331 332 332 332 332 332 331 330 330 329 329
292 291 290 289 289 288 287 286 286 286 287 289 291 295 295 297 298 300 305 320 328 329 330 330 330 332 332 332 332 332 331 330 330 331 330 330 330 330 329 329 328 329 328
291 290 289 289 289 288 288 287 286 285 286 288 290 292 293 293 293 294 296 298 301 304 305 310 309 312 317 322 328 330 329 329 330 329 328 328 326 325 323 323 325 326 327
289 289 289 289 288 288 289 288 286 285 286 287 288 289 290 291 290 290 290 291 292 293 294 297 299 301 303 305 314 319 321 320 320 320 319 316 315 316 314 313 312 314 315
288 288 288 287 287 287 289 289 287 286 286 287 287 287 288 288 289 288 288 288 288 288 289 289 290 292 293 299 306 309 309 311 311 309 309 310 309 311 309 309 305 305 305
287 286 287 286 286 287 287 288 288 286 286 286 286 287 287 287 287 287 287 286 286 286 287 287 287 287 289 291 296 299 296 292 293 293 295 297 296 299 302 302 302 299 300
285 285 284 284 284 286 285 287 287 286 285 285 286 286 286 286 287 287 287 286 286 285 285 285 285 285 285 288 290 292 292 292 287 287 289 289 290 293 296 298 298 296 295
283 282 282 283 282 283 283 284 284 284 284 284 285 285 286 286 286 286 286 286 286 286 285 285 284 284 284 286 286 289 286 286 285 285 285 285 286 289 294 294 294 293 292
281 281 280 280 280 281 281 281 281 282 282 283 283 284 284 284 285 285 286 286 287 287 286 285 285 284 284 283 283 285 284 283 283 283 282 283 284 284 288 289 289 288 287
281 280 279 279 280 280 280 280 280 280 281 281 282 282 282 282 283 283 284 285 285 285 286 286 284 283 283 284 283 283 284 283 282 282 281 281 282 282 283 284 284 284 285
281 280 280 279 279 280 280 280 280 280 281 281 281 282 280 281 281 280 281 282 282 283 284 284 284 283 282 282 283 283 283 283 283 283 283 282 282 281 281 281 282 283 284
282 281 280 280 280 280 280 280 280 281 280 281 281 281 282 279 279 280 278 279 280 281 281 281 282 282 281 280 281 282 282 283 284 283 283 283 283 283 283 282 282 282 281
282 282 282 281 280 280 280 280 280 281 281 281 281 281 281 281 279 278 278 276 277 278 278 279 278 279 279 279 279 279 281 282 283 284 283 283 284 283 283 282 282 283 283
282 281 281 281 280 280 280 279 280 280 281 281 281 281 281 281 281 278 277 276 275 275 275 276 277 276 276 276 277 278 278 280 282 282 282 282 282 282 282 282 281 281 282
282 281 281 280 280 279 279 279 279 280 280 281 281 280 281 281 280 280 280 278 276 275 274 274 274 275 275 275 276 278 278 278 280 281 280 280 280 280 280 280 280 280 279

GFSMW_925_thetae_120.txt.gz
Theta_e
315 312 311 310 310 310 310 311 311 312 313 315 318 320 321 321 339 341 341 340 342 343 339 342 344 340 338 342 343 342 340 340 339 339 338 337 337 336 335 335 333 333 332
312 311 310 309 308 308 307 307 309 309 310 311 313 315 316 318 321 335 340 341 341 342 343 342 342 342 339 340 344 343 341 340 339 339 337 338 337 337 336 334 333 335 332
310 309 307 306 305 305 304 305 306 306 307 307 309 312 314 317 319 321 326 340 340 341 342 343 341 342 341 340 341 342 342 340 340 338 336 335 334 333 335 335 334 334 332
308 306 305 303 302 302 301 301 301 302 303 305 306 309 312 315 317 319 322 334 340 340 342 343 343 342 343 341 340 339 338 340 340 339 337 333 333 330 334 335 335 333 332
305 304 302 300 299 298 298 297 298 298 299 301 303 305 307 310 313 316 319 322 327 338 339 339 341 343 342 342 340 339 337 338 337 339 337 337 335 335 333 332 333 334 333
302 301 299 297 296 295 294 294 294 295 295 296 298 301 302 305 307 310 315 319 324 329 337 336 339 340 343 339 340 338 337 337 336 336 336 336 336 335 334 331 330 331 333
299 298 296 294 293 292 292 292 292 292 292 293 295 297 298 300 303 305 310 315 319 325 332 335 338 339 342 340 340 338 336 336 335 335 334 334 335 336 335 334 330 330 331
297 295 294 292 291 290 290 290 290 290 290 291 292 294 295 297 299 302 306 311 317 322 327 332 333 337 339 340 339 338 337 335 334 334 334 333 334 334 333 333 332 329 329
295 294 292 291 290 289 289 289 289 288 288 289 290 292 293 295 297 300 303 307 312 319 324 330 333 333 338 338 339 338 337 334 333 333 333 333 333 334 334 334 332 330 329
294 293 292 290 290 289 288 288 288 287 287 288 290 291 294 296 298 300 303 306 309 317 324 327 330 331 334 336 336 336 335 334 332 333 334 333 334 333 334 334 333 331 330
294 293 291 290 290 289 289 288 287 287 287 288 290 292 296 298 300 303 307 307 310 315 323 329 327 318 329 332 333 335 334 334 333 333 333 333 333 335 335 333 333 331 331
293 292 290 289 289 289 289 289 287 287 287 288 290 292 293 295 295 298 302 311 314 318 327 329 326 316 330 333 334 333 333 333 333 332 332 332 333 333 333 333 332 331 330
291 290 290 289 289 289 289 288 287 287 287 288 289 290 291 292 292 293 295 296 300 302 306 316 317 321 325 332 333 333 333 332 332 332 331 332 332 332 333 332 330 330 329
289 289 289 288 288 288 289 289 287 287 287 287 288 288 289 289 290 291 290 291 293 293 295 297 299 300 307 316 326 331 332 332 332 331 330 329 328 329 328 328 324 323 323
288 288 288 287 287 287 288 289 287 286 287 287 287 287 288 288 288 288 289 289 289 291 290 290 292 294 295 301 307 316 315 312 311 310 310 310 307 311 314 315 321 318 314
287 287 286 286 286 286 287 288 287 286 286 286 287 287 287 287 287 287 287 287 287 288 288 288 288 289 290 292 297 298 298 299 296 296 298 300 303 303 303 305 307 308 306
286 285 285 284 284 285 285 286 286 285 285 286 285 286 286 287 287 287 287 286 286 286 286 286 286 286 286 289 289 291 289 289 291 291 291 290 292 296 300 300 301 301 299
284 283 283 282 282 283 282 283 284 284 284 284 285 285 285 285 286 287 287 286 286 285 285 284 285 285 285 285 286 288 290 285 285 286 288 288 289 291 294 297 296 294 294
282 281 281 281 281 282 281 281 282 282 283 283 283 283 283 284 284 285 286 286 286 285 284 284 283 284 285 284 285 285 285 284 283 283 284 285 285 287 290 291 291 290 289
281 280 280 280 280 281 281 281 281 281 282 282 281 281 282 281 282 283 283 284 285 285 284 283 282 282 282 284 284 284 284 284 284 283 283 283 283 283 285 286 285 285 285
281 280 280 280 280 280 280 281 281 281 282 281 282 280 280 281 279 280 280 281 282 282 283 282 281 280 281 281 283 283 284 284 284 284 284 284 284 283 283 283 282 282 283
282 281 280 280 280 280 280 280 281 281 282 282 281 282 280 279 278 277 277 278 279 280 279 279 279 279 279 280 281 282 283 284 284 284 284 284 284 283 283 283 283 283 283
283 282 281 280 280 280 280 280 280 282 281 282 282 282 282 280 279 277 276 276 277 277 278 278 277 277 277 278 279 280 281 283 283 283 283 283 283 283 282 282 282 283 283
283 282 282 281 280 281 280 280 281 281 282 281 282 282 282 281 279 278 276 276 275 275 275 276 276 275 276 277 278 279 279 281 282 282 281 281 281 281 281 281 280 281 281
282 282 281 281 280 280 280 279 280 281 282 282 281 282 282 281 280 278 277 276 276 276 275 275 275 275 275 276 278 279 279 279 281 281 280 280 280 280 279 279 279 279 279
282 282 281 280 280 279 279 279 279 279 280 281 281 280 281 281 281 280 280 279 278 277 276 275 275 275 276 276 276 278 279 278 278 278 278 278 278 278 278 278 278 278 278

GFSMW_925_thetae_123.txt.gz
Theta_e
308 306 305 303 303 303 302 303 303 304 305 306 307 307 309 311 313 315 318 336 336 336 341 340 341 342 341 343 342 340 340 340 340 338 338 336 337 337 337 336 335 334 333
305 304 303 301 300 300 299 299 299 300 300 302 303 305 306 308 311 313 316 319 331 338 338 337 337 340 340 340 342 341 340 340 340 338 337 335 337 337 337 336 335 335 332
303 301 300 298 298 297 296 296 296 296 297 298 299 301 304 305 308 310 313 316 319 327 337 336 335 338 341 339 339 342 340 339 339 338 336 332 333 332 336 336 335 335 333
300 299 297 296 295 294 293 293 293 293 294 295 295 296 298 303 305 306 308 310 313 318 325 335 336 333 337 341 338 340 341 339 338 337 336 334 332 330 331 335 335 335 333
298 297 295 293 293 292 291 291 291 291 291 291 292 293 294 298 301 302 304 306 308 313 318 325 335 337 337 339 339 338 341 339 338 337 337 335 332 332 328 330 331 334 334
295 294 293 292 291 290 289 289 289 290 289 290 290 291 292 294 297 299 300 302 305 308 313 318 324 334 336 337 338 339 338 338 337 337 337 337 334 332 330 327 329 332 333
294 293 292 291 290 289 289 289 289 289 289 288 288 289 291 292 294 296 298 300 302 305 310 316 319 324 334 336 337 338 337 335 333 336 338 337 336 335 333 332 328 327 331
293 292 291 290 289 289 289 289 289 288 288 288 288 288 290 291 292 294 296 298 300 303 305 309 316 323 326 334 334 335 335 331 326 331 334 335 335 335 334 333 330 326 327
292 291 290 289 289 289 289 289 288 288 287 287 288 289 290 292 293 294 295 297 299 301 303 307 312 318 324 329 332 334 334 332 326 326 329 333 333 333 333 334 333 329 327
291 290 289 288 288 289 289 289 288 287 287 288 288 290 292 294 295 297 298 299 300 302 304 305 308 314 322 327 330 331 331 332 333 333 333 333 332 331 332 333 333 332 328
290 288 288 288 288 288 288 289 288 287 287 287 288 290 291 293 294 296 297 299 302 304 307 307 309 313 321 328 331 330 329 330 333 334 333 332 332 331 331 332 333 332 331
288 288 288 287 287 288 288 288 287 287 287 287 288 289 289 290 292 292 293 295 297 304 308 310 313 318 321 322 326 326 323 317 326 333 333 332 332 331 331 332 332 331 331
288 288 287 287 286 287 287 288 286 286 286 287 287 288 288 288 289 290 290 290 292 293 296 299 301 302 306 311 319 318 316 329 331 333 332 332 332 332 331 333 331 330 329
288 287 286 286 286 286 286 287 285 285 286 286 287 287 287 288 287 288 288 288 289 289 289 291 292 293 295 300 308 320 325 327 329 325 329 326 329 330 331 332 331 329 328
286 286 286 284 284 284 284 285 284 284 285 285 285 286 287 287 287 287 286 287 287 287 288 288 288 289 291 291 294 297 299 303 301 299 302 302 304 311 319 320 322 325 324
285 285 284 283 283 283 282 283 283 283 283 284 283 284 285 286 286 286 286 285 285 285 286 286 287 287 288 290 291 291 290 290 292 292 292 294 299 299 302 305 306 308 310
284 283 282 281 281 282 281 281 282 282 282 282 282 281 283 283 284 285 286 284 284 284 284 285 285 286 286 287 289 289 290 288 287 287 288 289 292 296 295 296 295 295 296
282 281 281 281 280 281 281 281 281 281 281 280 281 281 280 281 282 283 284 285 283 282 282 282 283 284 285 285 286 286 286 285 285 285 285 286 288 291 293 294 293 290 290
281 280 280 280 280 280 280 280 281 281 281 280 279 280 278 279 279 280 281 281 282 281 280 280 281 281 283 284 285 285 285 285 285 285 285 284 284 285 290 290 287 287 286
280 280 280 280 280 280 280 281 280 281 281 281 280 279 278 277 277 278 279 280 278 279 278 278 278 280 280 282 283 284 284 284 284 285 284 284 284 284 284 285 284 283 283
280 280 280 280 280 280 281 281 281 281 282 281 281 279 278 277 276 276 276 277 278 277 277 277 277 277 279 280 282 283 284 283 283 284 284 284 283 283 283 283 284 283 284
280 280 280 280 279 280 280 280 281 281 282 281 281 280 279 278 277 276 276 275 275 276 276 276 276 276 277 279 280 281 282 282 282 282 282 282 282 282 281 281 282 283 283
281 280 280 281 280 279 280 280 281 282 281 282 281 281 280 278 277 276 276 276 275 275 275 275 275 276 276 278 279 279 280 281 280 280 280 280 279 279 279 279 280 280 280
282 281 280 280 279 279 279 279 280 281 281 280 281 280 280 279 278 277 276 276 275 275 275 275 275 276 276 277 278 278 278 278 278 278 277 278 278 278 277 277 277 278 279
282 281 280 279 278 279 279 278 279 279 280 280 279 280 280 279 279 278 278 277 277 276 275 275 276 276 276 276 278 278 277 277 276 276 276 275 276 275 276 276 276 277 277
281 280 279 278 277 277 278 278 278 278 278 279 279 278 279 279 278 278 278 278 277 277 276 275 276 276 276 276 275 276 275 275 275 274 273 273 273 274 274 274 274 275 275

GFSMW_925_thetae_126.txt.gz
Theta_e
301 299 297 296 295 294 294 294 294 294 295 297 298 299 300 302 304 305 307 310 313 317 321 333 330 328 337 338 340 340 340 339 339 337 337 337 335 335 336 336 336 336 335
298 297 295 294 293 292 292 292 292 292 293 294 294 295 296 298 299 302 305 307 308 311 315 319 333 323 336 336 338 339 339 339 338 337 336 333 335 336 336 336 336 336 335
296 295 294 292 292 291 290 290 290 290 291 291 291 292 294 295 297 299 301 303 304 306 309 312 317 333 326 324 336 337 338 336 337 337 335 334 337 331 336 336 336 336 335
294 293 292 291 290 290 289 289 288 289 290 289 290 290 291 292 293 294 297 299 301 303 305 307 312 318 333 334 334 334 337 336 336 336 335 335 332 331 331 334 335 336 335
293 292 292 290 289 289 289 288 288 288 289 289 288 289 289 290 291 292 294 296 298 299 301 304 308 312 319 331 331 334 336 336 336 335 334 333 331 331 326 328 333 334 334
292 292 290 289 289 289 289 288 289 288 288 288 288 288 288 288 289 291 292 294 296 298 300 302 306 312 315 318 330 333 335 335 334 335 335 334 332 329 327 325 328 332 333
292 290 289 289 288 288 288 288 289 288 288 288 288 288 288 288 289 290 292 293 294 296 298 301 303 307 311 316 322 331 333 333 333 334 334 334 333 333 331 329 326 326 330
290 289 289 288 288 288 288 289 288 288 287 287 287 288 289 290 291 292 293 294 295 296 297 299 300 302 305 308 313 323 331 332 332 333 330 329 327 331 333 332 327 325 324
289 288 288 288 287 287 288 289 287 287 287 287 288 289 290 291 293 293 294 295 296 297 298 300 302 303 305 308 313 321 328 331 331 331 327 323 324 323 331 333 332 329 325
288 288 287 287 287 287 287 288 287 286 287 287 287 288 289 290 292 293 295 296 299 299 300 301 302 304 305 306 310 316 325 329 330 327 324 324 320 322 329 330 332 330 329
287 287 287 286 286 286 285 287 286 286 286 286 287 288 288 289 290 291 292 292 294 296 300 304 304 305 307 308 311 316 323 328 329 326 323 323 323 326 325 322 329 331 329
287 286 286 285 285 285 284 285 285 285 285 285 286 287 288 288 288 288 289 290 291 291 293 297 300 301 306 308 312 318 322 327 329 329 328 328 328 328 326 322 325 330 329
287 286 285 284 284 284 283 284 283 284 283 284 284 285 287 287 287 287 287 288 289 289 289 291 292 293 296 300 308 312 317 318 321 322 323 324 320 320 329 329 330 330 329
287 286 284 283 283 283 282 282 283 283 282 283 283 283 284 286 286 285 285 285 286 287 288 288 289 289 290 292 298 303 303 304 305 306 308 310 313 320 328 329 330 330 328
286 284 283 283 282 282 282 282 282 282 281 282 281 281 282 284 285 284 283 284 283 284 286 287 287 288 288 288 290 291 292 292 293 294 295 295 294 298 308 327 327 328 328
284 283 282 282 281 281 281 281 281 281 280 280 280 280 280 282 282 284 283 282 282 282 282 284 285 286 286 287 287 288 289 290 288 289 290 293 295 294 293 292 292 308 317
283 282 282 281 281 281 281 281 281 281 280 279 279 278 279 279 280 280 281 280 280 280 281 281 283 285 285 285 285 286 286 286 287 287 287 288 291 292 294 295 293 290 291
282 281 281 280 280 280 280 280 281 281 280 279 279 278 277 278 278 279 278 278 278 278 278 280 281 283 284 285 285 285 285 285 285 285 285 286 286 290 291 292 292 289 287
280 280 280 280 280 281 280 280 280 281 280 279 279 278 277 276 276 277 278 277 277 277 277 278 280 280 283 283 284 284 284 284 284 284 284 284 284 285 287 290 287 285 285
280 280 280 280 280 281 281 281 281 281 280 279 278 278 277 276 276 276 276 276 276 276 276 277 278 280 280 282 282 282 282 282 282 282 282 282 282 282 283 283 284 283 283
280 280 280 280 280 281 281 281 281 281 281 280 279 278 277 276 276 276 275 275 276 276 276 276 277 278 279 280 281 281 280 281 281 280 280 281 281 281 281 281 281 282 283
280 280 279 279 279 280 281 280 280 281 280 280 280 279 278 277 276 276 275 275 275 276 276 276 276 277 278 278 279 279 279 279 279 279 279 279 279 279 279 279 279 281 281
280 280 280 279 279 279 280 279 280 280 280 280 279 279 279 278 277 276 276 275 275 275 276 276 276 276 276 277 276 277 277 276 276 276 277 276 276 277 276 277 277 278 278
280 279 279 278 278 278 279 279 280 280 279 279 279 278 278 278 277 276 276 276 275 275 275 276 276 275 275 275 275 275 275 274 273 273 273 274 274 274 274 274 275 275 276
281 279 278 278 278 278 278 278 279 279 279 278 278 278 277 277 277 278 277 276 276 275 275 276 275 275 274 274 274 274 274 273 272 271 271 271 271 271 272 272 272 272 273
279 278 277 277 277 278 278 277 277 278 278 277 276 276 276 276 276 276 275 276 275 275 274 275 275 275 274 273 272 272 272 272 271 270 269 269 269 269 269 269 270 270 270

GFSMW_925_thetae_129.txt.gz
Theta_e
296 294 293 292 291 290 290 290 290 290 291 292 291 294 295 294 297 297 299 302 305 306 308 311 321 325 328 329 334 336 338 337 337 336 335 335 334 335 336 335 335 335 334
294 294 292 291 290 289 289 289 289 289 289 290 289 290 291 293 294 295 297 298 299 302 303 306 308 315 324 329 329 334 335 335 337 335 335 335 335 334 335 334 335 335 335
293 292 291 290 289 289 289 288 288 288 288 289 289 289 289 290 292 293 292 294 295 297 300 302 304 308 318 326 325 328 334 334 335 336 333 332 335 333 335 334 334 334 335
292 292 290 289 289 288 288 288 288 288 289 288 288 288 288 288 289 289 290 291 293 295 297 299 300 303 308 316 325 326 327 329 332 334 333 332 332 332 332 332 334 334 334
291 290 289 289 288 288 288 288 289 288 288 288 288 288 288 288 288 288 289 290 291 293 295 297 300 301 305 311 316 326 324 325 329 332 333 333 331 331 327 332 333 333 334
290 290 289 288 287 287 288 288 289 287 288 287 287 288 288 288 289 290 290 291 292 293 294 295 297 299 306 312 317 319 326 327 330 332 332 332 331 330 328 326 327 333 333
289 288 287 287 287 287 287 288 287 287 287 287 287 287 288 289 290 291 291 292 293 294 295 296 297 298 300 303 308 312 317 322 331 332 331 331 332 331 330 330 329 327 331
288 287 287 287 286 287 286 287 287 286 286 287 287 287 288 289 290 292 293 294 294 295 296 296 297 298 299 300 303 305 308 313 324 330 332 332 332 332 330 329 329 328 325
287 287 287 286 286 286 285 286 286 285 285 286 286 287 288 289 290 291 292 293 295 297 298 298 299 299 300 302 304 306 309 315 322 326 330 331 330 329 328 325 323 326 327
287 286 286 285 285 285 284 285 284 284 284 285 285 286 287 288 288 289 290 291 292 293 294 297 298 301 301 302 304 305 308 310 314 324 328 329 329 327 325 325 324 325 328
285 284 285 284 284 284 283 283 283 283 283 284 284 284 285 286 287 287 288 289 290 290 291 293 295 301 304 305 307 307 308 312 317 323 327 327 326 326 324 323 323 325 328
285 284 284 283 283 283 282 282 282 282 282 283 283 283 284 286 285 285 285 287 288 288 289 290 291 292 294 300 304 309 311 315 320 323 325 325 325 323 321 322 324 324 324
285 284 283 283 282 283 282 282 282 281 281 282 282 282 282 284 284 283 284 284 285 287 287 288 288 289 290 293 297 302 309 309 309 314 316 316 322 323 322 323 324 323 323
284 283 283 282 282 282 282 281 281 280 280 280 280 280 280 282 283 282 281 282 283 284 286 286 286 287 287 289 291 292 294 295 297 297 299 301 304 307 314 320 325 324 323
285 283 283 282 282 282 281 281 281 280 279 279 278 279 279 280 280 280 280 280 281 282 283 285 285 286 286 286 287 288 289 290 290 291 292 293 293 298 304 309 309 315 323
284 283 282 282 281 281 281 281 281 280 279 278 278 277 277 278 279 278 278 279 279 280 281 283 284 285 285 285 285 285 286 286 287 287 288 290 291 291 295 297 296 298 311
283 282 282 281 281 280 281 281 280 280 279 278 278 277 276 276 277 277 277 277 277 278 280 281 283 283 284 284 284 284 284 284 284 284 285 285 287 288 289 289 289 290 293
282 281 280 280 280 280 280 280 280 279 279 278 278 277 276 276 276 276 276 276 277 277 278 279 280 282 282 283 282 283 282 282 282 283 282 283 283 285 286 286 285 285 285
280 280 280 280 280 281 280 280 280 279 278 278 277 277 276 276 275 275 276 276 276 276 277 278 279 279 280 281 281 281 281 280 280 280 282 281 282 282 283 284 284 283 283
280 280 280 280 280 280 280 280 280 279 278 277 277 276 276 276 275 275 275 276 276 276 276 277 277 278 278 279 279 279 279 279 279 279 279 280 281 281 281 281 281 282 282
280 279 279 279 280 280 280 280 280 279 279 278 277 277 276 275 275 275 275 275 276 276 275 275 276 276 277 277 278 277 277 277 277 276 276 278 279 279 279 279 279 280 280
279 279 279 279 280 280 280 279 279 279 279 279 278 277 276 276 275 275 275 275 275 275 276 275 274 275 275 276 276 275 275 275 274 275 275 275 276 276 276 276 276 277 277
279 278 278 278 279 280 280 279 279 279 278 278 277 277 277 276 275 275 275 274 275 275 275 275 274 273 274 274 274 274 273 272 272 272 273 273 272 272 272 274 273 274 274
278 278 278 278 277 278 279 279 278 278 278 277 277 277 277 277 276 275 275 274 275 275 274 274 273 273 273 273 273 272 272 271 270 270 269 269 269 269 270 270 270 270 271
278 278 278 277 277 277 278 279 278 277 277 277 276 276 275 275 275 275 275 274 274 275 274 274 274 273 273 273 272 272 271 271 269 268 268 267 268 267 267 268 268 268 268
279 278 277 277 277 277 277 278 277 276 276 276 275 275 274 274 274 273 273 274 274 274 274 274 274 273 273 272 271 271 271 269 268 267 266 266 266 266 266 266 266 265 265

GFSMW_925_thetae_132.txt.gz
Theta_e
294 293 291 290 289 289 289 289 289 289 289 289 289 291 291 292 292 293 295 297 297 298 300 302 304 308 312 321 326 326 329 329 332 332 333 333 333 333 334 333 335 333 334
292 292 290 289 289 288 289 289 289 289 289 288 288 288 288 290 291 291 292 292 293 295 296 297 299 303 305 310 320 327 326 325 324 333 332 333 332 332 333 333 333 335 333
292 291 290 289 288 288 288 288 288 289 288 288 288 288 288 288 289 289 289 291 291 292 294 296 297 299 302 306 311 324 327 326 326 327 331 331 333 332 333 332 333 334 334
291 290 289 288 287 287 288 288 288 288 287 288 288 288 288 288 288 289 289 289 291 291 293 294 295 296 298 300 304 313 326 328 325 327 332 332 331 330 331 332 332 333 334
290 289 288 287 287 287 287 287 288 287 287 287 287 287 288 288 288 289 290 291 291 291 293 294 295 296 298 300 303 309 313 326 327 326 326 327 327 330 328 330 331 332 333
289 288 287 287 287 287 286 286 287 286 286 286 287 287 287 288 288 289 290 292 292 293 294 295 296 296 296 298 303 310 314 319 325 325 324 325 327 328 329 329 328 331 332
288 286 287 286 286 286 285 285 286 285 285 285 286 286 287 288 289 289 291 292 293 294 294 295 296 297 297 297 299 302 308 315 324 324 324 325 327 327 329 329 328 328 329
286 286 287 285 285 285 284 284 284 284 284 284 285 285 286 287 288 289 290 291 293 294 295 296 297 297 297 297 298 300 301 304 309 318 325 325 325 329 328 330 329 330 326
286 285 286 285 284 284 283 283 283 283 283 283 284 284 284 286 287 288 288 290 291 292 293 294 296 298 299 299 299 300 302 306 310 314 317 324 327 326 328 328 329 327 323
286 285 284 284 283 283 282 283 282 282 282 282 283 283 283 285 285 286 286 288 289 289 290 292 293 296 301 301 301 301 302 304 307 308 313 320 325 328 329 329 328 327 324
283 283 283 283 282 282 282 282 282 281 281 281 281 282 282 283 283 283 284 285 287 288 288 290 290 292 295 299 303 303 305 306 308 310 314 317 322 325 327 328 326 323 323
284 282 283 282 282 282 282 282 281 280 280 280 280 280 281 281 282 282 282 283 284 287 287 288 288 289 291 293 296 300 306 309 311 310 314 318 322 323 325 324 324 324 324
284 281 281 282 282 282 281 281 281 279 279 279 279 280 280 280 280 280 281 281 283 284 286 286 287 287 287 289 290 292 294 295 296 297 300 301 310 317 319 322 322 322 323
283 282 281 282 282 282 281 281 280 279 278 278 278 278 278 278 279 279 279 280 281 282 284 285 285 286 286 286 286 287 288 289 289 290 291 292 292 296 304 309 315 321 322
284 283 282 282 282 282 281 281 280 279 278 277 277 276 276 277 277 277 278 279 279 280 282 283 283 284 285 284 284 285 285 285 286 286 287 288 289 288 289 292 294 304 309
284 283 282 282 282 281 281 280 280 279 278 277 276 276 276 276 276 276 276 277 278 279 279 281 282 282 283 283 282 282 282 283 283 284 284 285 285 286 286 285 286 288 291
283 283 282 281 281 280 280 280 279 278 278 277 277 276 276 276 276 276 276 276 277 278 278 278 279 280 281 282 282 281 280 281 281 281 282 283 283 284 285 285 285 285 286
283 282 281 280 280 280 280 279 278 278 277 277 276 276 276 275 275 275 275 275 276 276 277 277 277 278 279 280 280 279 279 278 279 280 280 281 281 282 283 283 283 282 283
280 280 280 280 280 280 280 279 278 277 277 276 276 276 275 275 275 275 275 275 275 275 275 275 276 276 278 278 277 277 277 277 276 277 279 279 279 280 280 280 280 280 281
280 280 279 280 280 280 280 279 278 277 276 276 276 275 275 275 275 275 275 275 275 274 274 274 274 275 275 277 276 275 275 275 275 275 275 277 278 278 278 277 278 278 278
279 279 280 279 280 280 280 279 278 278 277 276 276 276 275 275 275 275 275 275 275 274 274 273 273 273 274 275 275 274 273 272 273 273 273 274 275 276 275 275 275 275 276
279 279 279 279 279 280 279 278 278 278 278 277 276 276 275 275 275 275 275 274 274 274 273 273 273 273 272 273 274 273 272 271 271 271 271 271 272 272 273 272 272 274 274
277 278 279 279 279 279 279 278 277 277 277 277 277 276 276 274 274 275 275 274 273 273 273 272 272 272 272 272 271 272 271 269 269 269 270 270 269 269 269 269 269 270 270
277 277 278 278 278 279 278 278 277 277 277 276 276 275 276 275 274 274 274 275 274 273 272 273 272 272 272 272 272 270 270 269 268 268 268 267 267 267 266 267 267 267 267
277 277 277 277 277 278 278 277 277 277 276 275 275 274 274 274 274 274 274 274 274 274 274 273 273 272 272 272 272 271 270 268 267 267 266 266 265 265 265 264 264 265 266
278 277 277 277 277 278 277 277 276 276 276 275 274 274 273 273 273 272 272 273 274 274 274 274 273 272 272 272 271 270 270 268 267 266 265 264 265 264 264 263 263 263 263

GFSMW_925_thetae_135.txt.gz
Theta_e
295 294 292 291 291 290 290 291 291 291 291 291 291 292 292 292 293 293 293 293 294 296 296 298 300 302 305 310 314 321 323 322 324 328 333 334 333 334 333 332 333 335 334
296 294 292 291 290 290 290 290 290 291 290 290 290 290 290 291 291 292 292 292 292 293 294 296 297 300 304 305 308 315 323 326 327 331 330 334 334 332 333 332 333 334 334
295 293 292 291 290 289 289 289 289 289 289 289 289 290 290 291 292 291 291 291 292 293 293 294 296 298 300 303 305 309 316 324 326 327 327 331 332 333 333 332 332 333 334
293 292 291 290 289 289 289 288 288 288 288 288 288 289 289 289 290 290 290 290 291 293 294 294 295 297 298 300 302 304 308 314 323 328 327 325 328 332 332 332 333 333 334
292 292 290 289 289 288 288 287 288 287 287 286 286 287 288 288 289 289 290 290 291 292 293 294 296 297 298 299 301 303 305 310 314 325 327 327 326 327 326 330 332 333 333
292 290 289 288 288 287 287 286 286 286 286 285 286 286 286 287 288 289 289 290 291 292 293 294 295 297 298 298 299 300 302 305 309 313 325 327 330 328 326 325 326 327 330
291 290 290 288 287 287 286 286 285 285 285 285 285 285 285 286 287 288 289 289 290 292 293 294 295 296 297 298 298 298 299 301 305 311 315 325 327 326 326 325 325 324 326
291 290 289 287 287 286 285 285 284 285 284 284 284 284 284 285 286 287 287 288 289 290 291 292 293 294 296 297 298 298 298 301 303 306 308 312 324 325 325 326 326 327 326
290 289 288 286 285 285 285 284 284 284 283 283 283 284 284 284 285 285 285 286 286 288 289 290 291 293 294 297 298 299 299 299 302 306 309 313 317 325 325 326 326 326 327
290 288 286 285 284 283 283 283 283 283 282 283 283 283 283 282 283 283 283 283 285 287 288 288 289 290 293 296 300 299 300 302 303 305 308 309 312 319 325 325 325 326 326
288 286 284 283 282 282 282 282 282 281 282 282 282 281 281 281 281 281 282 282 284 285 286 287 288 289 290 293 297 301 302 304 306 308 309 312 313 313 318 324 325 325 323
288 285 283 282 282 282 282 282 281 280 280 281 280 279 279 280 280 280 280 281 282 284 285 286 286 287 288 289 291 292 293 294 295 295 296 296 304 310 318 320 324 326 326
287 284 283 283 282 282 282 281 280 279 279 279 279 278 278 278 279 279 279 280 281 282 283 284 285 285 285 286 287 287 288 288 289 289 291 290 291 294 299 305 310 318 325
287 285 284 283 283 282 281 281 280 279 278 277 277 277 277 277 278 278 279 279 280 280 281 282 284 283 283 283 284 284 285 286 286 286 287 288 287 287 290 290 295 299 307
286 285 284 283 283 282 281 281 280 278 277 277 277 277 277 277 277 277 278 278 279 279 280 281 281 282 283 282 282 282 283 283 283 284 284 285 286 286 285 286 286 291 297
286 284 284 283 283 282 281 280 279 279 278 277 276 276 276 276 276 277 277 277 277 277 277 279 280 280 281 281 281 280 281 281 281 282 282 282 283 284 284 283 283 283 285
285 284 283 283 282 281 280 280 279 278 278 277 276 276 276 276 275 276 276 276 276 276 277 277 278 278 278 279 279 278 278 279 280 280 280 281 281 281 282 282 282 282 282
285 284 283 282 281 280 280 279 278 278 278 277 277 276 276 275 275 275 275 275 275 275 275 276 276 277 277 277 277 277 276 276 277 279 278 278 279 279 281 281 281 280 280
283 281 281 281 280 280 279 279 278 278 277 277 277 277 276 275 275 275 275 275 275 275 274 274 275 275 276 276 275 275 275 275 274 275 277 276 277 278 278 278 278 279 279
280 280 280 280 280 279 278 278 277 276 276 276 276 276 276 276 275 275 276 275 275 274 274 274 273 274 274 275 274 273 274 274 273 273 274 275 275 275 275 275 275 276 276
279 279 279 279 279 279 278 278 277 276 275 275 275 275 276 275 275 275 275 275 275 274 274 274 273 273 273 273 273 272 272 272 272 272 272 272 272 273 272 272 272 273 274
280 279 279 279 279 279 279 278 277 276 276 276 275 274 275 275 275 274 275 274 275 275 274 274 274 274 273 272 272 271 270 271 271 271 270 270 270 270 270 270 270 270 272
278 278 278 278 278 278 278 277 277 277 277 276 276 275 274 274 274 275 275 275 274 274 275 274 274 274 273 273 271 270 270 268 269 269 269 269 268 268 267 268 267 268 269
278 277 278 278 277 278 278 277 276 276 276 275 275 274 274 274 274 275 275 276 275 274 274 274 274 273 273 273 272 271 270 268 268 268 268 267 268 267 267 267 266 266 267
278 278 279 279 277 277 277 277 276 276 275 274 274 274 273 273 274 274 275 275 275 275 274 273 274 273 273 272 272 271 270 269 267 268 268 268 268 267 267 267 266 266 266
279 279 279 278 278 278 277 277 276 276 276 275 275 274 274 274 274 274 273 273 274 274 274 274 273 273 273 272 271 270 270 269 268 268 268 268 268 267 267 267 266 266 265